[[{"header":{"parameterUnit":"m.s-1","parameterCategory":1,"la1":31.0,"la2":29.5877,"lo1":-88.7671,"lo2":-86.6584,"dy":0.0162,"dx":0.0185,"nx":115,"ny":88,"refTime":"2023-10-12T06:00:00:Z","depth":0,"parameterNumber":2,"parameterNumberName":"U-component_of_WINDS"},"data":[0.0,0.0,0.0,0.0,0.0,0.0,0.0,0.0,0.0,0.0,0.0,0.0,0.0,0.0,0.0,0.0,0.0,0.0,0.0,0.0,0.0,0.0,0.0,0.0,0.0,0.0,0.0,0.0,0.0,0.0,0.0,0.0,0.0,0.0,0.0,0.0,0.0,0.0,0.0,0.0,0.0,0.0,0.0,0.0,0.0,0.0,0.0,0.0,0.0,0.0,0.0,0.0,0.0,0.0,0.0,0.0,0.0,0.0,0.0,0.0,0.0,0.0,0.0,0.0,0.0,0.0,0.0,0.0,0.0,0.0,0.0,0.0,0.0,0.0,0.0,0.0,0.0,0.0,0.0,0.0,0.0,0.0,0.0,0.0,0.0,0.0,0.0,0.0,0.0,0.0,0.0,0.0,0.0,0.0,0.0,0.0,0.0,0.0,0.0,0.0,0.0,0.0,0.0,0.0,0.0,0.0,0.0,0.0,0.0,0.0,0.0,0.0,0.0,0.0,0.0,0.0,0.0,0.0,0.0,0.0,0.0,0.0,0.0,0.0,0.0,0.0,0.0,0.0,0.0,0.0,0.0,0.0,0.0,0.0,0.0,0.0,0.0,0.0,0.0,0.0,0.0,0.0,0.0,0.0,0.0,0.0,0.0,0.0,0.0,0.0,0.0,0.0,0.0,0.0,0.0,0.0,0.0,0.0,0.0,0.0,0.0,0.0,0.0,0.0,0.0,0.0,0.0,0.0,0.0,0.0,0.0,0.0,0.0,0.0,0.0,0.0,0.0,0.0,0.0,0.0,0.0,0.0,0.0,0.0,0.0,0.0,0.0,0.0,0.0,0.0,0.0,0.0,0.0,0.0,0.0,0.0,0.0,0.0,0.0,0.0,0.0,0.0,0.0,0.0,0.0,0.0,0.0,0.0,0.0,0.0,0.0,0.0,0.0,0.0,0.0,0.0,0.0,0.0,0.0,0.0,0.0,0.0,0.0,0.0,0.0,0.0,0.0,0.0,0.0,0.0,0.0,0.0,0.0,0.0,0.0,0.0,0.0,0.0,0.0,0.0,0.0,0.0,0.0,0.0,0.0,0.0,0.0,0.0,0.0,0.0,0.0,0.0,0.0,0.0,0.0,0.0,0.0,0.0,0.0,0.0,0.0,0.0,0.0,0.0,0.0,0.0,0.0,0.0,0.0,0.0,0.0,0.0,0.0,0.0,0.0,0.0,0.0,0.0,0.0,0.0,0.0,0.0,0.0,0.0,0.0,0.0,0.0,0.0,0.0,0.0,0.0,0.0,0.0,0.0,0.0,0.0,0.0,0.0,0.0,0.0,0.0,0.0,0.0,0.0,0.0,0.0,0.0,0.0,0.0,0.0,0.0,0.0,0.0,0.0,0.0,0.0,0.0,0.0,0.0,0.0,0.0,0.0,0.0,0.0,0.0,0.0,0.0,0.0,0.0,0.0,0.0,0.0,0.0,0.0,0.0,0.0,0.0,0.0,0.0,0.0,0.0,0.0,0.0,0.0,0.0,0.0,0.0,0.0,0.0,0.0,0.0,0.0,0.0,0.0,0.0,0.0,0.0,0.0,0.0,0.0,0.0,0.0,0.0,0.0,0.0,0.0,0.0,0.0,0.0,0.0,0.0,0.0,0.0,0.0,0.0,0.0,0.0,0.0,0.0,0.0,0.0,0.0,0.0,0.0,0.0,0.0,0.0,0.0,0.0,0.0,0.0,0.0,0.0,0.0,0.0,0.0,0.0,0.0,0.0,0.0,0.0,0.0,0.0,0.0,0.0,0.0,0.0,0.0,0.0,0.0,0.0,0.0,0.0,0.0,0.0,0.0,0.0,0.0,0.0,0.0,0.0,0.0,0.0,0.0,0.0,0.0,0.0,0.0,0.0,0.0,0.0,0.0,0.0,0.0,0.0,0.0,0.0,0.0,0.0,0.0,0.0,0.0,0.0,0.0,0.0,0.0,0.0,0.0,0.0,0.0,0.0,0.0,0.0,0.0,0.0,0.0,0.0,0.0,0.0,0.0,0.0,0.0,0.0,0.0,0.0,0.0,0.0,0.0,0.0,0.0,0.0,0.0,0.0,0.0,0.0,0.0,0.0,0.0,0.0,0.0,0.0,0.0,0.0,0.0,0.0,0.0,0.0,0.0,0.0,0.0,0.0,0.0,0.0,0.0,0.0,0.0,0.0,0.0,0.0,0.0,0.0,0.0,0.0,0.0,0.0,0.0,0.0,0.0,0.0,0.0,0.0,0.0,0.0,0.0,0.0,0.0,0.0,0.0,0.0,0.0,0.0,0.0,0.0,0.0,0.0,0.0,0.0,0.0,0.0,0.0,0.0,0.0,0.0,0.0,0.0,0.0,0.0,0.0,0.0,0.0,0.0,0.0,0.0,0.0,0.0,0.0,0.0,0.0,0.0,0.0,0.0,0.0,0.0,0.0,0.0,0.0,0.0,0.0,0.0,0.0,0.0,0.0,0.0,0.0,0.0,0.0,0.0,0.0,0.0,0.0,0.0,0.0,0.0,0.0,0.0,0.0,0.0,0.0,0.0,0.0,0.0,0.0,0.0,0.0,0.0,0.0,0.0,0.0,0.0,0.0,0.0,0.0,0.0,0.0,0.0,0.0,0.0,0.0,0.0,0.0,0.0,0.0,0.0,0.0,0.0,0.0,0.0,0.0,0.0,0.0,0.0,0.0,0.0,0.0,0.0,0.0,0.0,0.0,0.0,0.0,0.0,0.0,0.0,0.0,0.0,0.0,0.0,0.0,0.0,0.0,0.0,0.0,0.0,0.0,0.0,0.0,0.0,0.0,0.0,0.0,0.0,0.0,0.0,0.0,0.0,0.0,0.0,0.0,0.0,0.0,0.0,0.0,0.0,0.0,0.0,0.0,0.0,0.0,0.0,0.0,0.0,0.0,0.0,0.0,0.0,0.0,0.0,0.0,0.0,0.0,0.0,0.0,0.0,0.0,0.0,0.0,0.0,0.0,0.0,0.0,0.0,0.0,0.0,0.0,0.0,0.0,0.0,0.0,0.0,0.0,0.0,0.0,0.0,0.0,0.0,0.0,0.0,0.0,0.0,0.0,0.0,0.0,0.0,0.0,0.0,0.0,0.0,0.0,0.0,0.0,0.0,0.0,0.0,0.0,0.0,0.0,0.0,0.0,0.0,0.0,0.0,0.0,0.0,0.0,0.0,0.0,0.0,0.0,0.0,0.0,0.0,0.0,0.0,0.0,0.0,0.0,0.0,0.0,0.0,0.0,0.0,0.0,0.0,0.0,0.0,0.0,0.0,0.0,0.0,0.0,0.0,0.0,0.0,0.0,0.0,0.0,0.0,0.0,0.0,0.0,0.0,0.0,0.0,0.0,0.0,0.0,0.0,0.0,0.0,0.0,0.0,0.0,0.0,0.0,0.0,0.0,0.0,0.0,0.0,0.0,0.0,0.0,0.0,0.0,0.0,0.0,0.0,0.0,0.0,0.0,0.0,0.0,0.0,0.0,0.0,0.0,0.0,0.0,0.0,0.0,0.0,0.0,0.0,0.0,0.0,0.0,0.0,0.0,0.0,0.0,0.0,0.0,0.0,0.0,0.0,0.0,0.0,0.0,0.0,0.0,0.0,0.0,0.0,0.0,0.0,0.0,0.0,0.0,0.0,0.0,0.0,0.0,0.0,0.0,0.0,0.0,0.0,0.0,0.0,0.0,0.0,0.0,0.0,0.0,0.0,0.0,0.0,0.0,0.0,0.0,0.0,0.0,0.0,0.0,0.0,0.0,0.0,0.0,0.0,0.0,0.0,0.0,0.0,0.0,0.0,0.0,0.0,0.0,0.0,0.0,0.0,0.0,0.0,0.0,0.0,0.0,0.0,0.0,0.0,0.0,0.0,0.0,0.0,0.0,0.0,0.0,0.0,0.0,0.0,0.0,0.0,0.0,0.0,0.0,0.0,0.0,0.0,0.0,0.0,0.0,0.0,0.0,0.0,0.0,0.0,0.0,0.0,0.0,0.0,0.0,0.0,0.0,0.0,0.0,0.0,0.0,0.0,0.0,0.0,0.0,0.0,0.0,0.0,0.0,0.0,0.0,0.0,0.0,0.0,0.0,0.0,0.0,0.0,0.0,0.0,0.0,0.0,0.0,0.0,0.0,0.0,0.0,0.0,0.0,0.0,0.0,0.0,0.0,0.0,0.0,0.0,0.0,0.0,0.0,0.0,0.0,0.0,0.0,0.0,0.0,0.0,0.0,0.0,0.0,0.0,0.0,1.5294,0.0,0.0,0.0,0.0,0.0,0.0,0.0,0.0,0.0,0.0,0.0,0.0,0.0,0.0,0.0,0.0,0.0,0.0,0.0,0.0,0.0,0.0,0.0,0.0,0.0,0.0,0.0,0.0,0.0,0.0,0.0,0.0,0.0,0.0,0.0,0.0,0.0,0.0,0.0,0.0,0.0,0.0,0.0,0.0,0.0,0.0,0.0,0.0,0.0,0.0,0.0,0.0,0.0,0.0,0.0,0.0,0.0,0.0,0.0,0.0,0.0,0.0,0.0,0.0,0.0,0.0,0.0,0.0,0.0,0.0,0.0,0.0,0.0,0.0,0.0,0.0,0.0,0.0,0.0,0.0,0.0,0.0,0.0,0.0,0.0,0.0,0.0,0.0,0.0,0.0,0.0,0.0,0.0,0.0,0.0,0.0,0.0,0.0,0.0,0.0,0.0,0.0,0.0,0.0,0.0,0.0,0.0,0.0,0.0,0.0,1.5409,1.5403,1.5349,1.5288,1.5284,0.0,0.0,0.0,0.0,0.0,0.0,0.0,0.0,0.0,0.0,0.0,0.0,0.0,0.0,0.0,0.0,0.0,0.0,0.0,0.0,0.0,0.0,0.0,0.0,0.0,0.0,0.0,0.0,0.0,0.0,0.0,0.0,0.0,0.0,0.0,0.0,0.0,0.0,0.0,0.0,0.0,0.0,0.0,0.0,0.0,0.0,0.0,0.0,0.0,0.0,0.0,0.0,0.0,0.0,0.0,0.0,0.0,0.0,0.0,0.0,0.0,0.0,0.0,0.0,0.0,0.0,0.0,0.0,0.0,0.0,0.0,0.0,0.0,0.0,0.0,0.0,0.0,0.0,0.0,0.0,0.0,0.0,0.0,0.0,0.0,0.0,0.0,0.0,0.0,0.0,0.0,0.0,0.0,0.0,0.0,0.0,0.0,0.0,0.0,0.0,0.0,0.0,0.0,0.0,0.0,0.0,0.0,0.0,0.0,0.0,0.0,0.0,1.5835,1.5873,1.5859,0.0,0.0,0.0,0.0,0.0,0.0,0.0,0.0,0.0,0.0,0.0,0.0,0.0,0.0,0.0,0.0,0.0,0.0,0.0,0.0,0.0,0.0,0.0,0.0,0.0,0.0,0.0,0.0,0.0,0.0,0.0,0.0,0.0,0.0,0.0,0.0,0.0,0.0,0.0,0.0,0.0,0.0,0.0,0.0,0.0,0.0,0.0,0.0,0.0,0.0,0.0,0.0,0.0,0.0,0.0,0.0,0.0,0.0,0.0,0.0,0.0,0.0,0.0,0.0,0.0,0.0,0.0,0.0,0.0,0.0,0.0,0.0,0.0,0.0,0.0,0.0,0.0,0.0,0.0,0.0,0.0,0.0,0.0,0.0,0.0,0.0,0.0,0.0,0.0,0.0,0.0,0.0,0.0,0.0,0.0,0.0,0.0,0.0,0.0,0.0,0.0,0.0,0.0,0.0,0.0,0.0,0.0,0.0,0.0,0.0,1.6581,1.6596,1.7259,0.0,1.7534,0.0,0.0,0.0,0.0,0.0,0.0,0.0,0.0,0.0,0.0,0.0,0.0,0.0,0.0,0.0,0.0,0.0,0.0,0.0,0.0,0.0,0.0,0.0,0.0,0.0,0.0,0.0,0.0,0.0,0.0,0.0,0.0,0.0,0.0,0.0,0.0,0.0,0.0,0.0,0.0,0.0,0.0,0.0,0.0,0.0,0.0,0.0,0.0,0.0,0.0,0.0,0.0,0.0,0.0,0.0,0.0,0.0,0.0,0.0,0.0,0.0,0.0,0.0,0.0,0.0,0.0,0.0,0.0,0.0,0.0,0.0,0.0,0.0,0.0,0.0,0.0,0.0,0.0,0.0,0.0,0.0,0.0,0.0,0.0,0.0,0.0,0.0,0.0,0.0,0.0,0.0,0.0,0.0,0.0,0.0,0.0,0.0,0.0,0.0,0.0,0.0,0.0,0.0,0.0,0.0,0.0,0.0,0.0,0.0,0.0,1.7431,1.7461,1.7755,1.7881,0.0,0.0,0.0,0.0,0.0,0.0,0.0,0.0,0.0,0.0,0.0,0.0,0.0,0.0,0.0,0.0,0.0,0.0,0.0,0.0,0.0,0.0,0.0,0.0,0.0,0.0,0.0,0.0,0.0,0.0,0.0,0.0,0.0,0.0,0.0,0.0,0.0,0.0,0.0,0.0,0.0,0.0,0.0,0.0,0.0,0.0,0.0,0.0,0.0,0.0,0.0,0.0,0.0,0.0,0.0,0.0,0.0,0.0,0.0,0.0,0.0,0.0,0.0,0.0,0.0,0.0,0.0,0.0,0.0,0.0,0.0,0.0,0.0,0.0,0.0,0.0,0.0,0.0,0.0,0.0,0.0,0.0,0.0,0.0,0.0,0.0,0.0,0.0,0.0,0.0,0.0,0.0,0.0,0.0,0.0,0.0,0.0,0.0,0.0,0.0,0.0,0.0,0.0,0.0,0.0,0.0,0.0,0.0,0.0,0.0,1.779,1.8399,1.8691,1.8659,1.862,1.8613,0.0,0.0,0.0,0.0,0.0,0.0,0.0,0.0,0.0,0.0,0.0,0.0,0.0,0.0,0.0,0.0,0.0,0.0,0.0,0.0,0.0,0.0,0.0,0.0,0.0,0.0,0.0,0.0,0.0,0.0,0.0,0.0,0.0,0.0,0.0,0.0,0.0,0.0,0.0,0.0,0.0,0.0,0.0,0.0,0.0,0.0,0.0,0.0,0.0,0.0,0.0,0.0,0.0,0.0,0.0,0.0,0.0,0.0,0.0,0.0,0.0,0.0,0.0,0.0,0.0,0.0,0.0,0.0,0.0,0.0,0.0,0.0,0.0,0.0,0.0,0.0,0.0,0.0,0.0,0.0,0.0,0.0,0.0,0.0,0.0,0.0,0.0,0.0,0.0,0.0,0.0,0.0,0.0,0.0,0.0,0.0,0.0,0.0,0.0,0.0,0.0,0.0,0.0,0.0,0.0,0.0,0.0,0.0,1.7771,1.8675,1.9576,2.0406,2.042,2.0382,0.0,0.0,0.0,0.0,0.0,0.0,0.0,0.0,0.0,0.0,0.0,0.0,0.0,0.0,0.0,0.0,0.0,0.0,0.0,0.0,0.0,0.0,0.0,0.0,0.0,0.0,0.0,0.0,0.0,0.0,0.0,0.0,0.0,0.0,0.0,0.0,0.0,0.0,0.0,0.0,0.0,0.0,0.0,0.0,0.0,0.0,0.0,0.0,0.0,0.0,0.0,0.0,0.0,0.0,0.0,0.0,0.0,0.0,0.0,0.0,0.0,0.0,0.0,0.0,0.0,0.0,0.0,0.0,0.0,0.0,0.0,0.0,0.0,0.0,0.0,0.0,0.0,0.0,0.0,0.0,0.0,0.0,0.0,0.0,0.0,0.0,0.0,0.0,0.0,0.0,0.0,0.0,0.0,0.0,0.0,0.0,0.0,0.0,0.0,0.0,0.0,0.0,0.0,0.0,0.0,0.0,0.0,0.0,0.0,1.8667,1.9542,2.0217,2.0585,2.0562,2.0529,0.0,0.0,0.0,0.0,0.0,0.0,0.0,0.0,0.0,0.0,0.0,0.0,0.0,0.0,0.0,0.0,0.0,0.0,0.0,0.0,0.0,0.0,0.0,0.0,0.0,0.0,0.0,0.0,0.0,0.0,0.0,0.0,0.0,0.0,0.0,0.0,0.0,0.0,0.0,0.0,0.0,0.0,0.0,0.0,0.0,0.0,0.0,0.0,0.0,0.0,0.0,0.0,0.0,0.0,0.0,0.0,0.0,0.0,0.0,0.0,0.0,0.0,0.0,0.0,0.0,0.0,0.0,0.0,0.0,0.0,0.0,0.0,0.0,0.0,0.0,0.0,0.0,0.0,0.0,0.0,0.0,0.0,0.0,0.0,0.0,0.0,0.0,0.0,0.0,0.0,0.0,0.0,0.0,0.0,0.0,0.0,0.0,0.0,0.0,0.0,0.0,0.0,0.0,0.0,0.0,0.0,0.0,0.0,0.0,1.9546,0.0,2.0543,2.0599,2.0605,2.0561,0.0,0.0,0.0,0.0,0.0,0.0,0.0,0.0,0.0,0.0,0.0,0.0,0.0,0.0,0.0,0.0,0.0,0.0,0.0,0.0,0.0,0.0,0.0,0.0,0.0,0.0,0.0,0.0,0.0,0.0,0.0,0.0,0.0,0.0,0.0,0.0,0.0,0.0,0.0,0.0,0.0,0.0,0.0,0.0,0.0,0.0,0.0,0.0,0.0,0.0,0.0,0.0,0.0,0.0,0.0,0.0,0.0,0.0,0.0,0.0,0.0,0.0,0.0,0.0,0.0,0.0,0.0,0.0,0.0,0.0,0.0,0.0,0.0,0.0,0.0,0.0,0.0,0.0,0.0,0.0,0.0,0.0,0.0,0.0,0.0,0.0,0.0,0.0,0.0,0.0,0.0,0.0,0.0,0.0,0.0,0.0,0.0,0.0,0.0,0.0,0.0,0.0,0.0,0.0,0.0,0.0,0.0,0.0,2.0346,2.0395,2.048,2.0594,2.0618,2.0662,2.0605,0.0,0.0,0.0,0.0,0.0,0.0,0.0,0.0,0.0,0.0,0.0,0.0,0.0,0.0,0.0,0.0,0.0,0.0,0.0,0.0,0.0,0.0,0.0,0.0,0.0,0.0,0.0,0.0,0.0,0.0,0.0,0.0,0.0,0.0,0.0,0.0,0.0,0.0,0.0,0.0,0.0,0.0,0.0,0.0,0.0,0.0,0.0,0.0,0.0,0.0,0.0,0.0,0.0,0.0,0.0,0.0,0.0,0.0,0.0,0.0,0.0,0.0,0.0,0.0,0.0,0.0,0.0,0.0,0.0,0.0,0.0,0.0,0.0,0.0,0.0,0.0,0.0,0.0,0.0,0.0,0.0,0.0,0.0,0.0,0.0,0.0,0.0,0.0,0.0,0.0,0.0,0.0,0.0,0.0,0.0,0.0,0.0,0.0,0.0,0.0,0.0,0.0,0.0,0.0,0.0,0.0,0.0,0.0,0.0,2.1305,2.1381,2.1422,2.1435,2.1418,2.1154,0.0,0.0,0.0,0.0,0.0,0.0,0.0,0.0,0.0,0.0,0.0,0.0,0.0,0.0,0.0,0.0,0.0,0.0,0.0,0.0,0.0,0.0,0.0,0.0,0.0,0.0,0.0,0.0,0.0,0.0,0.0,0.0,0.0,0.0,0.0,0.0,0.0,0.0,0.0,0.0,0.0,0.0,0.0,0.0,0.0,0.0,0.0,0.0,0.0,0.0,0.0,0.0,0.0,0.0,0.0,0.0,0.0,0.0,0.0,0.0,0.0,0.0,0.0,0.0,0.0,0.0,0.0,0.0,0.0,0.0,0.0,0.0,0.0,0.0,0.0,0.0,0.0,0.0,0.0,0.0,0.0,0.0,0.0,0.0,0.0,0.0,0.0,0.0,0.0,0.0,0.0,0.0,0.0,0.0,0.0,0.0,0.0,0.0,0.0,0.0,0.0,0.0,0.0,0.0,0.0,0.0,0.0,0.0,0.0,2.2569,2.2662,2.2712,2.2691,2.2407,2.1834,2.099,0.0,0.0,0.0,0.0,0.0,0.0,0.0,0.0,0.0,0.0,0.0,0.0,0.0,0.0,0.0,0.0,0.0,0.0,0.0,0.0,0.0,0.0,0.0,0.0,0.0,0.0,0.0,0.0,0.0,0.0,0.0,0.0,0.0,0.0,0.0,0.0,0.0,0.0,0.0,0.0,0.0,0.0,0.0,0.0,0.0,0.0,0.0,0.0,0.0,0.0,0.0,0.0,0.0,0.0,0.0,0.0,0.0,0.0,0.0,0.0,0.0,0.0,0.0,0.0,0.0,0.0,0.0,0.0,0.0,0.0,0.0,0.0,0.0,0.0,0.0,0.0,0.0,0.0,0.0,0.0,0.0,0.0,0.0,0.0,0.0,0.0,0.0,0.0,0.0,0.0,0.0,0.0,0.0,0.0,0.0,0.0,0.0,0.0,0.0,0.0,0.0,0.0,0.0,0.0,0.0,0.0,0.0,0.0,2.4178,2.4389,2.4418,2.4322,2.357,2.2712,0.0,0.0,0.0,0.0,0.0,0.0,0.0,0.0,0.0,0.0,0.0,0.0,0.0,0.0,0.0,0.0,0.0,0.0,0.0,0.0,0.0,0.0,0.0,0.0,0.0,0.0,0.0,0.0,0.0,0.0,0.0,0.0,0.0,0.0,0.0,0.0,0.0,0.0,0.0,0.0,0.0,0.0,0.0,0.0,0.0,0.0,0.0,0.0,0.0,0.0,0.0,0.0,0.0,0.0,0.0,0.0,0.0,0.0,0.0,0.0,0.0,0.0,0.0,0.0,0.0,0.0,0.0,0.0,0.0,0.0,0.0,0.0,0.0,0.0,0.0,0.0,0.0,0.0,0.0,0.0,0.0,0.0,0.0,0.0,0.0,0.0,0.0,0.0,0.0,0.0,0.0,0.0,0.0,0.0,0.0,0.0,0.0,0.0,0.0,0.0,0.0,0.0,0.0,0.0,0.0,0.0,0.0,0.0,0.0,2.5479,2.6855,2.7089,2.6072,2.5217,2.4089,0.0,0.0,0.0,0.0,0.0,0.0,0.0,0.0,0.0,0.0,0.0,0.0,0.0,0.0,0.0,0.0,0.0,0.0,0.0,0.0,0.0,0.0,0.0,0.0,0.0,0.0,0.0,0.0,0.0,0.0,0.0,0.0,0.0,0.0,0.0,0.0,0.0,0.0,0.0,0.0,0.0,0.0,0.0,0.0,0.0,0.0,0.0,0.0,0.0,0.0,0.0,0.0,0.0,0.0,0.0,0.0,0.0,0.0,0.0,0.0,0.0,0.0,0.0,0.0,0.0,0.0,0.0,0.0,0.0,0.0,0.0,0.0,0.0,0.0,0.0,0.0,0.0,0.0,0.0,0.0,0.0,0.0,0.0,0.0,0.0,0.0,0.0,0.0,0.0,0.0,0.0,0.0,0.0,0.0,0.0,0.0,0.0,0.0,0.0,0.0,0.0,0.0,0.0,0.0,0.0,0.0,0.0,0.0,2.4979,2.6004,2.8089,2.8789,2.7994,2.6631,2.5125,0.0,0.0,0.0,0.0,0.0,0.0,0.0,0.0,0.0,0.0,0.0,0.0,0.0,0.0,0.0,0.0,0.0,0.0,0.0,0.0,0.0,0.0,0.0,0.0,0.0,0.0,0.0,0.0,0.0,0.0,0.0,0.0,0.0,0.0,0.0,0.0,0.0,0.0,0.0,0.0,0.0,0.0,0.0,0.0,0.0,0.0,0.0,0.0,0.0,0.0,0.0,0.0,0.0,0.0,0.0,0.0,0.0,0.0,0.0,0.0,0.0,0.0,0.0,0.0,0.0,0.0,0.0,0.0,0.0,0.0,0.0,0.0,0.0,0.0,0.0,0.0,0.0,0.0,0.0,0.0,0.0,0.0,0.0,0.0,0.0,0.0,0.0,0.0,0.0,0.0,0.0,0.0,0.0,0.0,0.0,0.0,0.0,0.0,0.0,0.0,0.0,0.0,0.0,0.0,0.0,0.0,0.0,0.0,2.5951,2.6209,2.8476,2.9661,2.9603,2.7733,2.5946,0.0,0.0,0.0,0.0,0.0,0.0,0.0,0.0,0.0,0.0,0.0,0.0,0.0,0.0,0.0,0.0,0.0,0.0,0.0,0.0,0.0,0.0,0.0,0.0,0.0,0.0,0.0,0.0,0.0,0.0,0.0,0.0,0.0,0.0,0.0,0.0,0.0,0.0,0.0,0.0,0.0,0.0,0.0,0.0,0.0,0.0,0.0,0.0,0.0,0.0,0.0,0.0,0.0,0.0,0.0,0.0,0.0,0.0,0.0,0.0,0.0,0.0,0.0,0.0,0.0,0.0,0.0,0.0,0.0,0.0,0.0,0.0,0.0,0.0,0.0,0.0,0.0,0.0,0.0,0.0,0.0,0.0,0.0,0.0,0.0,0.0,0.0,0.0,0.0,0.0,0.0,0.0,0.0,0.0,0.0,0.0,0.0,0.0,0.0,0.0,0.0,0.0,0.0,0.0,0.0,0.0,0.0,0.0,2.6151,2.7465,2.8778,2.9474,2.9474,2.7991,2.6749,0.0,0.0,0.0,0.0,0.0,0.0,0.0,0.0,0.0,0.0,0.0,0.0,0.0,0.0,0.0,0.0,0.0,0.0,0.0,0.0,0.0,0.0,0.0,0.0,0.0,0.0,0.0,0.0,0.0,0.0,0.0,0.0,0.0,0.0,0.0,0.0,0.0,0.0,0.0,0.0,0.0,0.0,0.0,0.0,0.0,0.0,0.0,0.0,2.2177,0.0,0.0,0.0,0.0,0.0,0.0,0.0,0.0,0.0,0.0,0.0,0.0,0.0,0.0,0.0,0.0,0.0,0.0,0.0,0.0,0.0,0.0,0.0,0.0,0.0,0.0,0.0,0.0,0.0,0.0,0.0,0.0,0.0,0.0,0.0,0.0,0.0,0.0,0.0,0.0,0.0,0.0,0.0,0.0,0.0,0.0,0.0,0.0,0.0,0.0,0.0,0.0,0.0,0.0,0.0,0.0,0.0,0.0,0.0,2.6765,2.8408,2.9326,2.9943,3.028,2.9338,2.7938,0.0,0.0,0.0,0.0,0.0,0.0,0.0,0.0,0.0,0.0,0.0,0.0,0.0,0.0,0.0,0.0,0.0,0.0,0.0,0.0,0.0,0.0,0.0,0.0,0.0,0.0,0.0,0.0,0.0,0.0,0.0,0.0,0.0,0.0,0.0,0.0,0.0,0.0,0.0,0.0,0.0,0.0,0.0,0.0,0.0,0.0,0.0,0.0,0.0,0.0,0.0,0.0,0.0,0.0,0.0,0.0,0.0,0.0,0.0,0.0,0.0,0.0,0.0,0.0,0.0,0.0,0.0,0.0,0.0,0.0,0.0,0.0,0.0,0.0,0.0,0.0,0.0,0.0,0.0,0.0,0.0,0.0,0.0,0.0,0.0,0.0,0.0,0.0,0.0,0.0,0.0,0.0,0.0,0.0,0.0,0.0,0.0,0.0,0.0,0.0,0.0,0.0,0.0,0.0,0.0,0.0,0.0,2.5612,2.7584,2.9143,2.9844,3.0494,3.1159,3.0564,2.8938,2.6257,0.0,0.0,0.0,0.0,0.0,0.0,0.0,0.0,0.0,0.0,0.0,0.0,0.0,0.0,0.0,0.0,0.0,0.0,0.0,0.0,0.0,0.0,0.0,0.0,0.0,0.0,0.0,0.0,0.0,0.0,0.0,0.0,0.0,0.0,0.0,0.0,0.0,0.0,2.1966,2.2831,0.0,0.0,0.0,0.0,0.0,0.0,0.0,0.0,2.4011,0.0,0.0,0.0,0.0,0.0,0.0,0.0,0.0,0.0,0.0,0.0,0.0,0.0,0.0,0.0,0.0,0.0,0.0,0.0,0.0,0.0,0.0,0.0,0.0,0.0,0.0,0.0,0.0,0.0,0.0,0.0,0.0,0.0,0.0,0.0,0.0,0.0,0.0,0.0,0.0,0.0,0.0,0.0,0.0,0.0,0.0,0.0,0.0,0.0,0.0,0.0,0.0,0.0,0.0,0.0,0.0,2.3957,2.6519,2.8415,2.955,2.9935,3.0196,3.0285,2.9719,2.8577,2.6886,0.0,0.0,0.0,0.0,0.0,0.0,0.0,0.0,0.0,0.0,0.0,0.0,0.0,0.0,0.0,0.0,0.0,0.0,0.0,0.0,0.0,0.0,0.0,0.0,0.0,0.0,0.0,0.0,0.0,0.0,0.0,0.0,0.0,0.0,0.0,0.0,0.0,0.0,0.0,2.5437,2.5764,0.0,0.0,0.0,0.0,0.0,0.0,0.0,0.0,2.6331,0.0,0.0,0.0,0.0,0.0,0.0,0.0,0.0,0.0,0.0,0.0,0.0,0.0,0.0,0.0,0.0,0.0,0.0,0.0,0.0,0.0,0.0,0.0,0.0,0.0,0.0,0.0,0.0,0.0,0.0,0.0,0.0,0.0,0.0,0.0,0.0,0.0,0.0,0.0,0.0,0.0,0.0,0.0,0.0,0.0,0.0,0.0,0.0,0.0,0.0,0.0,0.0,0.0,0.0,0.0,2.4215,2.6967,2.9006,3.0064,3.0529,3.0914,3.132,3.0734,2.9478,0.0,0.0,0.0,0.0,0.0,0.0,0.0,0.0,0.0,0.0,0.0,0.0,0.0,0.0,0.0,0.0,0.0,0.0,0.0,0.0,0.0,0.0,0.0,0.0,0.0,0.0,0.0,0.0,0.0,0.0,0.0,0.0,0.0,0.0,0.0,0.0,0.0,0.0,0.0,0.0,2.6726,2.7437,2.7879,0.0,0.0,0.0,0.0,0.0,0.0,2.8241,2.7855,0.0,0.0,0.0,0.0,0.0,0.0,0.0,0.0,0.0,0.0,0.0,0.0,0.0,0.0,0.0,0.0,0.0,0.0,0.0,0.0,0.0,0.0,0.0,0.0,0.0,0.0,0.0,0.0,0.0,0.0,0.0,0.0,0.0,0.0,0.0,0.0,0.0,0.0,0.0,0.0,0.0,0.0,0.0,0.0,0.0,0.0,0.0,0.0,0.0,0.0,0.0,0.0,0.0,0.0,0.0,2.4839,2.7659,2.9612,3.0608,3.1059,3.1582,3.2213,3.1452,3.0017,0.0,0.0,0.0,0.0,0.0,0.0,0.0,0.0,0.0,0.0,0.0,0.0,0.0,0.0,0.0,0.0,0.0,0.0,0.0,0.0,0.0,0.0,0.0,0.0,0.0,0.0,0.0,0.0,0.0,0.0,0.0,0.0,0.0,0.0,0.0,0.0,0.0,0.0,0.0,0.0,0.0,2.8698,3.0175,2.9783,0.0,0.0,0.0,0.0,2.9712,2.9852,0.0,0.0,0.0,0.0,0.0,0.0,0.0,0.0,0.0,0.0,0.0,0.0,0.0,0.0,0.0,0.0,0.0,0.0,0.0,0.0,0.0,0.0,0.0,0.0,0.0,0.0,0.0,0.0,0.0,0.0,0.0,0.0,0.0,0.0,0.0,0.0,0.0,0.0,0.0,0.0,0.0,0.0,0.0,0.0,0.0,0.0,0.0,0.0,0.0,0.0,0.0,0.0,0.0,0.0,0.0,0.0,2.711,2.916,3.0514,3.1074,3.1176,3.1244,3.1334,3.0137,2.8733,0.0,0.0,0.0,0.0,0.0,0.0,0.0,0.0,0.0,0.0,0.0,0.0,0.0,0.0,0.0,0.0,0.0,0.0,0.0,0.0,0.0,0.0,0.0,0.0,0.0,0.0,0.0,0.0,0.0,0.0,0.0,0.0,0.0,0.0,0.0,0.0,0.0,0.0,0.0,0.0,0.0,2.931,3.0254,3.0323,2.9987,0.0,0.0,3.141,3.141,3.2054,0.0,0.0,0.0,0.0,0.0,0.0,0.0,0.0,0.0,0.0,0.0,0.0,0.0,0.0,0.0,0.0,0.0,0.0,0.0,0.0,0.0,0.0,0.0,0.0,0.0,0.0,0.0,0.0,0.0,0.0,0.0,0.0,0.0,0.0,0.0,0.0,0.0,0.0,0.0,0.0,0.0,0.0,0.0,0.0,0.0,0.0,0.0,0.0,0.0,0.0,0.0,0.0,0.0,0.0,0.0,2.6879,2.8667,3.0349,3.1384,3.1685,3.138,3.119,3.119,2.9887,2.8493,0.0,0.0,0.0,0.0,0.0,0.0,0.0,0.0,0.0,0.0,0.0,0.0,0.0,0.0,0.0,0.0,0.0,0.0,0.0,0.0,0.0,0.0,0.0,0.0,0.0,0.0,0.0,0.0,0.0,0.0,0.0,0.0,0.0,0.0,0.0,0.0,0.0,0.0,0.0,0.0,0.0,0.0,3.1642,3.225,0.0,0.0,0.0,3.2961,3.2512,0.0,0.0,0.0,0.0,0.0,0.0,0.0,0.0,0.0,0.0,0.0,0.0,0.0,0.0,0.0,0.0,0.0,0.0,0.0,0.0,0.0,0.0,0.0,0.0,0.0,0.0,0.0,0.0,0.0,0.0,0.0,0.0,0.0,0.0,0.0,0.0,0.0,0.0,0.0,0.0,0.0,0.0,0.0,0.0,0.0,0.0,0.0,0.0,0.0,0.0,0.0,0.0,0.0,0.0,0.0,0.0,0.0,2.9782,3.1124,3.1894,3.2069,3.1496,3.119,3.1157,3.0054,0.0,0.0,0.0,0.0,0.0,0.0,0.0,0.0,0.0,0.0,0.0,0.0,0.0,0.0,0.0,0.0,0.0,0.0,0.0,0.0,0.0,0.0,0.0,0.0,0.0,0.0,0.0,2.1404,0.0,0.0,0.0,0.0,0.0,0.0,0.0,0.0,0.0,0.0,0.0,0.0,0.0,0.0,3.1256,3.2686,3.366,3.4199,0.0,0.0,3.4,3.339,3.4026,3.3737,0.0,0.0,0.0,0.0,0.0,0.0,0.0,0.0,0.0,0.0,0.0,0.0,0.0,0.0,0.0,0.0,0.0,0.0,0.0,0.0,0.0,0.0,0.0,0.0,0.0,0.0,0.0,0.0,0.0,0.0,0.0,0.0,0.0,0.0,0.0,0.0,0.0,0.0,0.0,0.0,0.0,0.0,0.0,0.0,0.0,0.0,0.0,0.0,0.0,0.0,0.0,0.0,0.0,0.0,2.8196,3.0387,3.1331,3.193,3.2069,3.1496,3.119,3.1173,3.0446,2.9102,0.0,0.0,0.0,0.0,0.0,0.0,0.0,0.0,0.0,0.0,0.0,0.0,0.0,0.0,0.0,0.0,0.0,0.0,0.0,0.0,0.0,0.0,0.0,0.0,0.0,0.0,0.0,0.0,0.0,0.0,0.0,0.0,0.0,0.0,0.0,0.0,0.0,0.0,0.0,0.0,0.0,3.1917,3.2788,3.3647,3.4199,0.0,3.4199,3.416,3.4154,3.4853,3.4539,3.2039,0.0,0.0,0.0,0.0,0.0,0.0,0.0,0.0,0.0,0.0,0.0,0.0,0.0,0.0,0.0,0.0,0.0,0.0,0.0,0.0,0.0,0.0,0.0,0.0,0.0,0.0,0.0,0.0,0.0,0.0,0.0,0.0,0.0,0.0,0.0,0.0,0.0,0.0,0.0,0.0,0.0,0.0,0.0,0.0,0.0,0.0,0.0,0.0,0.0,0.0,0.0,0.0,0.0,2.8699,2.9539,3.1596,3.2706,3.2752,3.2283,3.1986,3.2003,3.1307,3.0134,0.0,0.0,0.0,0.0,0.0,0.0,0.0,0.0,0.0,0.0,0.0,0.0,0.0,0.0,0.0,0.0,0.0,0.0,0.0,0.0,0.0,0.0,0.0,0.0,0.0,0.0,0.0,0.0,2.7572,2.8153,2.8006,0.0,0.0,0.0,0.0,0.0,0.0,0.0,0.0,0.0,0.0,3.2359,3.4243,3.5205,0.0,0.0,3.6554,3.6342,3.5815,3.6021,3.5553,3.3564,3.2844,0.0,0.0,0.0,0.0,0.0,0.0,0.0,0.0,0.0,0.0,0.0,0.0,0.0,0.0,0.0,0.0,0.0,0.0,0.0,0.0,0.0,0.0,0.0,0.0,0.0,0.0,0.0,0.0,0.0,0.0,0.0,0.0,0.0,0.0,0.0,0.0,0.0,0.0,0.0,0.0,0.0,0.0,0.0,0.0,0.0,0.0,0.0,0.0,0.0,0.0,0.0,0.0,2.9089,2.9295,3.1858,3.3239,3.3306,3.2905,3.2669,3.2738,3.2458,3.1588,0.0,0.0,0.0,0.0,0.0,0.0,0.0,0.0,0.0,0.0,0.0,0.0,0.0,0.0,0.0,0.0,0.0,0.0,0.0,0.0,0.0,0.0,0.0,0.0,0.0,0.0,0.0,0.0,2.8858,2.9197,2.8124,0.0,0.0,0.0,0.0,0.0,0.0,0.0,0.0,0.0,0.0,3.3757,3.5282,3.6411,3.7199,3.7565,3.7618,3.7401,3.6796,3.6502,3.5944,3.4776,0.0,0.0,0.0,0.0,0.0,0.0,0.0,0.0,0.0,0.0,0.0,0.0,0.0,0.0,0.0,0.0,0.0,0.0,0.0,0.0,0.0,0.0,0.0,0.0,0.0,0.0,0.0,1.9184,0.0,0.0,1.8181,0.0,0.0,0.0,0.0,0.0,0.0,0.0,0.0,0.0,0.0,0.0,0.0,0.0,0.0,0.0,0.0,0.0,0.0,0.0,0.0,0.0,0.0,2.9388,3.0191,3.2195,3.3368,3.3613,3.3209,3.3141,3.342,3.3899,3.3519,3.2142,0.0,0.0,0.0,0.0,0.0,0.0,0.0,0.0,0.0,0.0,0.0,0.0,0.0,0.0,0.0,0.0,0.0,0.0,0.0,0.0,0.0,0.0,0.0,0.0,0.0,0.0,2.6904,2.9049,2.9814,0.0,0.0,0.0,0.0,0.0,0.0,0.0,0.0,0.0,0.0,3.4526,3.6315,3.5661,3.6911,3.7642,3.6911,3.6767,3.6748,3.6738,3.6084,3.5507,0.0,0.0,0.0,0.0,0.0,0.0,0.0,0.0,0.0,0.0,0.0,0.0,0.0,0.0,0.0,0.0,0.0,0.0,0.0,0.0,0.0,0.0,0.0,0.0,0.0,0.0,0.0,2.0548,2.0281,0.0,0.0,0.0,0.0,0.0,0.0,0.0,0.0,0.0,0.0,0.0,2.649,2.6986,0.0,0.0,0.0,0.0,0.0,0.0,0.0,0.0,0.0,0.0,0.0,0.0,2.9654,3.1017,3.3231,3.4728,3.5369,3.5263,3.5231,3.5319,3.5501,3.4857,3.3298,0.0,0.0,0.0,0.0,0.0,0.0,0.0,0.0,0.0,0.0,0.0,0.0,0.0,0.0,0.0,0.0,0.0,0.0,0.0,0.0,0.0,0.0,0.0,0.0,0.0,2.7807,0.0,0.0,0.0,0.0,0.0,0.0,0.0,0.0,0.0,0.0,0.0,3.2526,3.4737,3.5026,3.5565,3.6969,3.7137,3.7445,0.0,0.0,0.0,0.0,0.0,0.0,0.0,0.0,0.0,0.0,0.0,0.0,0.0,0.0,3.2513,3.0901,3.1053,3.1441,3.1463,0.0,0.0,0.0,0.0,0.0,0.0,0.0,0.0,0.0,0.0,0.0,0.0,0.0,0.0,2.1519,2.1334,2.1523,0.0,0.0,0.0,0.0,0.0,0.0,0.0,0.0,2.6797,2.756,2.8481,2.9148,2.9369,0.0,2.9544,2.89,0.0,0.0,0.0,0.0,0.0,0.0,0.0,0.0,3.0631,3.2228,3.4347,3.5768,3.6407,3.6431,3.6479,3.6608,3.6771,3.6321,3.5119,3.4275,3.2828,0.0,0.0,0.0,0.0,0.0,0.0,0.0,0.0,0.0,0.0,0.0,0.0,0.0,0.0,0.0,0.0,0.0,0.0,0.0,0.0,0.0,0.0,0.0,2.91,0.0,0.0,0.0,0.0,0.0,0.0,0.0,0.0,0.0,3.216,3.316,3.4603,3.6449,3.6526,3.6796,3.7853,0.0,0.0,0.0,0.0,0.0,0.0,0.0,3.793,3.7642,3.8084,3.8277,3.7767,3.6947,3.6369,3.6382,0.0,0.0,3.3592,3.3575,3.3972,3.3953,3.3961,3.4036,3.4284,3.4318,3.4545,0.0,0.0,0.0,0.0,0.0,0.0,0.0,0.0,2.2769,2.2817,0.0,2.2655,0.0,0.0,0.0,0.0,2.4596,2.5385,0.0,0.0,2.9834,3.054,3.0375,3.1288,3.156,3.122,3.1235,3.1243,3.1221,2.985,0.0,0.0,0.0,0.0,0.0,0.0,3.2242,3.3862,3.5506,3.6495,3.679,3.6775,3.6913,3.7269,3.7684,3.7766,3.7503,3.673,3.5587,3.3931,3.1685,0.0,0.0,0.0,0.0,0.0,0.0,0.0,0.0,0.0,0.0,0.0,0.0,0.0,0.0,0.0,0.0,0.0,0.0,0.0,0.0,2.9013,0.0,0.0,0.0,0.0,0.0,0.0,0.0,0.0,0.0,0.0,3.3333,3.5911,3.77,3.6949,0.0,0.0,0.0,0.0,4.013,3.9446,3.9319,3.9304,3.9392,3.8704,3.8435,3.9238,0.0,0.0,3.9431,3.8719,3.8219,3.8161,3.8834,3.8614,3.6286,3.5854,3.5835,3.5816,3.5854,3.6035,3.6697,3.6909,3.7126,2.2731,0.0,0.0,0.0,0.0,2.2532,2.3476,2.4602,2.4877,2.4955,2.4909,2.4973,0.0,0.0,0.0,0.0,0.0,0.0,2.8029,2.9559,3.0057,3.0496,3.0968,3.1513,3.1725,3.1654,3.2294,3.2632,3.2643,3.2501,3.1439,2.9531,0.0,0.0,0.0,0.0,3.3352,3.5505,3.6625,3.7478,3.8118,3.8136,3.8145,3.8267,3.8382,3.8436,3.8358,3.8114,3.7253,3.5654,3.4402,0.0,0.0,0.0,0.0,0.0,0.0,0.0,0.0,0.0,0.0,0.0,0.0,0.0,0.0,0.0,0.0,0.0,0.0,0.0,2.9263,3.0574,3.0879,0.0,0.0,0.0,0.0,0.0,0.0,0.0,0.0,0.0,3.7411,3.7757,3.8354,0.0,0.0,3.8772,3.8911,3.8815,3.9046,4.0008,3.9665,0.0,4.0912,4.088,4.0803,4.1046,4.1604,4.2008,4.2008,4.1816,4.1643,4.1604,4.1316,4.0816,4.0211,3.9514,3.9109,3.909,3.9109,3.9167,3.9384,3.9446,3.9465,2.5637,2.4987,2.4295,2.3857,2.3631,2.4058,2.4777,2.5659,2.572,2.5793,2.5963,2.605,2.6376,2.676,2.66,0.0,0.0,0.0,2.9397,3.0548,3.0531,3.0768,3.1213,3.1603,3.1787,3.1839,3.2763,3.3376,3.3683,3.4071,3.3733,3.2614,0.0,0.0,3.2797,3.3654,3.4966,3.6736,3.7564,3.8206,3.8707,3.8707,3.8707,3.8707,3.8707,3.8707,3.8707,3.8707,3.8242,3.7277,3.6186,3.4615,0.0,0.0,0.0,0.0,0.0,0.0,0.0,0.0,0.0,0.0,0.0,2.7826,0.0,0.0,0.0,0.0,2.9786,3.0598,3.2324,3.2608,0.0,0.0,0.0,0.0,0.0,0.0,0.0,3.5122,3.7142,3.87,3.9219,3.9431,3.9642,3.9988,3.9734,3.958,3.9738,0.0,4.0377,4.1373,4.1127,4.1146,4.2143,4.2319,4.2302,4.2316,4.2739,4.3085,4.3085,4.3085,4.3085,4.3028,4.2662,4.2316,4.2316,4.1873,4.1239,4.0642,4.0489,4.0489,4.0489,4.0489,4.0489,2.8414,2.8532,2.6804,2.5663,2.5016,2.5708,2.5978,2.5944,2.5901,2.6016,2.6196,2.6505,2.6733,2.6956,2.784,0.0,2.9288,3.0057,3.0751,3.1376,3.136,3.1382,3.1404,3.1792,3.1946,3.1924,3.2854,3.3682,3.4416,3.4834,3.5504,3.6321,3.4853,3.4468,3.522,3.5993,3.6796,3.7569,3.8322,3.8707,3.8707,3.8707,3.8707,3.8707,3.8707,3.8707,3.8707,3.8707,3.8707,3.8652,3.7301,3.613,3.5308,0.0,0.0,0.0,0.0,0.0,0.0,0.0,0.0,0.0,0.0,0.0,0.0,0.0,0.0,0.0,3.2237,0.0,3.5449,3.4872,0.0,0.0,0.0,3.4403,3.4414,3.5873,3.6911,3.6911,0.0,0.0,3.9488,4.0893,4.1354,3.9796,4.0931,4.1604,4.0796,4.2027,4.3126,4.3124,4.3162,4.3201,4.3335,4.3374,4.3374,4.3374,4.3278,4.3393,4.3393,4.3393,4.3335,4.3393,4.3258,4.3181,4.3195,4.3102,4.2604,4.1066,4.0777,4.0758,4.0831,4.0835,4.0854,2.8168,2.931,2.8884,2.8263,2.7679,2.7814,2.8225,2.8637,2.8629,2.8682,2.8756,2.8793,2.9124,2.963,3.0787,3.144,3.1605,3.2303,3.2713,3.2865,3.2882,3.2893,3.2877,3.2974,3.3022,3.3049,3.3606,3.4181,3.4691,3.5177,3.6024,3.7129,3.6798,3.6707,3.689,3.7098,3.7614,3.8414,3.8615,3.8707,3.8707,3.8707,3.8707,3.8707,3.8707,3.8707,3.8707,3.8707,3.8707,3.8689,3.8334,3.7646,3.6526,3.3997,0.0,0.0,0.0,0.0,0.0,0.0,0.0,0.0,0.0,2.9193,3.0025,0.0,3.1699,0.0,3.4814,3.5968,3.6372,3.6219,0.0,0.0,3.5746,3.6113,3.6136,3.7636,3.8681,3.8681,4.0162,4.12,4.12,4.2143,4.2643,4.2258,4.2527,4.2701,4.2527,4.2797,4.3335,4.3874,4.4028,4.4259,4.4874,4.5009,4.5009,4.5009,4.4989,4.5009,4.5009,4.5009,4.5009,4.4951,4.4432,4.4085,4.3989,4.3528,4.3047,4.2566,4.247,4.2505,4.2467,4.2447,4.2486,2.8358,2.9896,2.991,2.9873,2.9864,2.928,2.925,2.9579,2.9594,2.9594,2.9594,2.9594,2.9978,3.0592,3.155,3.2161,3.2451,3.3117,3.3389,3.3389,3.3389,3.3371,3.339,3.3388,3.3406,3.3386,3.3894,3.4418,3.5021,3.5701,3.6584,3.7658,3.79,3.8028,3.8028,3.8033,3.8272,3.8689,3.8707,3.8707,3.8707,3.8707,3.8542,3.8175,3.8157,3.7991,3.7643,3.7643,3.7643,3.7691,3.7702,3.7433,3.6775,3.4877,3.3349,0.0,0.0,0.0,0.0,0.0,0.0,0.0,0.0,0.0,0.0,0.0,3.3925,3.5218,3.6507,3.7296,3.7276,3.7276,3.7252,3.7198,3.7593,3.7993,3.8351,3.9262,3.9969,4.0373,4.1239,4.195,4.2354,4.3104,4.3624,4.3643,4.397,4.4066,4.3739,4.3951,4.4393,4.4816,4.5201,4.574,4.6586,4.6701,4.6721,4.6721,4.6701,4.6721,4.6701,4.6394,4.6182,4.6124,4.547,4.4893,4.4855,4.4547,4.422,4.422,4.4201,4.3929,4.3253,4.3102,4.3085,2.8812,3.0315,3.0389,3.0851,3.1392,3.0313,2.9834,2.9834,2.9834,2.9834,2.9834,2.9834,3.0221,3.0876,3.1514,3.2125,3.2776,3.3403,3.3694,3.3694,3.3694,3.3694,3.3677,3.3677,3.3691,3.3684,3.4089,3.4691,3.5571,3.6381,3.7192,3.7995,3.8446,3.8707,3.8707,3.8707,3.8707,3.8707,3.8707,3.8707,3.8707,3.8615,3.8212,3.7514,3.7415,3.7019,3.6321,3.6285,3.635,3.6397,3.6463,3.6581,3.6727,3.5473,3.4517,0.0,3.2711,0.0,0.0,0.0,0.0,0.0,0.0,0.0,0.0,3.5773,3.6176,3.6969,3.7738,3.82,3.8296,3.8315,3.8638,3.9345,3.9446,3.9777,4.0546,4.0662,4.0989,4.1854,4.2066,4.2431,4.3162,4.3951,4.4489,4.4701,4.5259,4.549,4.5028,4.5374,4.574,4.5874,4.6547,4.7182,4.7798,4.8009,4.8009,4.8048,4.7971,4.8105,4.8009,4.749,4.7067,4.699,4.6471,4.597,4.593,4.5932,4.5874,4.5738,4.5719,4.5238,4.3948,4.3564,4.3412,2.938,3.0329,3.1029,3.1351,3.1452,3.127,3.1165,3.1165,3.1165,3.1165,3.115,3.1108,3.1516,3.2253,3.2891,3.3582,3.4228,3.4897,3.5199,3.5172,3.5199,3.5199,3.5199,3.5199,3.5188,3.5211,3.5277,3.5845,3.6864,3.7035,3.7594,3.8546,3.8658,3.8707,3.8707,0.0,0.0,0.0,3.8707,3.8707,3.8689,3.8046,3.7672,3.7477,3.6872,0.0,3.6303,3.6285,3.6332,3.6389,3.6473,0.0,0.0,0.0,0.0,0.0,0.0,0.0,0.0,0.0,0.0,0.0,3.593,3.5949,3.6449,3.7108,3.7877,3.8719,3.8969,3.9315,3.9965,4.0027,4.01,4.0254,4.0273,4.0604,4.1437,4.155,4.1893,4.2758,4.3412,4.3874,4.4085,4.4816,4.5605,4.6201,4.6547,4.6855,4.7298,4.6913,4.6894,4.7509,4.7778,4.7932,4.8086,4.8182,4.8279,4.8105,4.8105,4.8163,4.8182,4.8048,4.7875,4.7875,4.7759,4.7586,4.7585,4.7643,4.7336,4.6775,4.6661,4.6355,4.5353,4.5141,4.5124,2.9129,3.0329,3.0718,3.1146,0.0,3.1467,3.1467,3.1467,3.1467,3.1467,3.1467,3.1467,3.212,3.3145,3.3443,3.4137,3.5098,3.5453,3.5639,3.5639,3.5639,3.5639,3.5639,3.5639,3.5639,3.5622,3.5871,3.6249,3.6803,3.7323,3.7808,3.8281,3.8564,3.8707,3.8707,3.8707,3.8707,3.8707,3.8707,3.8707,3.8689,3.8303,3.7881,3.7526,3.711,0.0,0.0,0.0,0.0,0.0,0.0,0.0,0.0,3.6952,0.0,3.7563,3.6852,3.6648,3.7218,3.7339,3.7738,3.8507,3.8584,3.8416,3.8031,3.8757,3.9411,3.9835,3.9892,4.0046,4.0431,4.0489,4.0677,4.1062,4.1139,4.147,4.2261,4.2434,4.2777,4.3547,4.4047,4.4432,4.4893,4.5682,4.6355,4.6855,4.7278,4.7798,4.849,4.8048,4.7817,4.8586,4.874,4.8913,4.9279,4.9394,4.9375,4.9394,4.9394,4.9394,4.9394,4.9029,4.874,4.8702,4.8413,4.8105,4.8105,4.8086,4.7952,4.7606,4.749,4.7373,4.6852,4.618,4.5586,2.9002,3.0329,3.0464,3.0911,3.1467,3.1467,3.1467,3.1467,3.1467,0.0,0.0,3.1467,3.2296,3.3582,3.3582,3.435,3.5577,3.5639,3.5639,3.5639,3.5639,3.5639,3.5639,3.5639,3.5639,3.5622,3.6139,3.6457,3.658,3.7452,3.7946,3.8065,3.8515,3.8707,3.8707,3.8707,3.8707,3.8707,3.8707,3.8707,3.8707,3.856,3.8157,3.7496,3.7349,3.6964,3.634,3.6285,3.6313,3.6398,3.6708,3.7014,3.7239,3.7641,3.796,3.8185,3.8252,3.8607,3.9365,3.9473,3.9796,4.0466,4.0489,4.0219,3.9554,4.0123,4.0489,4.0489,4.0489,4.0546,4.07,4.0719,4.1081,4.194,4.2024,4.2354,4.3181,4.3316,4.3624,4.4355,4.4547,4.4855,4.572,4.6432,4.7048,4.7375,4.7971,4.8644,4.9317,4.9067,4.8875,4.9471,4.9625,4.9875,5.0452,5.0606,5.0683,5.0548,5.0587,5.0683,5.0567,5.0106,4.9683,4.9625,4.9009,4.8702,4.8606,4.8682,4.8491,4.8356,4.8318,4.8278,4.8006,4.7026,4.6163,3.0072,3.0329,3.1029,3.1409,3.1467,3.1467,3.1467,3.1467,3.1467,3.1467,3.1467,3.1467,3.2241,3.3582,3.3582,3.4333,3.5577,3.5639,3.5639,3.5639,3.5639,3.5639,3.5639,3.5639,3.5639,3.5667,3.6139,3.6643,3.7097,3.7649,3.815,3.8546,3.8676,3.8707,3.8707,3.8707,3.8707,3.8707,3.8707,3.8707,3.8689,3.8028,3.7636,3.7489,3.6835,3.6413,3.6321,3.6321,3.6313,3.6417,3.6733,3.721,3.7835,3.8247,3.8859,3.9681,3.9776,3.9925,4.0281,4.0315,4.0389,4.0489,4.0489,4.045,4.0354,4.0431,4.0489,4.0489,4.0527,4.0816,4.1489,4.1623,4.1966,4.2765,4.2925,4.3239,4.4049,4.4126,4.4432,4.524,4.5413,4.572,4.6471,4.6874,4.7567,4.8663,4.9048,4.9529,5.0164,5.0414,5.0375,5.0491,5.0529,5.0567,5.0664,5.0683,5.0683,5.0683,5.0683,5.0683,5.0683,5.0529,5.0394,5.0471,5.024,5.0202,5.0221,5.0337,4.9933,4.9394,4.9202,4.9009,4.8432,4.7913,4.7721,3.0584,3.097,3.1336,3.1467,3.1467,3.1467,3.1467,3.1467,3.1467,3.1467,3.1524,3.191,3.2625,3.3582,3.3987,3.4704,3.5639,3.5639,3.5639,3.5639,3.5639,3.5639,3.5639,3.5639,3.5761,3.6028,3.6579,3.7097,3.7578,3.8083,3.8465,3.8707,3.8707,3.8707,3.8707,3.8707,3.8707,3.8707,3.8707,3.8707,3.8707,3.834,3.8138,3.8138,3.7771,3.7606,3.7606,3.7606,3.7606,3.7647,3.7931,3.8245,3.86,3.894,3.944,4.0043,3.9941,4.0023,4.0473,4.0489,4.0489,4.0489,4.0489,4.07,4.1162,4.0777,4.0681,4.1162,4.12,4.1566,4.2393,4.2508,4.2852,4.3654,4.3737,4.4105,4.4836,4.5009,4.5163,4.5566,4.6028,4.6451,4.6855,4.7702,4.8452,4.9317,4.974,5.024,5.0644,5.0683,5.0683,5.0683,5.0683,5.0683,5.0683,5.0683,5.0683,5.0683,5.0683,5.0683,5.0683,5.0683,5.0683,5.0683,5.0683,5.0683,5.0683,5.0683,5.0491,5.0298,5.0106,4.9817,4.9356,4.9183,4.8952,3.0896,3.1467,3.1467,3.1467,3.1497,3.1689,3.1764,3.1779,3.2088,3.2249,3.2261,3.2536,3.3039,3.3836,3.4382,3.4941,3.5532,3.5639,3.5639,3.5639,3.5639,3.5639,3.5622,3.5694,3.5983,3.6418,3.7053,3.7542,3.7946,3.8433,3.8707,3.8707,3.8707,3.8707,3.8707,3.8707,3.8707,3.8707,3.8707,3.8707,3.8707,3.8707,3.8707,3.8707,3.8689,3.8707,3.8707,3.8707,3.8707,3.8719,3.8961,3.908,3.9107,3.9414,3.9731,3.9922,3.9754,3.98,4.0248,4.0545,4.0674,4.0694,4.0934,4.1373,4.1931,4.1489,4.1354,4.197,4.2104,4.245,4.3181,4.3374,4.3717,4.4485,4.4603,4.4836,4.547,4.5759,4.5892,4.5988,4.6624,4.724,4.7625,4.8586,4.9413,4.974,5.0279,5.0644,5.0683,5.0683,5.0683,5.0683,5.0683,5.0683,5.0683,5.0683,5.0683,5.0683,5.0683,5.0683,5.0683,5.0683,5.0683,5.0683,5.0683,5.0683,5.0683,5.0683,5.0623,5.0481,5.0421,5.035,4.9899,4.98,4.9754,3.1424,3.1482,3.1497,3.1467,3.1586,3.2183,3.2422,3.2601,3.3762,3.4403,3.426,3.3144,3.3371,3.4431,3.4592,3.4988,3.5577,3.5639,3.5639,3.5639,3.5639,3.5639,3.5684,3.6097,3.6354,3.6549,3.7363,3.7825,3.798,3.8465,3.8707,3.8707,3.8707,3.8707,3.8707,3.8707,3.8707,3.8707,3.8707,3.8707,3.8707,3.8707,3.8707,3.8707,3.8707,3.8707,3.8707,3.8707,3.8707,3.8719,3.8961,3.908,3.9125,3.9414,3.9599,3.9664,3.9641,3.9645,3.9769,4.0668,4.1246,4.1304,4.2215,4.2816,4.297,4.2912,4.2874,4.3008,4.3008,4.3335,4.4066,4.4182,4.4528,4.5238,4.5391,4.5528,4.5701,4.6297,4.6759,4.6775,4.7489,4.8279,4.8894,4.9298,4.974,5.0356,5.0548,5.0683,5.0683,5.0683,5.0683,5.0683,5.0683,5.0683,5.0683,5.0683,5.0683,5.0683,5.0683,5.0683,5.0683,5.0683,5.0683,5.0683,5.0683,5.0683,5.0683,5.0683,5.0577,5.0383,5.0239,5.0049,4.969,4.958,4.9618,3.1764,3.2108,3.2108,3.2347,3.2706,3.2991,3.3381,3.387,3.4465,3.5172,3.583,3.5336,3.5177,3.5267,3.5188,3.5362,3.5622,3.5639,3.5639,3.5639,3.5639,3.5802,3.6061,3.6285,3.6675,3.7266,3.7695,3.8065,3.835,3.8578,3.8707,3.8707,3.8707,3.8707,3.8707,3.8707,3.8707,3.8707,3.8707,3.8707,3.8707,3.8707,3.8707,3.8707,3.8707,3.8707,3.8707,3.8707,3.8707,3.8689,3.8803,3.8855,3.8855,3.8998,3.9136,3.9327,3.9951,4.0433,4.0785,4.1544,4.1991,4.2009,4.2672,4.3278,4.3758,4.3816,4.4008,4.4432,4.4105,4.4143,4.4893,4.5066,4.522,4.5528,4.5586,4.5797,4.6337,4.6682,4.7028,4.7565,4.8335,4.8971,4.9394,4.9875,5.026,5.0644,5.0683,5.0683,5.0683,5.0683,5.0683,5.0683,5.0683,5.0683,5.0683,5.0683,5.0683,5.0683,5.0683,5.0683,5.0683,5.0683,5.0683,5.0683,5.0683,5.0683,5.0683,5.0683,5.0621,5.0369,4.9963,4.9746,4.9827,4.9483,4.949,3.2078,3.2512,3.2691,3.3066,3.3499,3.3694,3.4213,3.4984,3.5388,3.6214,3.731,3.7401,3.7087,3.6604,3.6367,3.6248,3.6248,3.6248,3.6129,3.596,3.6044,3.6239,3.6431,3.6684,3.7165,3.7822,3.8049,3.835,3.8676,3.8707,3.8707,3.8707,3.8707,3.8707,3.8707,3.8707,3.8707,3.8707,3.8707,3.8707,3.8707,3.8707,3.8707,3.8707,3.8707,3.8707,3.8707,3.8707,3.8707,3.8707,3.8707,3.8799,3.9001,3.9019,3.9197,3.9657,4.0517,4.1184,4.1576,4.2389,4.2889,4.2908,4.3419,4.4028,4.4489,4.4643,4.4932,4.5393,4.5028,4.4951,4.5451,4.5586,4.5586,4.5605,4.5778,4.6241,4.678,4.7202,4.7855,4.8412,4.9221,4.976,4.9836,5.0298,5.0664,5.0683,5.0683,5.0683,5.0683,5.0683,5.0683,5.0683,5.0683,5.0683,5.0683,5.0683,5.0683,5.0683,5.0683,5.0683,5.0683,5.0683,5.0683,5.0683,5.0683,5.0683,5.0683,5.0683,5.0624,5.0421,5.0024,4.9645,4.9773,4.9383,4.9206,3.2482,3.2632,3.32,3.3591,3.3559,3.4235,3.4942,3.5814,3.7012,3.806,3.8735,3.8824,3.8854,3.8736,3.8043,3.7787,3.7753,3.7686,3.736,3.6893,3.7222,3.704,3.6486,3.738,3.7866,3.8107,3.8413,3.8627,3.8707,3.8707,3.8707,3.8707,3.8707,3.8707,3.8707,3.8707,3.8707,3.8707,3.8707,3.8707,3.8707,3.8707,3.8707,3.8707,3.8707,3.8707,3.8707,3.8707,3.8726,3.8726,3.8799,3.9111,3.9753,3.9845,4.0189,4.0933,4.1375,4.1624,4.1875,4.3057,4.3824,4.3941,4.4727,4.5432,4.5374,4.5413,4.5451,4.5586,4.5509,4.5509,4.5566,4.5586,4.5642,4.5757,4.6355,4.6779,4.6972,4.8298,4.9182,4.9452,5.0029,5.0452,5.0567,5.0664,5.0683,5.0683,5.0683,5.0683,5.0683,5.0683,5.0683,5.0683,5.0683,5.0683,5.0683,5.0683,5.0683,5.0683,5.0683,5.0683,5.0683,5.0683,5.0683,5.0683,5.0683,5.0683,5.0683,5.0624,5.0504,5.0317,4.9967,4.9724,4.9808,4.9599,4.9397,3.3021,3.3829,3.4502,3.5042,3.5523,3.5753,3.6529,3.7745,3.8284,3.8924,3.956,3.9665,3.9681,3.9681,3.9428,3.8785,3.7973,3.7922,3.7938,3.7995,3.8209,3.8485,3.8877,3.8798,3.8964,3.931,3.8946,3.8707,3.8707,3.8707,3.8707,3.8707,3.8707,3.8707,3.8707,3.8707,3.8707,3.8707,3.8707,3.8707,3.8707,3.8707,3.8707,3.8707,3.8707,3.8707,3.8707,3.9184,3.9473,3.9479,3.995,4.0359,4.0611,4.0685,4.1112,4.2057,4.23,4.2688,4.3473,4.4216,4.4668,4.471,4.5243,4.5586,4.5586,4.5586,4.5586,4.5586,4.5586,4.5586,4.5586,4.5586,4.5834,4.6354,4.6738,4.7375,4.8298,4.9067,4.9606,5.0125,5.0548,5.0664,5.0683,5.0683,5.0683,5.0683,5.0683,5.0683,5.0683,5.0683,5.0683,5.0683,5.0683,5.0683,5.0683,5.0683,5.0683,5.0683,5.0683,5.0683,5.0683,5.0683,5.0683,5.0683,5.0683,5.0683,5.0683,5.0683,5.0544,5.0485,5.0107,4.9923,4.9886,4.9797,4.9456,3.3799,3.4801,3.531,3.5782,3.629,3.6492,3.7306,3.8525,3.8799,3.9368,4.002,4.0087,4.0087,4.0087,4.0087,3.958,3.8667,3.8633,3.8794,3.9076,3.9234,3.964,4.0129,3.9929,4.0042,4.0345,3.9588,3.8964,3.8726,3.8707,3.8707,3.8707,3.8707,3.8707,3.8707,3.8707,3.8707,3.8707,3.8707,3.8768,3.8822,3.9121,3.925,3.9257,3.949,3.9418,3.916,3.9863,4.0281,4.0362,4.0813,4.125,4.1606,4.1907,4.2446,4.3259,4.3501,4.3882,4.4638,4.5063,4.5266,4.528,4.5451,4.5586,4.5586,4.5586,4.5586,4.5586,4.5605,4.5663,4.5951,4.6047,4.6277,4.6873,4.7373,4.8125,4.9221,4.9625,5.0067,5.051,5.0664,5.0683,5.0683,5.0683,5.0683,5.0683,5.0683,5.0683,5.0683,5.0683,5.0683,5.0683,5.0683,5.0683,5.0683,5.0683,5.0683,5.0683,5.0683,5.0683,5.0683,5.0683,5.0683,5.0683,5.0683,5.0683,5.0683,5.0683,5.0683,5.0664,5.0527,5.0303,5.0208,5.0097,4.9733,3.4846,3.5415,3.5504,3.5683,3.591,3.6569,3.7144,3.8092,3.8707,3.9437,4.007,4.0087,4.0087,4.0087,4.0087,4.002,3.9884,3.9917,3.9949,3.9919,4.0408,4.0588,4.0619,4.0896,4.0972,4.1001,4.0249,3.9478,3.8854,3.8744,3.8707,3.8707,3.8707,3.8707,3.8707,3.8707,3.8707,3.8726,3.8762,3.8907,3.9175,3.9928,4.0309,4.0355,4.1035,4.1,4.0042,4.0708,4.1107,4.1103,4.1217,4.1704,4.2709,4.3401,4.4101,4.4429,4.482,4.5014,4.512,4.5381,4.5531,4.5547,4.5586,4.5586,4.5586,4.5586,4.5624,4.574,4.5759,4.599,4.674,4.699,4.7067,4.7105,4.8298,4.9183,4.9567,5.0163,5.0664,5.0683,5.0683,5.0683,5.0683,5.0683,5.0683,5.0683,5.0683,5.0683,5.0683,5.0683,5.0683,5.0683,5.0683,5.0683,5.0683,5.0683,5.0683,5.0683,5.0683,5.0683,5.0683,5.0683,5.0683,5.0683,5.0683,5.0683,5.0683,5.0683,5.0683,5.0664,5.0625,5.0606,5.0509,5.0333,5.0054,3.531,3.5554,3.607,3.6585,3.7115,3.7889,3.8635,3.9348,3.9662,3.9833,4.007,4.0087,4.0087,4.0087,4.0087,4.0087,4.0121,4.0449,4.0828,4.12,4.1747,4.2152,4.2356,4.209,4.1644,4.1093,4.0483,3.9968,3.9496,3.8982,3.8707,3.8707,3.8707,3.8707,3.8707,3.8707,3.8707,3.8781,3.9258,3.959,3.9748,4.0709,4.1118,4.0997,4.1857,4.2124,4.1603,4.1791,4.1915,4.1926,4.2448,4.3047,4.3591,4.413,4.4561,4.4896,4.503,4.5241,4.5419,4.5513,4.5586,4.5586,4.5586,4.5586,4.5586,4.5605,4.5893,4.6355,4.6509,4.6836,4.7605,4.8298,4.8509,4.8586,4.9106,4.9683,5.0144,5.051,5.0664,5.0683,5.0683,5.0683,5.0683,5.0683,5.0683,5.0683,5.0683,5.0683,5.0683,5.0683,5.0683,5.0683,5.0683,5.0683,5.0683,5.0683,5.0683,5.0683,5.0683,5.0683,5.0683,5.0683,5.0683,5.0683,5.0683,5.0683,5.0683,5.0683,5.0683,5.0683,5.0664,5.0664,5.0683,5.0504,5.023,3.5489,3.5554,3.6275,3.6919,3.744,3.8469,3.9193,3.9662,3.9952,4.0087,4.0087,4.0087,4.0087,4.0087,4.0087,4.0087,4.0204,4.0874,4.1446,4.1853,4.2422,4.2976,4.3408,4.302,4.2341,4.1699,4.1526,4.1084,4.0322,3.957,3.9148,3.9129,3.8854,3.8707,3.8744,3.9001,3.9148,3.9289,4.0087,4.0577,4.0913,4.1844,4.2337,4.2277,4.3117,4.339,4.3,4.2922,4.2871,4.2875,4.3356,4.3852,4.4202,4.4569,4.4943,4.5201,4.5283,4.54,4.5568,4.5586,4.5586,4.5586,4.5586,4.5778,4.597,4.6086,4.6453,4.7163,4.7355,4.7682,4.849,4.9009,4.949,4.9875,4.9875,5.0125,5.0606,5.0683,5.0683,5.0683,5.0683,5.0683,5.0683,5.0683,5.0683,5.0683,5.0683,5.0683,5.0683,5.0683,5.0683,5.0683,5.0683,5.0683,5.0683,5.0683,5.0683,5.0683,5.0683,5.0683,5.0683,5.0683,5.0683,5.0683,5.0683,5.0683,5.0683,5.0683,5.0683,5.0683,5.0683,5.0683,5.0683,5.0683,5.0483,3.5504,3.5683,3.6337,3.6783,3.7068,3.8453,3.9086,3.9156,3.9782,4.0087,4.0087,4.0087,4.0087,4.0087,4.0087,4.0121,4.0336,4.1241,4.181,4.208,4.2559,4.3105,4.3426,4.3387,4.2983,4.2543,4.2868,4.2445,4.1185,4.0359,3.9955,3.99,3.9368,3.8909,3.9184,3.9643,3.9974,4.011,4.1045,4.1689,4.2025,4.317,4.3767,4.3677,4.4383,4.4543,4.3946,4.3819,4.3754,4.3594,4.3845,4.4228,4.4615,4.496,4.5263,4.555,4.5586,4.5568,4.5586,4.5586,4.5586,4.5586,4.5757,4.599,4.6644,4.6876,4.7318,4.8067,4.8182,4.8529,4.926,4.9548,4.9913,5.0491,5.0529,5.0606,5.0664,5.0683,5.0683,5.0683,5.0683,5.0683,5.0683,5.0683,5.0683,5.0683,5.0683,5.0683,5.0683,5.0683,5.0683,5.0683,5.0683,5.0683,5.0683,5.0683,5.0683,5.0683,5.0683,5.0683,5.0683,5.0683,5.0683,5.0683,5.0683,5.0683,5.0683,5.0683,5.0683,5.0683,5.0683,5.0683,5.0683,5.0683,5.0565,3.5846,3.6399,3.716,3.7774,3.8398,3.9368,3.9782,3.9782,3.9952,4.0087,4.0087,4.0087,4.0087,4.007,4.0121,4.0286,4.0797,4.1446,4.208,4.2519,4.305,4.3339,4.3479,4.3479,4.3387,4.313,4.2852,4.2411,4.1956,4.1167,4.0799,4.0799,4.0524,4.0396,4.0543,4.0653,4.0763,4.0891,4.165,4.2166,4.2427,4.3409,4.3952,4.4018,4.4499,4.4508,4.4065,4.4013,4.3996,4.391,4.425,4.4583,4.492,4.5266,4.5495,4.5568,4.5586,4.5586,4.5586,4.5624,4.5605,4.568,4.6238,4.6642,4.6874,4.7472,4.8164,4.8837,4.9067,4.9394,5.0125,5.0317,5.0491,5.0606,5.0683,5.0683,5.0683,5.0683,5.0683,5.0683,5.0683,5.0683,5.0683,5.0683,5.0683,5.0683,5.0683,5.0683,5.0683,5.0683,5.0683,5.0683,5.0683,5.0683,5.0683,5.0683,5.0683,5.0683,5.0683,5.0683,5.0683,5.0683,5.0683,5.0683,5.0683,5.0683,5.0683,5.0683,5.0683,5.0683,5.0683,5.0683,5.0683,5.0683,5.0525,3.6228,3.6737,3.7774,3.8525,3.8978,3.9765,4.0087,4.0087,4.0087,4.0087,4.0087,4.0087,4.0087,4.0121,4.0336,4.0577,4.0995,4.1793,4.2342,4.2711,4.325,4.3479,4.3479,4.3479,4.3479,4.3442,4.302,4.2855,4.2671,4.1992,4.1644,4.1534,4.1277,4.1097,4.1056,4.146,4.1589,4.1754,4.2503,4.303,4.3098,4.3942,4.438,4.4542,4.4787,4.4853,4.4519,4.4326,4.4189,4.4132,4.4511,4.4914,4.509,4.5432,4.5586,4.5586,4.5586,4.5586,4.5682,4.5913,4.6144,4.6315,4.6949,4.7545,4.7952,4.8433,4.9029,4.9817,4.9933,5.0202,5.0529,5.0683,5.0683,5.0683,5.0683,5.0683,5.0683,5.0683,5.0683,5.0683,5.0683,5.0683,5.0683,5.0683,5.0683,5.0683,5.0683,5.0683,5.0683,5.0683,5.0683,5.0683,5.0683,5.0683,5.0683,5.0683,5.0683,5.0683,5.0683,5.0683,5.0683,5.0683,5.0683,5.0683,5.0683,5.0683,5.0683,5.0683,5.0683,5.0683,5.0683,5.0683,5.0683,5.0604,5.0442,3.6614,3.6843,3.8286,3.8962,3.9139,3.9782,4.0087,4.0087,4.0087,4.0087,4.0087,4.0087,4.0171,4.0204,4.0655,4.0949,4.1223,4.2203,4.2616,4.2957,4.3286,4.3479,4.3479,4.3479,4.3479,4.3479,4.3479,4.3424,4.3204,4.2671,4.2451,4.2304,4.1772,4.1479,4.1717,4.2136,4.2393,4.2561,4.3238,4.3716,4.3862,4.4398,4.4738,4.5007,4.5201,4.5243,4.5005,4.4805,4.4502,4.4159,4.4767,4.5073,4.5182,4.547,4.5566,4.5586,4.5605,4.5624,4.5836,4.6471,4.6932,4.7105,4.7794,4.8526,4.9067,4.9394,4.9817,5.0471,5.0664,5.0625,5.0644,5.0683,5.0683,5.0683,5.0683,5.0683,5.0683,5.0683,5.0683,5.0683,5.0683,5.0683,5.0683,5.0683,5.0683,5.0683,5.0683,5.0683,5.0683,5.0683,5.0683,5.0683,5.0683,5.0683,5.0683,5.0683,5.0683,5.0683,5.0683,5.0683,5.0683,5.0683,5.0683,5.0683,5.0683,5.0683,5.0683,5.0683,5.0683,5.0683,5.0683,5.0683,5.0683,5.0523,5.0358,3.6479,3.7632,3.8525,3.9246,3.9833,4.002,4.0087,4.0087,4.0087,4.0087,4.0121,4.0121,4.0368,4.072,4.0967,4.1385,4.2144,4.2598,4.2902,4.3339,4.341,4.3479,4.3479,4.3479,4.3479,4.3479,4.3479,4.3479,4.3387,4.3296,4.3222,4.313,4.2928,4.2947,4.2928,4.2947,4.3256,4.3277,4.3532,4.38,4.403,4.4233,4.4638,4.5074,4.5222,4.5201,4.5129,4.5035,4.4965,4.4945,4.5001,4.522,4.5413,4.5547,4.5586,4.5605,4.5643,4.5913,4.6509,4.6874,4.7221,4.7875,4.8605,4.9201,4.9356,5.0048,5.0414,5.0683,5.0683,5.0683,5.0683,5.0683,5.0683,5.0683,5.0683,5.0683,5.0683,5.0683,5.0683,5.0683,5.0683,5.0683,5.0683,5.0683,5.0683,5.0683,5.0683,5.0683,5.0683,5.0683,5.0683,5.0683,5.0683,5.0683,5.0683,5.0683,5.0683,5.0683,5.0683,5.0683,5.0683,5.0683,5.0683,5.0683,5.0683,5.0683,5.0683,5.0683,5.0683,5.0683,5.0683,5.0683,5.0644,5.0462,5.0399,3.7093,3.7905,3.8978,3.9714,4.007,4.0087,4.0087,4.0087,4.0087,4.0087,4.0153,4.034,4.0671,4.1082,4.1525,4.2162,4.2655,4.2976,4.3214,4.3444,4.3479,4.3479,4.3479,4.3479,4.3479,4.3479,4.3479,4.3479,4.3479,4.3479,4.3442,4.3479,4.3479,4.3387,4.3479,4.3479,4.3569,4.3671,4.3725,4.3916,4.4248,4.4457,4.4738,4.5222,4.5342,4.5342,4.5341,4.5335,4.5325,4.5333,4.5343,4.5413,4.5547,4.5586,4.5586,4.5624,4.6047,4.6336,4.6874,4.7644,4.8298,4.8682,4.9509,4.9856,5.0029,5.0452,5.0625,5.0683,5.0683,5.0683,5.0683,5.0683,5.0683,5.0683,5.0683,5.0683,5.0683,5.0683,5.0683,5.0683,5.0683,5.0683,5.0683,5.0683,5.0683,5.0683,5.0683,5.0683,5.0683,5.0683,5.0683,5.0683,5.0683,5.0683,5.0683,5.0683,5.0683,5.0683,5.0683,5.0683,5.0683,5.0683,5.0683,5.0683,5.0683,5.0683,5.0683,5.0683,5.0683,5.0683,5.0683,5.0683,5.0585,5.0336,5.0399,3.7726,3.7947,3.9456,4.0087,4.0087,4.0087,4.0087,4.0087,4.0087,4.0171,4.0317,4.0725,4.1051,4.1561,4.2257,4.2673,4.2957,4.3214,4.3479,4.3479,4.3479,4.3479,4.3479,4.3479,4.3479,4.3479,4.3479,4.3479,4.3479,4.3479,4.3479,4.3479,4.3479,4.3479,4.3479,4.3497,4.3605,4.3766,4.3915,4.4146,4.453,4.4843,4.5201,4.5475,4.5531,4.555,4.5531,4.5551,4.5587,4.5586,4.572,4.5797,4.5797,4.5797,4.5778,4.5874,4.6624,4.7221,4.7682,4.8529,4.9298,4.9567,5.0202,5.0587,5.0644,5.0625,5.0664,5.0683,5.0683,5.0683,5.0683,5.0683,5.0683,5.0683,5.0683,5.0683,5.0683,5.0683,5.0683,5.0683,5.0683,5.0683,5.0683,5.0683,5.0683,5.0683,5.0683,5.0683,5.0683,5.0683,5.0683,5.0683,5.0683,5.0683,5.0683,5.0683,5.0683,5.0644,5.0663,5.0644,5.0663,5.0683,5.0683,5.0683,5.0683,5.0683,5.0683,5.0683,5.0683,5.0683,5.0585,5.0483,5.0336,5.0183,5.0249,3.7291,3.7925,3.9462,4.0087,4.0087,4.0087,4.0087,4.0087,4.0121,4.0368,4.0745,4.0924,4.1563,4.2244,4.2555,4.2957,4.3268,4.3444,4.3479,4.3479,4.3479,4.3479,4.3479,4.3479,4.3479,4.3479,4.3479,4.3479,4.3479,4.3479,4.3479,4.3479,4.3479,4.3479,4.3479,4.3479,4.3569,4.3814,4.3983,4.4262,4.4676,4.4973,4.5282,4.5568,4.5586,4.5586,4.5605,4.5605,4.5586,4.5663,4.6299,4.6588,4.6722,4.6702,4.674,4.6855,4.7451,4.8144,4.8702,4.9144,4.9817,5.0279,5.0606,5.0664,5.0683,5.0683,5.0683,5.0683,5.0683,5.0683,5.0683,5.0683,5.0683,5.0683,5.0683,5.0683,5.0683,5.0683,5.0683,5.0683,5.0683,5.0683,5.0683,5.0683,5.0683,5.0683,5.0683,5.0683,5.0683,5.0683,5.0683,5.0683,5.0683,5.0683,5.0683,5.0683,5.0683,5.0604,5.0565,5.0525,5.0565,5.0663,5.0683,5.0565,5.0604,5.0663,5.0683,5.0624,5.0544,5.0442,5.0336,5.0206,5.0024,4.9827,4.9617,3.7535,3.7972,3.948,4.0087,4.0087,4.0087,4.0087,4.0154,4.038,4.0681,4.1011,4.1558,4.2099,4.2659,4.3014,4.3286,4.3444,4.3479,4.3479,4.3479,4.3479,4.3479,4.3479,4.3479,4.3479,4.3479,4.3479,4.3479,4.3479,4.3479,4.3479,4.3479,4.3479,4.3479,4.3479,4.3479,4.3719,4.3967,4.4241,4.4569,4.5032,4.5265,4.5457,4.555,4.5605,4.5586,4.5682,4.6124,4.6257,4.645,4.7068,4.7434,4.7645,4.7895,4.7971,4.7798,4.8317,4.8913,4.9452,4.974,5.0298,5.0567,5.0683,5.0683,5.0683,5.0683,5.0683,5.0683,5.0683,5.0683,5.0683,5.0683,5.0683,5.0683,5.0683,5.0683,5.0683,5.0683,5.0683,5.0683,5.0683,5.0683,5.0683,5.0683,5.0683,5.0683,5.0683,5.0683,5.0683,5.0683,5.0683,5.0683,5.0683,5.0683,5.0683,5.0683,5.0585,5.0504,5.0421,5.038,5.023,5.0206,5.0294,5.0313,5.0421,5.0504,5.0421,5.0317,5.0249,5.0159,4.9949,4.9773,4.9645,4.9456,4.9246,3.7734,3.793,3.9329,3.9935,4.007,4.0087,4.0087,4.022,4.0659,4.0983,4.1243,4.2142,4.2686,4.2941,4.325,4.3479,4.3479,4.3479,4.3479,4.3479,4.3479,4.3479,4.3479,4.3479,4.3479,4.3479,4.3479,4.3479,4.3479,4.3479,4.3479,4.3479,4.3479,4.3479,4.3479,4.3605,4.399,4.4288,4.4676,4.5023,4.5438,4.5586,4.5586,4.5663,4.5759,4.5893,4.6028,4.6701,4.7085,4.7354,4.7855,4.8375,4.851,4.9183,4.9298,4.8875,4.9317,4.9567,4.9837,5.0202,5.0587,5.0683,5.0683,5.0683,5.0683,5.0683,5.0683,5.0683,5.0683,5.0683,5.0683,5.0683,5.0683,5.0683,5.0683,5.0683,5.0683,5.0683,5.0683,5.0683,5.0683,5.0683,5.0683,5.0683,5.0683,5.0683,5.0683,5.0683,5.0683,5.0683,5.0683,5.0683,5.0683,5.0683,5.0683,5.0683,5.0504,5.0272,5.0206,5.0135,4.9872,4.9636,4.9773,4.9974,5.0092,5.0159,5.0068,4.9999,4.9924,4.9773,4.9504,4.9356,4.9276,4.9075,4.8829,3.73,3.7947,3.877,3.9478,4.0003,4.007,4.0121,4.0204,4.0716,4.1206,4.1707,4.239,4.2978,4.3321,4.341,4.3479,4.3479,4.3479,4.3479,4.3479,4.3479,4.3479,4.3479,4.3479,4.3479,4.3479,4.3479,4.3479,4.3479,4.3479,4.3513,4.3513,4.3513,4.3548,4.3664,4.3802,4.3943,4.4196,4.4728,4.5226,4.551,4.5586,4.5586,4.5836,4.624,4.6701,4.6817,4.749,4.7951,4.8067,4.8798,4.9202,4.9375,5.0087,5.0433,5.0433,5.051,5.0529,5.0491,5.0587,5.0683,5.0683,5.0683,5.0683,5.0683,5.0683,5.0683,5.0683,5.0683,5.0683,5.0683,5.0683,5.0683,5.0683,5.0683,5.0683,5.0683,5.0683,5.0683,5.0683,5.0683,5.0683,5.0683,5.0683,5.0683,5.0683,5.0683,5.0683,5.0683,5.0683,5.0683,5.0683,5.0683,5.0683,5.0624,5.0624,5.0358,5.0068,4.9974,4.9898,4.958,4.9356,4.9475,4.9645,4.97,4.9781,4.9789,4.9709,4.9589,4.9356,4.9094,4.8996,4.8945,4.8709,4.8495,3.6569,3.7381,3.8514,3.9157,3.9495,3.9884,4.0286,4.0625,4.1133,4.175,4.2342,4.2921,4.3286,4.3479,4.3479,4.3479,4.3479,4.3479,4.3479,4.3479,4.3479,4.3479,4.3479,4.3479,4.3479,4.3479,4.3479,4.3479,4.3479,4.3513,4.3563,4.3726,4.3631,4.3758,4.3918,4.4026,4.43,4.4638,4.5129,4.5433,4.5547,4.5624,4.5836,4.6317,4.6721,4.7163,4.7682,4.8375,4.8817,4.899,4.9683,5.0125,5.0183,5.0471,5.0664,5.0664,5.0664,5.0664,5.0664,5.0683,5.0683,5.0683,5.0683,5.0683,5.0683,5.0683,5.0683,5.0683,5.0683,5.0683,5.0683,5.0683,5.0683,5.0683,5.0683,5.0683,5.0683,5.0683,5.0683,5.0683,5.0683,5.0683,5.0683,5.0683,5.0683,5.0683,5.0683,5.0683,5.0683,5.0683,5.0683,5.0683,5.0683,5.0683,5.0565,5.0483,5.0135,4.9872,4.9728,4.9589,4.9295,4.9139,4.9326,4.9202,4.9126,4.9246,4.9399,4.9329,4.9139,4.8915,4.8676,4.8676,4.8657,4.8568,4.8402,3.6051,3.6848,3.8187,3.8819,3.9056,3.9766,4.0417,4.0949,4.1534,4.2121,4.2732,4.3214,4.3479,4.3479,4.3479,4.3479,4.3479,4.3479,4.3479,4.3479,4.3479,4.3479,4.3479,4.3479,4.3479,4.3479,4.3479,4.3479,4.3479,4.3513,4.3612,4.3881,4.3707,4.3899,4.4258,4.4427,4.4618,4.5159,4.5419,4.5566,4.5624,4.5855,4.6297,4.6817,4.7317,4.7798,4.8432,4.926,4.9702,4.9875,5.0221,5.0567,5.0606,5.0625,5.0683,5.0683,5.0683,5.0683,5.0683,5.0683,5.0683,5.0683,5.0683,5.0683,5.0683,5.0683,5.0683,5.0683,5.0683,5.0683,5.0683,5.0683,5.0683,5.0683,5.0683,5.0683,5.0683,5.0683,5.0683,5.0683,5.0683,5.0683,5.0683,5.0683,5.0683,5.0683,5.0683,5.0683,5.0683,5.0683,5.0683,5.0683,5.0683,5.0683,5.0624,5.0399,4.9993,4.9746,4.9617,4.9416,4.9171,4.9108,4.9234,4.9029,4.8797,4.8744,4.894,4.881,4.8674,4.8568,4.8495,4.8402,4.8344,4.8324,4.8324,3.5915,3.6498,3.7546,3.8393,3.9103,3.9783,4.0431,4.1087,4.1621,4.2221,4.2826,4.3196,4.3479,4.3479,4.3479,4.3479,4.3479,4.3479,4.3479,4.3479,4.3479,4.3479,4.3479,4.3479,4.3479,4.3479,4.3479,4.3479,4.3479,4.3479,4.3513,4.3548,4.3786,4.3955,4.4318,4.4787,4.5052,4.5438,4.5586,4.5586,4.5836,4.622,4.6797,4.7259,4.8317,4.9279,4.9356,5.0067,5.0452,5.0433,5.0587,5.0683,5.0683,5.0683,5.0683,5.0683,5.0683,5.0683,5.0683,5.0683,5.0683,5.0683,5.0683,5.0683,5.0683,5.0683,5.0683,5.0683,5.0683,5.0683,5.0683,5.0683,5.0683,5.0683,5.0683,5.0683,5.0683,5.0683,5.0683,5.0683,5.0683,5.0683,5.0683,5.0683,5.0683,5.0683,5.0683,5.0683,5.0683,5.0683,5.0683,5.0683,5.0683,5.0683,5.0683,5.0421,5.0111,4.9924,4.9827,4.9532,4.9202,4.9234,4.9445,4.9108,4.8897,4.8674,4.8458,4.8477,4.8458,4.8364,4.8324,4.8324,4.8324,4.8324,4.8324,3.6724,3.697,3.7812,3.8599,3.9347,4.0095,4.1042,4.1943,4.2244,4.2675,4.3178,4.341,4.3479,4.3479,4.3479,4.3479,4.3479,4.3479,4.3479,4.3479,4.3479,4.3479,4.3479,4.3479,4.3479,4.3479,4.3479,4.3479,4.3479,4.3513,4.366,4.3786,4.3986,4.4471,4.4868,4.5189,4.5419,4.5534,4.5586,4.5586,4.5778,4.6451,4.7144,4.7759,4.8663,4.9663,5.0125,5.0471,5.0644,5.0683,5.0683,5.0683,5.0683,5.0683,5.0683,5.0683,5.0683,5.0683,5.0683,5.0683,5.0683,5.0683,5.0683,5.0683,5.0683,5.0683,5.0683,5.0683,5.0683,5.0683,5.0683,5.0683,5.0683,5.0683,5.0683,5.0683,5.0683,5.0683,5.0683,5.0683,5.0683,5.0683,5.0683,5.0683,5.0683,5.0683,5.0683,5.0683,5.0683,5.0683,5.0683,5.0683,5.0683,5.0683,5.0683,5.0483,5.0249,5.0116,4.9999,4.9754,4.9532,4.97,4.9773,4.9416,4.9029,4.8797,4.8569,4.8382,4.8324,4.8306,4.8306,4.8324,4.8324,4.8344,4.8324,3.7303,3.745,3.7947,3.8688,3.9545,4.03,4.1408,4.2526,4.2655,4.3014,4.3479,4.3479,4.3479,4.3479,4.3479,4.3479,4.3479,4.3479,4.3479,4.3479,4.3479,4.3479,4.3479,4.3479,4.3479,4.3479,4.3479,4.3479,4.3479,4.3597,4.3849,4.4136,4.4318,4.4834,4.5182,4.5568,4.5586,4.5586,4.5586,4.5797,4.6028,4.6855,4.7702,4.849,4.9413,5.001,5.0452,5.0664,5.0664,5.0683,5.0683,5.0683,5.0683,5.0683,5.0683,5.0683,5.0683,5.0683,5.0683,5.0683,5.0683,5.0683,5.0683,5.0683,5.0683,5.0683,5.0683,5.0683,5.0683,5.0683,5.0683,5.0683,5.0683,5.0683,5.0683,5.0683,5.0683,5.0683,5.0683,5.0683,5.0683,5.0683,5.0683,5.0683,5.0683,5.0683,5.0683,5.0683,5.0683,5.0683,5.0683,5.0683,5.0683,5.0683,5.0683,5.0544,5.0421,5.0225,5.0116,5.0159,5.0068,5.0183,5.0111,4.9773,4.9405,4.8952,4.875,4.8606,4.8438,4.8288,4.8326,4.8402,4.8495,4.8495,4.8344,3.7506,3.7877,3.7913,3.8545,3.9558,4.0306,4.1395,4.2569,4.2752,4.3069,4.3479,4.3479,4.3479,4.3479,4.3479,4.3479,4.3479,4.3479,4.3479,4.3479,4.3479,4.3479,4.3479,4.3479,4.3479,4.3479,4.3479,4.3479,4.3479,4.3772,4.4136,4.4535,4.4781,4.5055,4.518,4.5457,4.5586,4.5586,4.5586,4.6028,4.6721,4.7471,4.8298,4.9144,4.999,5.0529,5.0625,5.0683,5.0683,5.0683,5.0683,5.0683,5.0683,5.0683,5.0683,5.0683,5.0683,5.0683,5.0683,5.0683,5.0683,5.0683,5.0683,5.0683,5.0683,5.0683,5.0683,5.0683,5.0683,5.0683,5.0683,5.0683,5.0683,5.0683,5.0683,5.0683,5.0683,5.0683,5.0683,5.0683,5.0683,5.0683,5.0683,5.0683,5.0683,5.0683,5.0683,5.0683,5.0683,5.0683,5.0683,5.0683,5.0683,5.0683,5.0683,5.0683,5.0565,5.0358,5.0272,5.0336,5.0399,5.0421,5.0313,5.0068,4.9655,4.915,4.8978,4.8861,4.8813,4.8777,4.8549,4.855,4.864,4.8641,4.8513,3.8267,3.8415,3.8433,3.8951,3.9835,4.0599,4.1523,4.2448,4.2976,4.3321,4.3479,4.3479,4.3479,4.3479,4.3479,4.3479,4.3479,4.3479,4.3479,4.3479,4.3479,4.3479,4.3479,4.3479,4.3479,4.3479,4.3479,4.3479,4.3513,4.3881,4.4223,4.4606,4.514,4.54,4.5476,4.5568,4.5586,4.5586,4.5663,4.6009,4.6874,4.7702,4.8529,4.9413,5.0279,5.0664,5.0683,5.0683,5.0683,5.0683,5.0683,5.0683,5.0683,5.0683,5.0683,5.0683,5.0683,5.0683,5.0683,5.0683,5.0683,5.0683,5.0683,5.0683,5.0683,5.0683,5.0683,5.0683,5.0683,5.0683,5.0683,5.0683,5.0683,5.0683,5.0683,5.0683,5.0683,5.0683,5.0683,5.0683,5.0683,5.0683,5.0683,5.0683,5.0683,5.0683,5.0683,5.0683,5.0683,5.0683,5.0683,5.0683,5.0683,5.0683,5.0683,5.0683,5.0683,5.0544,5.0504,5.0565,5.0624,5.0624,5.0442,5.0206,4.9784,4.9389,4.9233,4.9177,4.9297,4.9248,4.9145,4.8847,4.8763,4.8751,4.8678,3.8707,3.8707,3.8707,3.8982,3.9625,4.0653,4.1699,4.2671,4.3259,4.3479,4.3479,4.3479,4.3479,4.3479,4.3479,4.3479,4.3479,4.3479,4.3479,4.3479,4.3479,4.3479,4.3479,4.3513,4.3479,4.3513,4.3513,4.3479,4.3548,4.3986,4.4508,4.5011,4.5362,4.5513,4.5586,4.5586,4.5586,4.5586,4.5663,4.622,4.7124,4.7971,4.8702,4.9683,5.0375,5.0683,5.0683,5.0683,5.0683,5.0683,5.0683,5.0683,5.0683,5.0683,5.0683,5.0683,5.0683,5.0683,5.0683,5.0683,5.0683,5.0683,5.0683,5.0683,5.0683,5.0683,5.0683,5.0683,5.0683,5.0683,5.0683,5.0683,5.0683,5.0683,5.0683,5.0683,5.0683,5.0683,5.0683,5.0683,5.0683,5.0683,5.0683,5.0683,5.0683,5.0683,5.0683,5.0683,5.0683,5.0683,5.0683,5.0683,5.0683,5.0683,5.0683,5.0683,5.0683,5.0683,5.0683,5.0683,5.0683,5.0663,5.0504,5.0317,5.0019,4.9719,4.9514,4.9485,4.9638,4.9816,4.9904,4.9532,4.8996,4.8892,4.8864,3.8707,3.8707,3.8707,3.8707,3.9001,4.0432,4.1974,4.3369,4.3461,4.3479,4.3479,4.3479,4.3479,4.3479,4.3479,4.3479,4.3479,4.3479,4.3479,4.3513,4.3563,4.3548,4.3618,4.3634,4.3744,4.3664,4.3664,4.3791,4.3646,4.4252,4.4924,4.5362,4.5531,4.5586,4.5586,4.5586,4.5586,4.5586,4.5663,4.6471,4.7567,4.8048,4.9009,4.9971,5.0625,5.0683,5.0683,5.0683,5.0683,5.0683,5.0683,5.0683,5.0683,5.0683,5.0683,5.0683,5.0683,5.0683,5.0683,5.0683,5.0683,5.0683,5.0683,5.0683,5.0683,5.0683,5.0683,5.0683,5.0683,5.0683,5.0683,5.0683,5.0683,5.0683,5.0683,5.0683,5.0683,5.0683,5.0683,5.0683,5.0683,5.0683,5.0683,5.0683,5.0683,5.0683,5.0683,5.0683,5.0683,5.0683,5.0683,5.0683,5.0683,5.0683,5.0683,5.0683,5.0683,5.0683,5.0683,5.0683,5.0683,5.0683,5.0604,5.0464,5.0256,5.0011,4.9815,4.9822,5.0013,5.0191,5.032,4.9999,4.9416,4.924,4.9179,3.8707,3.8707,3.8707,3.8707,3.8946,4.0432,4.1717,4.2635,4.3204,4.3479,4.3479,4.3479,4.3479,4.3479,4.3479,4.3479,4.3479,4.3479,4.3479,4.3563,4.3758,4.3826,4.3957,4.4085,4.4202,4.4252,4.4252,4.4194,4.4337,4.48,4.5118,4.5513,4.5586,4.5586,4.5586,4.5586,4.5586,4.5586,4.5586,4.6624,4.7644,4.8105,4.9221,5.0183,5.0683,5.0683,5.0683,5.0683,5.0683,5.0683,5.0683,5.0683,5.0683,5.0683,5.0683,5.0683,5.0683,5.0683,5.0683,5.0683,5.0683,5.0683,5.0683,5.0683,5.0683,5.0683,5.0683,5.0683,5.0683,5.0683,5.0683,5.0683,5.0683,5.0683,5.0683,5.0683,5.0683,5.0683,5.0683,5.0683,5.0683,5.0683,5.0683,5.0683,5.0683,5.0683,5.0683,5.0683,5.0683,5.0683,5.0683,5.0683,5.0683,5.0683,5.0683,5.0683,5.0683,5.0683,5.0683,5.0683,5.0683,5.0683,5.0683,5.0586,5.0387,5.0237,5.0073,5.0141,5.0257,5.0451,5.0544,5.0206,4.9898,4.97,4.9522,3.8707,3.8707,3.8707,3.8707,3.8927,4.0084,4.1093,4.1937,4.3002,4.3479,4.3479,4.3479,4.3479,4.3479,4.3479,4.3479,4.3532,4.3679,4.3726,4.3804,4.4095,4.4184,4.4346,4.4476,4.4497,4.4581,4.4594,4.4501,4.4707,4.4943,4.5263,4.5568,4.5586,4.5586,4.5586,4.5586,4.5586,4.5586,4.5817,4.6663,4.7451,4.8163,4.9202,5.0317,5.0664,5.0683,5.0683,5.0683,5.0683,5.0683,5.0683,5.0683,5.0683,5.0683,5.0683,5.0683,5.0683,5.0683,5.0683,5.0683,5.0683,5.0683,5.0683,5.0683,5.0683,5.0683,5.0683,5.0683,5.0683,5.0683,5.0683,5.0683,5.0683,5.0683,5.0683,5.0683,5.0683,5.0683,5.0683,5.0683,5.0683,5.0683,5.0683,5.0683,5.0683,5.0683,5.0683,5.0683,5.0683,5.0683,5.0683,5.0683,5.0683,5.0683,5.0683,5.0683,5.0683,5.0683,5.0683,5.0683,5.0683,5.0683,5.0683,5.0606,5.0509,5.0387,5.0317,5.0387,5.0471,5.0625,5.0683,5.0483,5.024,5.0046,4.9877,3.875,3.875,3.8689,3.8707,3.8836,3.9606,4.0414,4.1258,4.2708,4.3424,4.3461,4.3479,4.3479,4.3479,4.3479,4.3548,4.3646,4.3836,4.3986,4.4076,4.4455,4.4612,4.4625,4.4687,4.4867,4.4744,4.474,4.4877,4.483,4.5074,4.5362,4.5586,4.5586,4.5586,4.5586,4.5586,4.5586,4.5586,4.5797,4.6374,4.7605,4.8317,4.8875,5.0356,5.0683,5.0683,5.0683,5.0683,5.0683,5.0683,5.0683,5.0683,5.0683,5.0683,5.0683,5.0683,5.0683,5.0683,5.0683,5.0683,5.0683,5.0683,5.0683,5.0683,5.0683,5.0683,5.0683,5.0683,5.0683,5.0683,5.0683,5.0683,5.0683,5.0683,5.0683,5.0683,5.0683,5.0683,5.0683,5.0683,5.0683,5.0683,5.0683,5.0683,5.0683,5.0683,5.0683,5.0683,5.0683,5.0683,5.0683,5.0683,5.0683,5.0683,5.0683,5.0683,5.0683,5.0683,5.0683,5.0683,5.0683,5.0683,5.0683,5.0625,5.0587,5.0625,5.0605,5.0606,5.0587,5.0644,5.0683,5.0683,5.0548,5.0356,5.0275,3.8999,3.8971,3.8773,3.8707,3.8817,3.957,4.0341,4.1167,4.2158,4.2944,4.3387,4.3479,4.3479,4.3479,4.3497,4.3597,4.3849,4.4035,4.4175,4.4482,4.4806,4.4966,4.5033,4.5163,4.5284,4.5381,4.5362,4.5283,4.5283,4.5381,4.5475,4.5586,4.5586,4.5586,4.5586,4.5586,4.5586,4.5586,4.5701,4.6451,4.7836,4.8336,4.8875,5.0125,5.0683,5.0683,5.0683,5.0683,5.0683,5.0683,5.0683,5.0683,5.0683,5.0683,5.0683,5.0683,5.0683,5.0683,5.0683,5.0683,5.0683,5.0683,5.0683,5.0683,5.0683,5.0683,5.0683,5.0683,5.0683,5.0683,5.0683,5.0683,5.0683,5.0683,5.0683,5.0683,5.0683,5.0683,5.0683,5.0683,5.0683,5.0683,5.0683,5.0683,5.0683,5.0683,5.0683,5.0683,5.0683,5.0683,5.0683,5.0683,5.0683,5.0683,5.0683,5.0683,5.0683,5.0683,5.0683,5.0683,5.0683,5.0683,5.0683,5.0683,5.0683,5.0683,5.0683,5.0683,5.0664,5.0683,5.0683,5.0683,5.0683,5.0529,5.0567,3.9314,3.9282,3.9017,3.8884,3.8958,3.9364,4.01,4.0985,4.1699,4.2437,4.318,4.3379,4.3479,4.3479,4.3497,4.3744,4.4016,4.4223,4.4482,4.4849,4.5096,4.5262,4.5419,4.5495,4.5513,4.5586,4.5586,4.5568,4.5586,4.5586,4.5586,4.5586,4.5586,4.5586,4.5586,4.5586,4.5586,4.5586,4.5586,4.6528,4.7913,4.8279,4.9009,5.0164,5.0683,5.0683,5.0683,5.0683,5.0683,5.0683,5.0683,5.0683,5.0683,5.0683,5.0683,5.0683,5.0683,5.0683,5.0683,5.0683,5.0683,5.0683,5.0683,5.0683,5.0683,5.0683,5.0683,5.0683,5.0683,5.0683,5.0683,5.0683,5.0683,5.0683,5.0683,5.0683,5.0683,5.0683,5.0683,5.0683,5.0683,5.0683,5.0683,5.0683,5.0683,5.0683,5.0683,5.0683,5.0683,5.0683,5.0683,5.0683,5.0683,5.0683,5.0683,5.0683,5.0683,5.0683,5.0683,5.0683,5.0683,5.0683,5.0683,5.0683,5.0683,5.0683,5.0683,5.0683,5.0683,5.0683,5.0683,5.0683,5.0683,5.0683,5.0683,3.9622,3.9534,3.9308,3.9178,3.9178,3.9178,3.9813,4.0754,4.1305,4.2023,4.2906,4.3319,4.3487,4.3563,4.3563,4.3836,4.4106,4.4373,4.4757,4.514,4.5438,4.5476,4.5513,4.5586,4.5586,4.5586,4.5586,4.5586,4.5586,4.5586,4.5586,4.5586,4.5586,4.5586,4.5586,4.5586,4.5586,4.5586,4.5817,4.6586,4.7413,4.8163,4.9202,5.0067,5.0683,5.0683,5.0683,5.0683,5.0683,5.0683,5.0683,5.0683,5.0683,5.0683,5.0683,5.0683,5.0683,5.0683,5.0683,5.0683,5.0683,5.0683,5.0683,5.0683,5.0683,5.0683,5.0683,5.0683,5.0683,5.0683,5.0683,5.0683,5.0683,5.0683,5.0683,5.0683,5.0683,5.0683,5.0683,5.0683,5.0683,5.0683,5.0683,5.0683,5.0683,5.0683,5.0683,5.0683,5.0683,5.0683,5.0683,5.0683,5.0683,5.0683,5.0683,5.0683,5.0683,5.0683,5.0683,5.0683,5.0683,5.0683,5.0683,5.0683,5.0683,5.0683,5.0683,5.0683,5.0683,5.0683,5.0683,5.0683,5.0683,5.0683,5.0683,3.984,3.9618,3.9529,3.9486,3.9505,3.9486,3.9981,4.0753,4.0926,4.1761,4.2854,4.3249,4.352,4.3893,4.3912,4.4175,4.4638,4.4732,4.5033,4.5457,4.5531,4.5586,4.5586,4.5586,4.5586,4.5586,4.5586,4.5586,4.5586,4.5586,4.5586,4.5586,4.5586,4.5586,4.5586,4.5586,4.5586,4.5586,4.5797,4.6413,4.7605,4.8413,4.9183,4.9971,5.0683,5.0683,5.0683,5.0683,5.0683,5.0683,5.0683,5.0683,5.0683,5.0683,5.0683,5.0683,5.0683,5.0683,5.0683,5.0683,5.0683,5.0683,5.0683,5.0683,5.0683,5.0683,5.0683,5.0683,5.0683,5.0683,5.0683,5.0683,5.0683,5.0683,5.0683,5.0683,5.0683,5.0683,5.0683,5.0683,5.0683,5.0683,5.0683,5.0683,5.0683,5.0683,5.0683,5.0683,5.0683,5.0683,5.0683,5.0683,5.0683,5.0683,5.0683,5.0683,5.0683,5.0683,5.0683,5.0683,5.0683,5.0683,5.0683,5.0683,5.0683,5.0683,5.0683,5.0683,5.0683,5.0683,5.0683,5.0683,5.0683,5.0683,5.0683]},{"header":{"parameterUnit":"m.s-1","parameterCategory":1,"la1":31.0,"la2":29.5877,"lo1":-88.7671,"lo2":-86.6584,"dy":0.0162,"dx":0.0185,"nx":115,"ny":88,"refTime":"2023-10-12T06:00:00:Z","depth":0,"parameterNumber":3,"parameterNumberName":"V-component_of_WINDS"},"data":[0.0,0.0,0.0,0.0,0.0,0.0,0.0,0.0,0.0,0.0,0.0,0.0,0.0,0.0,0.0,0.0,0.0,0.0,0.0,0.0,0.0,0.0,0.0,0.0,0.0,0.0,0.0,0.0,0.0,0.0,0.0,0.0,0.0,0.0,0.0,0.0,0.0,0.0,0.0,0.0,0.0,0.0,0.0,0.0,0.0,0.0,0.0,0.0,0.0,0.0,0.0,0.0,0.0,0.0,0.0,0.0,0.0,0.0,0.0,0.0,0.0,0.0,0.0,0.0,0.0,0.0,0.0,0.0,0.0,0.0,0.0,0.0,0.0,0.0,0.0,0.0,0.0,0.0,0.0,0.0,0.0,0.0,0.0,0.0,0.0,0.0,0.0,0.0,0.0,0.0,0.0,0.0,0.0,0.0,0.0,0.0,0.0,0.0,0.0,0.0,0.0,0.0,0.0,0.0,0.0,0.0,0.0,0.0,0.0,0.0,0.0,0.0,0.0,0.0,0.0,0.0,0.0,0.0,0.0,0.0,0.0,0.0,0.0,0.0,0.0,0.0,0.0,0.0,0.0,0.0,0.0,0.0,0.0,0.0,0.0,0.0,0.0,0.0,0.0,0.0,0.0,0.0,0.0,0.0,0.0,0.0,0.0,0.0,0.0,0.0,0.0,0.0,0.0,0.0,0.0,0.0,0.0,0.0,0.0,0.0,0.0,0.0,0.0,0.0,0.0,0.0,0.0,0.0,0.0,0.0,0.0,0.0,0.0,0.0,0.0,0.0,0.0,0.0,0.0,0.0,0.0,0.0,0.0,0.0,0.0,0.0,0.0,0.0,0.0,0.0,0.0,0.0,0.0,0.0,0.0,0.0,0.0,0.0,0.0,0.0,0.0,0.0,0.0,0.0,0.0,0.0,0.0,0.0,0.0,0.0,0.0,0.0,0.0,0.0,0.0,0.0,0.0,0.0,0.0,0.0,0.0,0.0,0.0,0.0,0.0,0.0,0.0,0.0,0.0,0.0,0.0,0.0,0.0,0.0,0.0,0.0,0.0,0.0,0.0,0.0,0.0,0.0,0.0,0.0,0.0,0.0,0.0,0.0,0.0,0.0,0.0,0.0,0.0,0.0,0.0,0.0,0.0,0.0,0.0,0.0,0.0,0.0,0.0,0.0,0.0,0.0,0.0,0.0,0.0,0.0,0.0,0.0,0.0,0.0,0.0,0.0,0.0,0.0,0.0,0.0,0.0,0.0,0.0,0.0,0.0,0.0,0.0,0.0,0.0,0.0,0.0,0.0,0.0,0.0,0.0,0.0,0.0,0.0,0.0,0.0,0.0,0.0,0.0,0.0,0.0,0.0,0.0,0.0,0.0,0.0,0.0,0.0,0.0,0.0,0.0,0.0,0.0,0.0,0.0,0.0,0.0,0.0,0.0,0.0,0.0,0.0,0.0,0.0,0.0,0.0,0.0,0.0,0.0,0.0,0.0,0.0,0.0,0.0,0.0,0.0,0.0,0.0,0.0,0.0,0.0,0.0,0.0,0.0,0.0,0.0,0.0,0.0,0.0,0.0,0.0,0.0,0.0,0.0,0.0,0.0,0.0,0.0,0.0,0.0,0.0,0.0,0.0,0.0,0.0,0.0,0.0,0.0,0.0,0.0,0.0,0.0,0.0,0.0,0.0,0.0,0.0,0.0,0.0,0.0,0.0,0.0,0.0,0.0,0.0,0.0,0.0,0.0,0.0,0.0,0.0,0.0,0.0,0.0,0.0,0.0,0.0,0.0,0.0,0.0,0.0,0.0,0.0,0.0,0.0,0.0,0.0,0.0,0.0,0.0,0.0,0.0,0.0,0.0,0.0,0.0,0.0,0.0,0.0,0.0,0.0,0.0,0.0,0.0,0.0,0.0,0.0,0.0,0.0,0.0,0.0,0.0,0.0,0.0,0.0,0.0,0.0,0.0,0.0,0.0,0.0,0.0,0.0,0.0,0.0,0.0,0.0,0.0,0.0,0.0,0.0,0.0,0.0,0.0,0.0,0.0,0.0,0.0,0.0,0.0,0.0,0.0,0.0,0.0,0.0,0.0,0.0,0.0,0.0,0.0,0.0,0.0,0.0,0.0,0.0,0.0,0.0,0.0,0.0,0.0,0.0,0.0,0.0,0.0,0.0,0.0,0.0,0.0,0.0,0.0,0.0,0.0,0.0,0.0,0.0,0.0,0.0,0.0,0.0,0.0,0.0,0.0,0.0,0.0,0.0,0.0,0.0,0.0,0.0,0.0,0.0,0.0,0.0,0.0,0.0,0.0,0.0,0.0,0.0,0.0,0.0,0.0,0.0,0.0,0.0,0.0,0.0,0.0,0.0,0.0,0.0,0.0,0.0,0.0,0.0,0.0,0.0,0.0,0.0,0.0,0.0,0.0,0.0,0.0,0.0,0.0,0.0,0.0,0.0,0.0,0.0,0.0,0.0,0.0,0.0,0.0,0.0,0.0,0.0,0.0,0.0,0.0,0.0,0.0,0.0,0.0,0.0,0.0,0.0,0.0,0.0,0.0,0.0,0.0,0.0,0.0,0.0,0.0,0.0,0.0,0.0,0.0,0.0,0.0,0.0,0.0,0.0,0.0,0.0,0.0,0.0,0.0,0.0,0.0,0.0,0.0,0.0,0.0,0.0,0.0,0.0,0.0,0.0,0.0,0.0,0.0,0.0,0.0,0.0,0.0,0.0,0.0,0.0,0.0,0.0,0.0,0.0,0.0,0.0,0.0,0.0,0.0,0.0,0.0,0.0,0.0,0.0,0.0,0.0,0.0,0.0,0.0,0.0,0.0,0.0,0.0,0.0,0.0,0.0,0.0,0.0,0.0,0.0,0.0,0.0,0.0,0.0,0.0,0.0,0.0,0.0,0.0,0.0,0.0,0.0,0.0,0.0,0.0,0.0,0.0,0.0,0.0,0.0,0.0,0.0,0.0,0.0,0.0,0.0,0.0,0.0,0.0,0.0,0.0,0.0,0.0,0.0,0.0,0.0,0.0,0.0,0.0,0.0,0.0,0.0,0.0,0.0,0.0,0.0,0.0,0.0,0.0,0.0,0.0,0.0,0.0,0.0,0.0,0.0,0.0,0.0,0.0,0.0,0.0,0.0,0.0,0.0,0.0,0.0,0.0,0.0,0.0,0.0,0.0,0.0,0.0,0.0,0.0,0.0,0.0,0.0,0.0,0.0,0.0,0.0,0.0,0.0,0.0,0.0,0.0,0.0,0.0,0.0,0.0,0.0,0.0,0.0,0.0,0.0,0.0,0.0,0.0,0.0,0.0,0.0,0.0,0.0,0.0,0.0,0.0,0.0,0.0,0.0,0.0,0.0,0.0,0.0,0.0,0.0,0.0,0.0,0.0,0.0,0.0,0.0,0.0,0.0,0.0,0.0,0.0,0.0,0.0,0.0,0.0,0.0,0.0,0.0,0.0,0.0,0.0,0.0,0.0,0.0,0.0,0.0,0.0,0.0,0.0,0.0,0.0,0.0,0.0,0.0,0.0,0.0,0.0,0.0,0.0,0.0,0.0,0.0,0.0,0.0,0.0,0.0,0.0,0.0,0.0,0.0,0.0,0.0,0.0,0.0,0.0,0.0,0.0,0.0,0.0,0.0,0.0,0.0,0.0,0.0,0.0,0.0,0.0,0.0,0.0,0.0,0.0,0.0,0.0,0.0,0.0,0.0,0.0,0.0,0.0,0.0,0.0,0.0,0.0,0.0,0.0,0.0,0.0,0.0,0.0,0.0,0.0,0.0,0.0,0.0,0.0,0.0,0.0,0.0,0.0,0.0,0.0,0.0,0.0,0.0,0.0,0.0,0.0,0.0,0.0,0.0,0.0,0.0,0.0,0.0,0.0,0.0,0.0,0.0,0.0,0.0,0.0,0.0,0.0,0.0,0.0,0.0,0.0,0.0,0.0,0.0,0.0,0.0,0.0,0.0,0.0,0.0,0.0,0.0,0.0,0.0,0.0,0.0,0.0,0.0,0.0,0.0,0.0,0.0,0.0,0.0,0.0,0.0,0.0,0.0,0.0,0.0,0.0,0.0,0.0,0.0,0.0,0.0,0.0,0.0,0.0,0.0,0.0,0.0,0.0,0.0,0.0,0.0,0.0,0.0,0.0,0.0,0.0,0.0,0.0,0.0,0.0,0.0,0.0,0.0,0.0,0.0,0.0,0.0,0.0,0.0,0.0,0.0,0.0,0.0,0.0,0.0,0.0,0.0,0.0,0.0,0.0,0.0,0.0,0.232,0.0,0.0,0.0,0.0,0.0,0.0,0.0,0.0,0.0,0.0,0.0,0.0,0.0,0.0,0.0,0.0,0.0,0.0,0.0,0.0,0.0,0.0,0.0,0.0,0.0,0.0,0.0,0.0,0.0,0.0,0.0,0.0,0.0,0.0,0.0,0.0,0.0,0.0,0.0,0.0,0.0,0.0,0.0,0.0,0.0,0.0,0.0,0.0,0.0,0.0,0.0,0.0,0.0,0.0,0.0,0.0,0.0,0.0,0.0,0.0,0.0,0.0,0.0,0.0,0.0,0.0,0.0,0.0,0.0,0.0,0.0,0.0,0.0,0.0,0.0,0.0,0.0,0.0,0.0,0.0,0.0,0.0,0.0,0.0,0.0,0.0,0.0,0.0,0.0,0.0,0.0,0.0,0.0,0.0,0.0,0.0,0.0,0.0,0.0,0.0,0.0,0.0,0.0,0.0,0.0,0.0,0.0,0.0,0.0,0.0,0.0168,0.0908,0.1377,0.1776,0.2114,0.0,0.0,0.0,0.0,0.0,0.0,0.0,0.0,0.0,0.0,0.0,0.0,0.0,0.0,0.0,0.0,0.0,0.0,0.0,0.0,0.0,0.0,0.0,0.0,0.0,0.0,0.0,0.0,0.0,0.0,0.0,0.0,0.0,0.0,0.0,0.0,0.0,0.0,0.0,0.0,0.0,0.0,0.0,0.0,0.0,0.0,0.0,0.0,0.0,0.0,0.0,0.0,0.0,0.0,0.0,0.0,0.0,0.0,0.0,0.0,0.0,0.0,0.0,0.0,0.0,0.0,0.0,0.0,0.0,0.0,0.0,0.0,0.0,0.0,0.0,0.0,0.0,0.0,0.0,0.0,0.0,0.0,0.0,0.0,0.0,0.0,0.0,0.0,0.0,0.0,0.0,0.0,0.0,0.0,0.0,0.0,0.0,0.0,0.0,0.0,0.0,0.0,0.0,0.0,0.0,0.0,0.0,0.0,0.0,0.0,0.0,0.0,0.1177,0.1633,0.2088,0.0,0.0,0.0,0.0,0.0,0.0,0.0,0.0,0.0,0.0,0.0,0.0,0.0,0.0,0.0,0.0,0.0,0.0,0.0,0.0,0.0,0.0,0.0,0.0,0.0,0.0,0.0,0.0,0.0,0.0,0.0,0.0,0.0,0.0,0.0,0.0,0.0,0.0,0.0,0.0,0.0,0.0,0.0,0.0,0.0,0.0,0.0,0.0,0.0,0.0,0.0,0.0,0.0,0.0,0.0,0.0,0.0,0.0,0.0,0.0,0.0,0.0,0.0,0.0,0.0,0.0,0.0,0.0,0.0,0.0,0.0,0.0,0.0,0.0,0.0,0.0,0.0,0.0,0.0,0.0,0.0,0.0,0.0,0.0,0.0,0.0,0.0,0.0,0.0,0.0,0.0,0.0,0.0,0.0,0.0,0.0,0.0,0.0,0.0,0.0,0.0,0.0,0.0,0.0,0.0,0.0,0.0,0.0,0.0,0.0,-0.0181,0.0435,0.0942,0.0,0.2386,0.0,0.0,0.0,0.0,0.0,0.0,0.0,0.0,0.0,0.0,0.0,0.0,0.0,0.0,0.0,0.0,0.0,0.0,0.0,0.0,0.0,0.0,0.0,0.0,0.0,0.0,0.0,0.0,0.0,0.0,0.0,0.0,0.0,0.0,0.0,0.0,0.0,0.0,0.0,0.0,0.0,0.0,0.0,0.0,0.0,0.0,0.0,0.0,0.0,0.0,0.0,0.0,0.0,0.0,0.0,0.0,0.0,0.0,0.0,0.0,0.0,0.0,0.0,0.0,0.0,0.0,0.0,0.0,0.0,0.0,0.0,0.0,0.0,0.0,0.0,0.0,0.0,0.0,0.0,0.0,0.0,0.0,0.0,0.0,0.0,0.0,0.0,0.0,0.0,0.0,0.0,0.0,0.0,0.0,0.0,0.0,0.0,0.0,0.0,0.0,0.0,0.0,0.0,0.0,0.0,0.0,0.0,0.0,0.0,0.0,-0.0609,-0.0038,0.0814,0.1564,0.0,0.0,0.0,0.0,0.0,0.0,0.0,0.0,0.0,0.0,0.0,0.0,0.0,0.0,0.0,0.0,0.0,0.0,0.0,0.0,0.0,0.0,0.0,0.0,0.0,0.0,0.0,0.0,0.0,0.0,0.0,0.0,0.0,0.0,0.0,0.0,0.0,0.0,0.0,0.0,0.0,0.0,0.0,0.0,0.0,0.0,0.0,0.0,0.0,0.0,0.0,0.0,0.0,0.0,0.0,0.0,0.0,0.0,0.0,0.0,0.0,0.0,0.0,0.0,0.0,0.0,0.0,0.0,0.0,0.0,0.0,0.0,0.0,0.0,0.0,0.0,0.0,0.0,0.0,0.0,0.0,0.0,0.0,0.0,0.0,0.0,0.0,0.0,0.0,0.0,0.0,0.0,0.0,0.0,0.0,0.0,0.0,0.0,0.0,0.0,0.0,0.0,0.0,0.0,0.0,0.0,0.0,0.0,0.0,0.0,-0.1478,-0.0844,-0.0082,0.0692,0.1384,0.1915,0.0,0.0,0.0,0.0,0.0,0.0,0.0,0.0,0.0,0.0,0.0,0.0,0.0,0.0,0.0,0.0,0.0,0.0,0.0,0.0,0.0,0.0,0.0,0.0,0.0,0.0,0.0,0.0,0.0,0.0,0.0,0.0,0.0,0.0,0.0,0.0,0.0,0.0,0.0,0.0,0.0,0.0,0.0,0.0,0.0,0.0,0.0,0.0,0.0,0.0,0.0,0.0,0.0,0.0,0.0,0.0,0.0,0.0,0.0,0.0,0.0,0.0,0.0,0.0,0.0,0.0,0.0,0.0,0.0,0.0,0.0,0.0,0.0,0.0,0.0,0.0,0.0,0.0,0.0,0.0,0.0,0.0,0.0,0.0,0.0,0.0,0.0,0.0,0.0,0.0,0.0,0.0,0.0,0.0,0.0,0.0,0.0,0.0,0.0,0.0,0.0,0.0,0.0,0.0,0.0,0.0,0.0,0.0,-0.2379,-0.1675,-0.0726,0.0401,0.0624,0.1068,0.0,0.0,0.0,0.0,0.0,0.0,0.0,0.0,0.0,0.0,0.0,0.0,0.0,0.0,0.0,0.0,0.0,0.0,0.0,0.0,0.0,0.0,0.0,0.0,0.0,0.0,0.0,0.0,0.0,0.0,0.0,0.0,0.0,0.0,0.0,0.0,0.0,0.0,0.0,0.0,0.0,0.0,0.0,0.0,0.0,0.0,0.0,0.0,0.0,0.0,0.0,0.0,0.0,0.0,0.0,0.0,0.0,0.0,0.0,0.0,0.0,0.0,0.0,0.0,0.0,0.0,0.0,0.0,0.0,0.0,0.0,0.0,0.0,0.0,0.0,0.0,0.0,0.0,0.0,0.0,0.0,0.0,0.0,0.0,0.0,0.0,0.0,0.0,0.0,0.0,0.0,0.0,0.0,0.0,0.0,0.0,0.0,0.0,0.0,0.0,0.0,0.0,0.0,0.0,0.0,0.0,0.0,0.0,0.0,-0.2458,-0.1624,-0.0839,-0.0135,0.0404,0.0851,0.0,0.0,0.0,0.0,0.0,0.0,0.0,0.0,0.0,0.0,0.0,0.0,0.0,0.0,0.0,0.0,0.0,0.0,0.0,0.0,0.0,0.0,0.0,0.0,0.0,0.0,0.0,0.0,0.0,0.0,0.0,0.0,0.0,0.0,0.0,0.0,0.0,0.0,0.0,0.0,0.0,0.0,0.0,0.0,0.0,0.0,0.0,0.0,0.0,0.0,0.0,0.0,0.0,0.0,0.0,0.0,0.0,0.0,0.0,0.0,0.0,0.0,0.0,0.0,0.0,0.0,0.0,0.0,0.0,0.0,0.0,0.0,0.0,0.0,0.0,0.0,0.0,0.0,0.0,0.0,0.0,0.0,0.0,0.0,0.0,0.0,0.0,0.0,0.0,0.0,0.0,0.0,0.0,0.0,0.0,0.0,0.0,0.0,0.0,0.0,0.0,0.0,0.0,0.0,0.0,0.0,0.0,0.0,0.0,-0.2357,0.0,-0.0987,-0.0494,0.009,0.0449,0.0,0.0,0.0,0.0,0.0,0.0,0.0,0.0,0.0,0.0,0.0,0.0,0.0,0.0,0.0,0.0,0.0,0.0,0.0,0.0,0.0,0.0,0.0,0.0,0.0,0.0,0.0,0.0,0.0,0.0,0.0,0.0,0.0,0.0,0.0,0.0,0.0,0.0,0.0,0.0,0.0,0.0,0.0,0.0,0.0,0.0,0.0,0.0,0.0,0.0,0.0,0.0,0.0,0.0,0.0,0.0,0.0,0.0,0.0,0.0,0.0,0.0,0.0,0.0,0.0,0.0,0.0,0.0,0.0,0.0,0.0,0.0,0.0,0.0,0.0,0.0,0.0,0.0,0.0,0.0,0.0,0.0,0.0,0.0,0.0,0.0,0.0,0.0,0.0,0.0,0.0,0.0,0.0,0.0,0.0,0.0,0.0,0.0,0.0,0.0,0.0,0.0,0.0,0.0,0.0,0.0,0.0,0.0,-0.3132,-0.2144,-0.1657,-0.1124,-0.054,-0.0316,-0.009,0.0,0.0,0.0,0.0,0.0,0.0,0.0,0.0,0.0,0.0,0.0,0.0,0.0,0.0,0.0,0.0,0.0,0.0,0.0,0.0,0.0,0.0,0.0,0.0,0.0,0.0,0.0,0.0,0.0,0.0,0.0,0.0,0.0,0.0,0.0,0.0,0.0,0.0,0.0,0.0,0.0,0.0,0.0,0.0,0.0,0.0,0.0,0.0,0.0,0.0,0.0,0.0,0.0,0.0,0.0,0.0,0.0,0.0,0.0,0.0,0.0,0.0,0.0,0.0,0.0,0.0,0.0,0.0,0.0,0.0,0.0,0.0,0.0,0.0,0.0,0.0,0.0,0.0,0.0,0.0,0.0,0.0,0.0,0.0,0.0,0.0,0.0,0.0,0.0,0.0,0.0,0.0,0.0,0.0,0.0,0.0,0.0,0.0,0.0,0.0,0.0,0.0,0.0,0.0,0.0,0.0,0.0,0.0,0.0,-0.2616,-0.2106,-0.1639,-0.1123,-0.1076,-0.0877,0.0,0.0,0.0,0.0,0.0,0.0,0.0,0.0,0.0,0.0,0.0,0.0,0.0,0.0,0.0,0.0,0.0,0.0,0.0,0.0,0.0,0.0,0.0,0.0,0.0,0.0,0.0,0.0,0.0,0.0,0.0,0.0,0.0,0.0,0.0,0.0,0.0,0.0,0.0,0.0,0.0,0.0,0.0,0.0,0.0,0.0,0.0,0.0,0.0,0.0,0.0,0.0,0.0,0.0,0.0,0.0,0.0,0.0,0.0,0.0,0.0,0.0,0.0,0.0,0.0,0.0,0.0,0.0,0.0,0.0,0.0,0.0,0.0,0.0,0.0,0.0,0.0,0.0,0.0,0.0,0.0,0.0,0.0,0.0,0.0,0.0,0.0,0.0,0.0,0.0,0.0,0.0,0.0,0.0,0.0,0.0,0.0,0.0,0.0,0.0,0.0,0.0,0.0,0.0,0.0,0.0,0.0,0.0,0.0,-0.3323,-0.2783,-0.2337,-0.1935,-0.1813,-0.1623,-0.1376,0.0,0.0,0.0,0.0,0.0,0.0,0.0,0.0,0.0,0.0,0.0,0.0,0.0,0.0,0.0,0.0,0.0,0.0,0.0,0.0,0.0,0.0,0.0,0.0,0.0,0.0,0.0,0.0,0.0,0.0,0.0,0.0,0.0,0.0,0.0,0.0,0.0,0.0,0.0,0.0,0.0,0.0,0.0,0.0,0.0,0.0,0.0,0.0,0.0,0.0,0.0,0.0,0.0,0.0,0.0,0.0,0.0,0.0,0.0,0.0,0.0,0.0,0.0,0.0,0.0,0.0,0.0,0.0,0.0,0.0,0.0,0.0,0.0,0.0,0.0,0.0,0.0,0.0,0.0,0.0,0.0,0.0,0.0,0.0,0.0,0.0,0.0,0.0,0.0,0.0,0.0,0.0,0.0,0.0,0.0,0.0,0.0,0.0,0.0,0.0,0.0,0.0,0.0,0.0,0.0,0.0,0.0,0.0,-0.4372,-0.3699,-0.3215,-0.2879,-0.2581,-0.2337,0.0,0.0,0.0,0.0,0.0,0.0,0.0,0.0,0.0,0.0,0.0,0.0,0.0,0.0,0.0,0.0,0.0,0.0,0.0,0.0,0.0,0.0,0.0,0.0,0.0,0.0,0.0,0.0,0.0,0.0,0.0,0.0,0.0,0.0,0.0,0.0,0.0,0.0,0.0,0.0,0.0,0.0,0.0,0.0,0.0,0.0,0.0,0.0,0.0,0.0,0.0,0.0,0.0,0.0,0.0,0.0,0.0,0.0,0.0,0.0,0.0,0.0,0.0,0.0,0.0,0.0,0.0,0.0,0.0,0.0,0.0,0.0,0.0,0.0,0.0,0.0,0.0,0.0,0.0,0.0,0.0,0.0,0.0,0.0,0.0,0.0,0.0,0.0,0.0,0.0,0.0,0.0,0.0,0.0,0.0,0.0,0.0,0.0,0.0,0.0,0.0,0.0,0.0,0.0,0.0,0.0,0.0,0.0,0.0,-0.6235,-0.5831,-0.4959,-0.3664,-0.3432,-0.3171,0.0,0.0,0.0,0.0,0.0,0.0,0.0,0.0,0.0,0.0,0.0,0.0,0.0,0.0,0.0,0.0,0.0,0.0,0.0,0.0,0.0,0.0,0.0,0.0,0.0,0.0,0.0,0.0,0.0,0.0,0.0,0.0,0.0,0.0,0.0,0.0,0.0,0.0,0.0,0.0,0.0,0.0,0.0,0.0,0.0,0.0,0.0,0.0,0.0,0.0,0.0,0.0,0.0,0.0,0.0,0.0,0.0,0.0,0.0,0.0,0.0,0.0,0.0,0.0,0.0,0.0,0.0,0.0,0.0,0.0,0.0,0.0,0.0,0.0,0.0,0.0,0.0,0.0,0.0,0.0,0.0,0.0,0.0,0.0,0.0,0.0,0.0,0.0,0.0,0.0,0.0,0.0,0.0,0.0,0.0,0.0,0.0,0.0,0.0,0.0,0.0,0.0,0.0,0.0,0.0,0.0,0.0,0.0,-0.6986,-0.7089,-0.7069,-0.658,-0.5632,-0.4636,-0.3923,0.0,0.0,0.0,0.0,0.0,0.0,0.0,0.0,0.0,0.0,0.0,0.0,0.0,0.0,0.0,0.0,0.0,0.0,0.0,0.0,0.0,0.0,0.0,0.0,0.0,0.0,0.0,0.0,0.0,0.0,0.0,0.0,0.0,0.0,0.0,0.0,0.0,0.0,0.0,0.0,0.0,0.0,0.0,0.0,0.0,0.0,0.0,0.0,0.0,0.0,0.0,0.0,0.0,0.0,0.0,0.0,0.0,0.0,0.0,0.0,0.0,0.0,0.0,0.0,0.0,0.0,0.0,0.0,0.0,0.0,0.0,0.0,0.0,0.0,0.0,0.0,0.0,0.0,0.0,0.0,0.0,0.0,0.0,0.0,0.0,0.0,0.0,0.0,0.0,0.0,0.0,0.0,0.0,0.0,0.0,0.0,0.0,0.0,0.0,0.0,0.0,0.0,0.0,0.0,0.0,0.0,0.0,0.0,-0.7564,-0.7515,-0.7897,-0.8156,-0.8071,-0.6021,-0.4692,0.0,0.0,0.0,0.0,0.0,0.0,0.0,0.0,0.0,0.0,0.0,0.0,0.0,0.0,0.0,0.0,0.0,0.0,0.0,0.0,0.0,0.0,0.0,0.0,0.0,0.0,0.0,0.0,0.0,0.0,0.0,0.0,0.0,0.0,0.0,0.0,0.0,0.0,0.0,0.0,0.0,0.0,0.0,0.0,0.0,0.0,0.0,0.0,0.0,0.0,0.0,0.0,0.0,0.0,0.0,0.0,0.0,0.0,0.0,0.0,0.0,0.0,0.0,0.0,0.0,0.0,0.0,0.0,0.0,0.0,0.0,0.0,0.0,0.0,0.0,0.0,0.0,0.0,0.0,0.0,0.0,0.0,0.0,0.0,0.0,0.0,0.0,0.0,0.0,0.0,0.0,0.0,0.0,0.0,0.0,0.0,0.0,0.0,0.0,0.0,0.0,0.0,0.0,0.0,0.0,0.0,0.0,0.0,-0.8941,-0.9323,-0.9143,-0.9011,-0.9011,-0.737,-0.6299,0.0,0.0,0.0,0.0,0.0,0.0,0.0,0.0,0.0,0.0,0.0,0.0,0.0,0.0,0.0,0.0,0.0,0.0,0.0,0.0,0.0,0.0,0.0,0.0,0.0,0.0,0.0,0.0,0.0,0.0,0.0,0.0,0.0,0.0,0.0,0.0,0.0,0.0,0.0,0.0,0.0,0.0,0.0,0.0,0.0,0.0,0.0,0.0,-0.3562,0.0,0.0,0.0,0.0,0.0,0.0,0.0,0.0,0.0,0.0,0.0,0.0,0.0,0.0,0.0,0.0,0.0,0.0,0.0,0.0,0.0,0.0,0.0,0.0,0.0,0.0,0.0,0.0,0.0,0.0,0.0,0.0,0.0,0.0,0.0,0.0,0.0,0.0,0.0,0.0,0.0,0.0,0.0,0.0,0.0,0.0,0.0,0.0,0.0,0.0,0.0,0.0,0.0,0.0,0.0,0.0,0.0,0.0,0.0,-0.9609,-1.006,-1.0098,-1.0164,-1.0205,-0.925,-0.8077,0.0,0.0,0.0,0.0,0.0,0.0,0.0,0.0,0.0,0.0,0.0,0.0,0.0,0.0,0.0,0.0,0.0,0.0,0.0,0.0,0.0,0.0,0.0,0.0,0.0,0.0,0.0,0.0,0.0,0.0,0.0,0.0,0.0,0.0,0.0,0.0,0.0,0.0,0.0,0.0,0.0,0.0,0.0,0.0,0.0,0.0,0.0,0.0,0.0,0.0,0.0,0.0,0.0,0.0,0.0,0.0,0.0,0.0,0.0,0.0,0.0,0.0,0.0,0.0,0.0,0.0,0.0,0.0,0.0,0.0,0.0,0.0,0.0,0.0,0.0,0.0,0.0,0.0,0.0,0.0,0.0,0.0,0.0,0.0,0.0,0.0,0.0,0.0,0.0,0.0,0.0,0.0,0.0,0.0,0.0,0.0,0.0,0.0,0.0,0.0,0.0,0.0,0.0,0.0,0.0,0.0,0.0,-0.9576,-1.0382,-1.0896,-1.1307,-1.1629,-1.1805,-1.1276,-0.9964,-0.784,0.0,0.0,0.0,0.0,0.0,0.0,0.0,0.0,0.0,0.0,0.0,0.0,0.0,0.0,0.0,0.0,0.0,0.0,0.0,0.0,0.0,0.0,0.0,0.0,0.0,0.0,0.0,0.0,0.0,0.0,0.0,0.0,0.0,0.0,0.0,0.0,0.0,0.0,-0.3873,-0.4026,0.0,0.0,0.0,0.0,0.0,0.0,0.0,0.0,-0.3964,0.0,0.0,0.0,0.0,0.0,0.0,0.0,0.0,0.0,0.0,0.0,0.0,0.0,0.0,0.0,0.0,0.0,0.0,0.0,0.0,0.0,0.0,0.0,0.0,0.0,0.0,0.0,0.0,0.0,0.0,0.0,0.0,0.0,0.0,0.0,0.0,0.0,0.0,0.0,0.0,0.0,0.0,0.0,0.0,0.0,0.0,0.0,0.0,0.0,0.0,0.0,0.0,0.0,0.0,0.0,0.0,-1.0729,-1.16,-1.2577,-1.3623,-1.3721,-1.3761,-1.3801,-1.3154,-1.2204,-1.0931,0.0,0.0,0.0,0.0,0.0,0.0,0.0,0.0,0.0,0.0,0.0,0.0,0.0,0.0,0.0,0.0,0.0,0.0,0.0,0.0,0.0,0.0,0.0,0.0,0.0,0.0,0.0,0.0,0.0,0.0,0.0,0.0,0.0,0.0,0.0,0.0,0.0,0.0,0.0,-0.4543,-0.4601,0.0,0.0,0.0,0.0,0.0,0.0,0.0,0.0,-0.4053,0.0,0.0,0.0,0.0,0.0,0.0,0.0,0.0,0.0,0.0,0.0,0.0,0.0,0.0,0.0,0.0,0.0,0.0,0.0,0.0,0.0,0.0,0.0,0.0,0.0,0.0,0.0,0.0,0.0,0.0,0.0,0.0,0.0,0.0,0.0,0.0,0.0,0.0,0.0,0.0,0.0,0.0,0.0,0.0,0.0,0.0,0.0,0.0,0.0,0.0,0.0,0.0,0.0,0.0,0.0,-1.1292,-1.2647,-1.368,-1.4501,-1.448,-1.458,-1.4772,-1.4087,-1.3357,0.0,0.0,0.0,0.0,0.0,0.0,0.0,0.0,0.0,0.0,0.0,0.0,0.0,0.0,0.0,0.0,0.0,0.0,0.0,0.0,0.0,0.0,0.0,0.0,0.0,0.0,0.0,0.0,0.0,0.0,0.0,0.0,0.0,0.0,0.0,0.0,0.0,0.0,0.0,0.0,-0.4773,-0.49,-0.4979,0.0,0.0,0.0,0.0,0.0,0.0,-0.4599,-0.4163,0.0,0.0,0.0,0.0,0.0,0.0,0.0,0.0,0.0,0.0,0.0,0.0,0.0,0.0,0.0,0.0,0.0,0.0,0.0,0.0,0.0,0.0,0.0,0.0,0.0,0.0,0.0,0.0,0.0,0.0,0.0,0.0,0.0,0.0,0.0,0.0,0.0,0.0,0.0,0.0,0.0,0.0,0.0,0.0,0.0,0.0,0.0,0.0,0.0,0.0,0.0,0.0,0.0,0.0,0.0,-1.1847,-1.364,-1.4845,-1.5344,-1.5401,-1.5489,-1.5711,-1.5086,-1.4237,0.0,0.0,0.0,0.0,0.0,0.0,0.0,0.0,0.0,0.0,0.0,0.0,0.0,0.0,0.0,0.0,0.0,0.0,0.0,0.0,0.0,0.0,0.0,0.0,0.0,0.0,0.0,0.0,0.0,0.0,0.0,0.0,0.0,0.0,0.0,0.0,0.0,0.0,0.0,0.0,0.0,-0.506,-0.5456,-0.5319,0.0,0.0,0.0,0.0,-0.5039,-0.4795,0.0,0.0,0.0,0.0,0.0,0.0,0.0,0.0,0.0,0.0,0.0,0.0,0.0,0.0,0.0,0.0,0.0,0.0,0.0,0.0,0.0,0.0,0.0,0.0,0.0,0.0,0.0,0.0,0.0,0.0,0.0,0.0,0.0,0.0,0.0,0.0,0.0,0.0,0.0,0.0,0.0,0.0,0.0,0.0,0.0,0.0,0.0,0.0,0.0,0.0,0.0,0.0,0.0,0.0,0.0,0.0,-1.3517,-1.5342,-1.6741,-1.7581,-1.7639,-1.7677,-1.7638,-1.6534,-1.552,0.0,0.0,0.0,0.0,0.0,0.0,0.0,0.0,0.0,0.0,0.0,0.0,0.0,0.0,0.0,0.0,0.0,0.0,0.0,0.0,0.0,0.0,0.0,0.0,0.0,0.0,0.0,0.0,0.0,0.0,0.0,0.0,0.0,0.0,0.0,0.0,0.0,0.0,0.0,0.0,0.0,-0.53,-0.5881,-0.562,-0.5287,0.0,0.0,-0.5538,-0.5538,-0.5364,0.0,0.0,0.0,0.0,0.0,0.0,0.0,0.0,0.0,0.0,0.0,0.0,0.0,0.0,0.0,0.0,0.0,0.0,0.0,0.0,0.0,0.0,0.0,0.0,0.0,0.0,0.0,0.0,0.0,0.0,0.0,0.0,0.0,0.0,0.0,0.0,0.0,0.0,0.0,0.0,0.0,0.0,0.0,0.0,0.0,0.0,0.0,0.0,0.0,0.0,0.0,0.0,0.0,0.0,0.0,-1.1897,-1.3064,-1.538,-1.6775,-1.7204,-1.7754,-1.8008,-1.8008,-1.6823,-1.5794,0.0,0.0,0.0,0.0,0.0,0.0,0.0,0.0,0.0,0.0,0.0,0.0,0.0,0.0,0.0,0.0,0.0,0.0,0.0,0.0,0.0,0.0,0.0,0.0,0.0,0.0,0.0,0.0,0.0,0.0,0.0,0.0,0.0,0.0,0.0,0.0,0.0,0.0,0.0,0.0,0.0,0.0,-0.5793,-0.5832,0.0,0.0,0.0,-0.5738,-0.5587,0.0,0.0,0.0,0.0,0.0,0.0,0.0,0.0,0.0,0.0,0.0,0.0,0.0,0.0,0.0,0.0,0.0,0.0,0.0,0.0,0.0,0.0,0.0,0.0,0.0,0.0,0.0,0.0,0.0,0.0,0.0,0.0,0.0,0.0,0.0,0.0,0.0,0.0,0.0,0.0,0.0,0.0,0.0,0.0,0.0,0.0,0.0,0.0,0.0,0.0,0.0,0.0,0.0,0.0,0.0,0.0,0.0,-1.2412,-1.518,-1.6603,-1.6605,-1.7548,-1.8008,-1.7988,-1.7004,0.0,0.0,0.0,0.0,0.0,0.0,0.0,0.0,0.0,0.0,0.0,0.0,0.0,0.0,0.0,0.0,0.0,0.0,0.0,0.0,0.0,0.0,0.0,0.0,0.0,0.0,0.0,-0.3056,0.0,0.0,0.0,0.0,0.0,0.0,0.0,0.0,0.0,0.0,0.0,0.0,0.0,0.0,-0.5511,-0.5837,-0.5935,-0.603,0.0,0.0,-0.5919,-0.5663,-0.6,-0.5949,0.0,0.0,0.0,0.0,0.0,0.0,0.0,0.0,0.0,0.0,0.0,0.0,0.0,0.0,0.0,0.0,0.0,0.0,0.0,0.0,0.0,0.0,0.0,0.0,0.0,0.0,0.0,0.0,0.0,0.0,0.0,0.0,0.0,0.0,0.0,0.0,0.0,0.0,0.0,0.0,0.0,0.0,0.0,0.0,0.0,0.0,0.0,0.0,0.0,0.0,0.0,0.0,0.0,0.0,-1.1751,-1.2277,-1.5112,-1.6533,-1.6605,-1.7548,-1.8008,-1.7998,-1.7578,-1.6465,0.0,0.0,0.0,0.0,0.0,0.0,0.0,0.0,0.0,0.0,0.0,0.0,0.0,0.0,0.0,0.0,0.0,0.0,0.0,0.0,0.0,0.0,0.0,0.0,0.0,0.0,0.0,0.0,0.0,0.0,0.0,0.0,0.0,0.0,0.0,0.0,0.0,0.0,0.0,0.0,0.0,-0.57,-0.5929,-0.6009,-0.603,0.0,-0.603,-0.6023,-0.5946,-0.6146,-0.6013,-0.5218,0.0,0.0,0.0,0.0,0.0,0.0,0.0,0.0,0.0,0.0,0.0,0.0,0.0,0.0,0.0,0.0,0.0,0.0,0.0,0.0,0.0,0.0,0.0,0.0,0.0,0.0,0.0,0.0,0.0,0.0,0.0,0.0,0.0,0.0,0.0,0.0,0.0,0.0,0.0,0.0,0.0,0.0,0.0,0.0,0.0,0.0,0.0,0.0,0.0,0.0,0.0,0.0,0.0,-1.0801,-1.1339,-1.3087,-1.4221,-1.484,-1.5745,-1.6298,-1.6306,-1.578,-1.5024,0.0,0.0,0.0,0.0,0.0,0.0,0.0,0.0,0.0,0.0,0.0,0.0,0.0,0.0,0.0,0.0,0.0,0.0,0.0,0.0,0.0,0.0,0.0,0.0,0.0,0.0,0.0,0.0,-0.3936,-0.4145,-0.3936,0.0,0.0,0.0,0.0,0.0,0.0,0.0,0.0,0.0,0.0,-0.5779,-0.6115,-0.6287,0.0,0.0,-0.6281,-0.6245,-0.6315,-0.627,-0.6109,-0.5692,-0.5496,0.0,0.0,0.0,0.0,0.0,0.0,0.0,0.0,0.0,0.0,0.0,0.0,0.0,0.0,0.0,0.0,0.0,0.0,0.0,0.0,0.0,0.0,0.0,0.0,0.0,0.0,0.0,0.0,0.0,0.0,0.0,0.0,0.0,0.0,0.0,0.0,0.0,0.0,0.0,0.0,0.0,0.0,0.0,0.0,0.0,0.0,0.0,0.0,0.0,0.0,0.0,0.0,-1.0301,-1.088,-1.1832,-1.2926,-1.4309,-1.5256,-1.6022,-1.6412,-1.5743,-1.4982,0.0,0.0,0.0,0.0,0.0,0.0,0.0,0.0,0.0,0.0,0.0,0.0,0.0,0.0,0.0,0.0,0.0,0.0,0.0,0.0,0.0,0.0,0.0,0.0,0.0,0.0,0.0,0.0,-0.4184,-0.4298,-0.4078,0.0,0.0,0.0,0.0,0.0,0.0,0.0,0.0,0.0,0.0,-0.5952,-0.63,-0.642,-0.6559,-0.6624,-0.6548,-0.6427,-0.6488,-0.6354,-0.6257,-0.6132,0.0,0.0,0.0,0.0,0.0,0.0,0.0,0.0,0.0,0.0,0.0,0.0,0.0,0.0,0.0,0.0,0.0,0.0,0.0,0.0,0.0,0.0,0.0,0.0,0.0,0.0,0.0,-1.047,0.0,0.0,-0.982,0.0,0.0,0.0,0.0,0.0,0.0,0.0,0.0,0.0,0.0,0.0,0.0,0.0,0.0,0.0,0.0,0.0,0.0,0.0,0.0,0.0,0.0,-1.0335,-1.0989,-1.1877,-1.3397,-1.5585,-1.6648,-1.7714,-1.8908,-1.8119,-1.6987,-1.5677,0.0,0.0,0.0,0.0,0.0,0.0,0.0,0.0,0.0,0.0,0.0,0.0,0.0,0.0,0.0,0.0,0.0,0.0,0.0,0.0,0.0,0.0,0.0,0.0,0.0,0.0,-0.3781,-0.3953,-0.4124,0.0,0.0,0.0,0.0,0.0,0.0,0.0,0.0,0.0,0.0,-0.6088,-0.6403,-0.6288,-0.6508,-0.6637,-0.6508,-0.6649,-0.6645,-0.6478,-0.6363,-0.6261,0.0,0.0,0.0,0.0,0.0,0.0,0.0,0.0,0.0,0.0,0.0,0.0,0.0,0.0,0.0,0.0,0.0,0.0,0.0,0.0,0.0,0.0,0.0,0.0,0.0,0.0,0.0,-1.1273,-1.1709,0.0,0.0,0.0,0.0,0.0,0.0,0.0,0.0,0.0,0.0,0.0,-1.292,-1.1945,0.0,0.0,0.0,0.0,0.0,0.0,0.0,0.0,0.0,0.0,0.0,0.0,-1.0283,-1.1289,-1.2342,-1.3244,-1.4021,-1.4337,-1.4774,-1.5265,-1.4887,-1.4349,-1.3622,0.0,0.0,0.0,0.0,0.0,0.0,0.0,0.0,0.0,0.0,0.0,0.0,0.0,0.0,0.0,0.0,0.0,0.0,0.0,0.0,0.0,0.0,0.0,0.0,0.0,-0.4218,0.0,0.0,0.0,0.0,0.0,0.0,0.0,0.0,0.0,0.0,0.0,-0.5735,-0.6125,-0.6176,-0.6271,-0.6519,-0.6465,-0.6518,0.0,0.0,0.0,0.0,0.0,0.0,0.0,0.0,0.0,0.0,0.0,0.0,0.0,0.0,-0.4425,-0.3794,-0.3675,-0.3721,-0.3863,0.0,0.0,0.0,0.0,0.0,0.0,0.0,0.0,0.0,0.0,0.0,0.0,0.0,0.0,-1.2802,-1.3331,-1.306,0.0,0.0,0.0,0.0,0.0,0.0,0.0,0.0,-1.3875,-1.427,-1.4826,-1.3515,-1.3076,0.0,-1.1861,-1.0877,0.0,0.0,0.0,0.0,0.0,0.0,0.0,0.0,-1.0323,-1.173,-1.2927,-1.3641,-1.3884,-1.3985,-1.4186,-1.4605,-1.4299,-1.367,-1.2869,-1.273,-1.2192,0.0,0.0,0.0,0.0,0.0,0.0,0.0,0.0,0.0,0.0,0.0,0.0,0.0,0.0,0.0,0.0,0.0,0.0,0.0,0.0,0.0,0.0,0.0,-0.4544,0.0,0.0,0.0,0.0,0.0,0.0,0.0,0.0,0.0,-0.5671,-0.5847,-0.6101,-0.6427,-0.6441,-0.6488,-0.6675,0.0,0.0,0.0,0.0,0.0,0.0,0.0,-0.6688,-0.6637,-0.6715,-0.6749,-0.649,-0.6183,-0.6086,-0.6007,0.0,0.0,-0.502,-0.4868,-0.485,-0.4847,-0.4924,-0.5087,-0.5277,-0.5435,-0.5626,0.0,0.0,0.0,0.0,0.0,0.0,0.0,0.0,-1.4786,-1.4747,0.0,-1.4924,0.0,0.0,0.0,0.0,-1.4272,-1.4508,0.0,0.0,-1.578,-1.6324,-1.6751,-1.484,-1.43,-1.4891,-1.2938,-1.1915,-1.1751,-1.1012,0.0,0.0,0.0,0.0,0.0,0.0,-1.0554,-1.2325,-1.3452,-1.4468,-1.5145,-1.5233,-1.5859,-1.6985,-1.6093,-1.4972,-1.3743,-1.3916,-1.3839,-1.3195,-1.122,0.0,0.0,0.0,0.0,0.0,0.0,0.0,0.0,0.0,0.0,0.0,0.0,0.0,0.0,0.0,0.0,0.0,0.0,0.0,0.0,-0.4595,0.0,0.0,0.0,0.0,0.0,0.0,0.0,0.0,0.0,0.0,-0.5878,-0.6332,-0.6647,-0.6515,0.0,0.0,0.0,0.0,-0.6806,-0.6867,-0.7022,-0.7107,-0.6946,-0.6912,-0.6864,-0.6919,0.0,0.0,-0.6953,-0.6827,-0.6739,-0.6729,-0.6848,-0.6635,-0.5747,-0.5599,-0.5596,-0.5593,-0.5599,-0.5707,-0.6141,-0.6176,-0.6296,-1.9847,0.0,0.0,0.0,0.0,-1.7604,-1.7851,-1.8205,-1.7827,-1.7718,-1.785,-1.8228,0.0,0.0,0.0,0.0,0.0,0.0,-1.6101,-1.6809,-1.6919,-1.7254,-1.761,-1.6405,-1.5817,-1.5696,-1.4042,-1.3184,-1.3106,-1.2232,-1.1443,-1.0748,0.0,0.0,0.0,0.0,-1.124,-1.2835,-1.3694,-1.4199,-1.4441,-1.4448,-1.4643,-1.4977,-1.4734,-1.4371,-1.3961,-1.4061,-1.4021,-1.3776,-1.2267,0.0,0.0,0.0,0.0,0.0,0.0,0.0,0.0,0.0,0.0,0.0,0.0,0.0,0.0,0.0,0.0,0.0,0.0,0.0,-0.4766,-0.4979,-0.5167,0.0,0.0,0.0,0.0,0.0,0.0,0.0,0.0,0.0,-0.6597,-0.6658,-0.6763,0.0,0.0,-0.6749,-0.6861,-0.6844,-0.6885,-0.7054,-0.7083,0.0,-0.7214,-0.7392,-0.7378,-0.7238,-0.7336,-0.7407,-0.7407,-0.7373,-0.7343,-0.7336,-0.7285,-0.7197,-0.691,-0.6701,-0.6632,-0.6629,-0.6632,-0.6642,-0.6767,-0.6867,-0.687,-2.2782,-2.0874,-2.0117,-1.9666,-1.948,-1.9482,-1.9709,-2.0137,-2.0185,-2.0061,-1.9743,-2.0079,-1.9518,-1.8306,-1.7774,0.0,0.0,0.0,-1.6973,-1.7637,-1.7627,-1.7764,-1.793,-1.707,-1.6724,-1.6751,-1.4673,-1.374,-1.3866,-1.2993,-1.2278,-1.187,0.0,0.0,-1.1937,-1.1506,-1.1954,-1.328,-1.3858,-1.4095,-1.4088,-1.4088,-1.4088,-1.4088,-1.4088,-1.4088,-1.4088,-1.4088,-1.4108,-1.4123,-1.2903,-1.1834,0.0,0.0,0.0,0.0,0.0,0.0,0.0,0.0,0.0,0.0,0.0,-0.4594,0.0,0.0,0.0,0.0,-0.5185,-0.5189,-0.5409,-0.5603,0.0,0.0,0.0,0.0,0.0,0.0,0.0,-0.6193,-0.6549,-0.6824,-0.6915,-0.6953,-0.699,-0.7051,-0.6917,-0.689,-0.7007,0.0,-0.721,-0.7295,-0.7344,-0.7348,-0.7431,-0.7557,-0.7649,-0.7461,-0.7536,-0.7597,-0.7597,-0.7597,-0.7597,-0.7587,-0.7522,-0.7461,-0.7461,-0.7383,-0.7272,-0.7166,-0.7139,-0.7139,-0.7139,-0.7139,-0.7139,-2.5361,-2.3941,-2.2293,-2.1344,-2.0991,-2.1381,-2.1606,-2.1769,-2.2122,-2.1927,-2.1403,-2.1083,-2.0792,-2.0405,-1.9044,0.0,-1.902,-1.7971,-1.7754,-1.8115,-1.8105,-1.8027,-1.7949,-1.7172,-1.7255,-1.8062,-1.532,-1.4124,-1.4343,-1.3459,-1.301,-1.322,-1.2685,-1.2545,-1.2819,-1.2569,-1.276,-1.3674,-1.3948,-1.4088,-1.4088,-1.4088,-1.4088,-1.4088,-1.4088,-1.4088,-1.4088,-1.4088,-1.4088,-1.4068,-1.3209,-1.3061,-1.3642,0.0,0.0,0.0,0.0,0.0,0.0,0.0,0.0,0.0,0.0,0.0,0.0,0.0,0.0,0.0,-0.5684,0.0,-0.6251,-0.6149,0.0,0.0,0.0,-0.6221,-0.6689,-0.6649,-0.6508,-0.6508,0.0,0.0,-0.6963,-0.721,-0.7292,-0.7017,-0.7217,-0.7336,-0.7193,-0.7411,-0.7701,-0.7604,-0.7611,-0.7617,-0.7641,-0.7648,-0.7648,-0.7648,-0.7631,-0.7651,-0.7651,-0.7651,-0.7641,-0.7651,-0.7628,-0.7614,-0.7422,-0.7503,-0.7512,-0.7241,-0.719,-0.7187,-0.7108,-0.72,-0.7204,-2.6038,-2.4594,-2.4129,-2.3715,-2.3226,-2.3339,-2.3578,-2.4029,-2.4129,-2.4067,-2.3916,-2.3841,-2.3374,-2.2633,-2.0962,-2.0223,-2.0329,-1.9314,-1.8887,-1.8975,-1.8984,-1.861,-1.8037,-1.8466,-1.8778,-1.8889,-1.7587,-1.6487,-1.5718,-1.4751,-1.4009,-1.3514,-1.3394,-1.336,-1.3427,-1.3137,-1.332,-1.3981,-1.4055,-1.4088,-1.4088,-1.4088,-1.4088,-1.4088,-1.4088,-1.4088,-1.4088,-1.4088,-1.4088,-1.4082,-1.3858,-1.2871,-1.0993,-1.0313,0.0,0.0,0.0,0.0,0.0,0.0,0.0,0.0,0.0,-0.4951,-0.5294,0.0,-0.6018,0.0,-0.6139,-0.6342,-0.6413,-0.6386,0.0,0.0,-0.6142,-0.653,-0.6942,-0.6891,-0.682,-0.682,-0.7082,-0.7265,-0.7265,-0.7431,-0.7519,-0.7451,-0.7499,-0.7529,-0.7499,-0.7546,-0.7641,-0.7736,-0.7763,-0.7804,-0.7913,-0.7936,-0.7936,-0.7936,-0.7933,-0.7936,-0.7936,-0.7936,-0.7936,-0.7926,-0.7834,-0.7773,-0.7756,-0.7675,-0.759,-0.7506,-0.7489,-0.7399,-0.7393,-0.7389,-0.7396,-2.7625,-2.6103,-2.6115,-2.5741,-2.5059,-2.4569,-2.4544,-2.482,-2.4833,-2.4833,-2.4833,-2.4833,-2.4275,-2.3368,-2.1989,-2.1086,-2.0673,-1.9703,-1.9277,-1.9277,-1.9277,-1.9073,-1.8604,-1.9083,-1.9482,-1.9862,-1.8499,-1.7632,-1.7081,-1.5709,-1.4874,-1.455,-1.4076,-1.3841,-1.3841,-1.3655,-1.3741,-1.4082,-1.4088,-1.4088,-1.4088,-1.4088,-1.4028,-1.3895,-1.3888,-1.3828,-1.3701,-1.3701,-1.3701,-1.3625,-1.3536,-1.2525,-1.0632,-1.0166,-0.9327,0.0,0.0,0.0,0.0,0.0,0.0,0.0,0.0,0.0,0.0,0.0,-0.6441,-0.621,-0.6437,-0.6576,-0.6573,-0.6573,-0.6485,-0.6225,-0.646,-0.6785,-0.7108,-0.7011,-0.7048,-0.7119,-0.7272,-0.7397,-0.7468,-0.76,-0.7692,-0.7695,-0.7753,-0.777,-0.7712,-0.775,-0.7828,-0.7902,-0.797,-0.8065,-0.8214,-0.8235,-0.8238,-0.8238,-0.8235,-0.8238,-0.8235,-0.818,-0.8143,-0.8133,-0.8018,-0.7916,-0.7909,-0.7855,-0.7797,-0.7797,-0.7794,-0.7647,-0.7432,-0.7503,-0.7597,-2.9192,-2.7657,-2.7604,-2.7175,-2.6458,-2.5435,-2.5034,-2.5034,-2.5034,-2.5034,-2.5034,-2.5034,-2.4472,-2.3479,-2.2582,-2.1669,-2.078,-1.9872,-1.9453,-1.9453,-1.9453,-1.9453,-1.9443,-1.9443,-1.9845,-2.0541,-1.8993,-1.8252,-1.8124,-1.6389,-1.5501,-1.5448,-1.4566,-1.4088,-1.4088,-1.4088,-1.4088,-1.4088,-1.4088,-1.4088,-1.4088,-1.4055,-1.3908,-1.3654,-1.3526,-1.3474,-1.322,-1.3206,-1.3141,-1.3068,-1.2823,-1.224,-1.1404,-1.0423,-0.9573,0.0,-0.7477,0.0,0.0,0.0,0.0,0.0,0.0,0.0,0.0,-0.6549,-0.6623,-0.6519,-0.6654,-0.6736,-0.6753,-0.6756,-0.6726,-0.6761,-0.6867,-0.7014,-0.7149,-0.717,-0.7227,-0.738,-0.7417,-0.7482,-0.7611,-0.775,-0.7845,-0.7882,-0.798,-0.8021,-0.794,-0.8001,-0.8065,-0.8089,-0.8208,-0.8319,-0.8428,-0.8465,-0.8465,-0.8472,-0.8459,-0.8482,-0.8465,-0.8374,-0.8299,-0.8286,-0.8194,-0.8106,-0.7995,-0.8099,-0.8089,-0.7962,-0.7959,-0.7875,-0.765,-0.7583,-0.7655,-2.862,-2.767,-2.6973,-2.6658,-2.6508,-2.6239,-2.6151,-2.6151,-2.6151,-2.6151,-2.6138,-2.6219,-2.5635,-2.4637,-2.3678,-2.2652,-2.1701,-2.0761,-2.0322,-2.0409,-2.0322,-2.0322,-2.0322,-2.0322,-2.0419,-2.0535,-2.0265,-1.916,-1.7485,-1.7073,-1.6055,-1.4412,-1.4166,-1.4088,-1.4088,0.0,0.0,0.0,-1.4088,-1.4088,-1.4082,-1.3848,-1.3619,-1.3641,-1.342,0.0,-1.3213,-1.3206,-1.3134,-1.2975,-1.2737,0.0,0.0,0.0,0.0,0.0,0.0,0.0,0.0,0.0,0.0,0.0,-0.6335,-0.6339,-0.6427,-0.6627,-0.6764,-0.6827,-0.6871,-0.6932,-0.6957,-0.7058,-0.6981,-0.7007,-0.7011,-0.716,-0.7493,-0.742,-0.7387,-0.7539,-0.7655,-0.7736,-0.7773,-0.7902,-0.8041,-0.8147,-0.8208,-0.8262,-0.834,-0.8272,-0.8269,-0.8377,-0.8425,-0.8452,-0.8479,-0.8496,-0.8513,-0.8482,-0.8482,-0.8492,-0.8496,-0.8472,-0.8442,-0.8442,-0.8421,-0.8391,-0.8284,-0.8294,-0.8347,-0.8037,-0.8123,-0.8174,-0.7895,-0.7858,-0.7957,-2.8876,-2.767,-2.7297,-2.6837,0.0,-2.6521,-2.6521,-2.6521,-2.6521,-2.6521,-2.6521,-2.6521,-2.5664,-2.4192,-2.3745,-2.2702,-2.1298,-2.0779,-2.0576,-2.0576,-2.0576,-2.0576,-2.0576,-2.0576,-2.0576,-2.0566,-2.0089,-1.9274,-1.8149,-1.7009,-1.5951,-1.4887,-1.4419,-1.4088,-1.4088,-1.4088,-1.4088,-1.4088,-1.4088,-1.4088,-1.4082,-1.3941,-1.3788,-1.3566,-1.3507,0.0,0.0,0.0,0.0,0.0,0.0,0.0,0.0,-1.0074,0.0,-0.8242,-0.7833,-0.7373,-0.6898,-0.6668,-0.6654,-0.679,-0.6803,-0.686,-0.6791,-0.6834,-0.6949,-0.7024,-0.7034,-0.7061,-0.7129,-0.7139,-0.7081,-0.7148,-0.7161,-0.7312,-0.7547,-0.7578,-0.7543,-0.7678,-0.7767,-0.7834,-0.7916,-0.8055,-0.8174,-0.8262,-0.8336,-0.8428,-0.855,-0.8472,-0.8431,-0.8567,-0.8594,-0.8625,-0.8689,-0.871,-0.8706,-0.871,-0.871,-0.871,-0.871,-0.8645,-0.8594,-0.8587,-0.8537,-0.8482,-0.8374,-0.8479,-0.8455,-0.8501,-0.8374,-0.8247,-0.8051,-0.8039,-0.8038,-2.9002,-2.767,-2.755,-2.7108,-2.6521,-2.6521,-2.6521,-2.6521,-2.6521,0.0,0.0,-2.6521,-2.5346,-2.3514,-2.3514,-2.2414,-2.0644,-2.0576,-2.0576,-2.0576,-2.0576,-2.0576,-2.0576,-2.0576,-2.0576,-2.0566,-1.952,-1.8877,-1.8638,-1.6675,-1.5621,-1.5379,-1.4496,-1.4088,-1.4088,-1.4088,-1.4088,-1.4088,-1.4088,-1.4088,-1.4088,-1.4035,-1.3888,-1.3647,-1.3594,-1.3454,-1.3227,-1.3206,-1.3127,-1.2889,-1.1662,-1.0789,-1.0502,-0.9037,-0.8069,-0.7856,-0.7522,-0.733,-0.7207,-0.7049,-0.7017,-0.7044,-0.7139,-0.7092,-0.7152,-0.7075,-0.7139,-0.7139,-0.7139,-0.7149,-0.7177,-0.718,-0.7151,-0.7112,-0.7315,-0.7468,-0.7614,-0.7638,-0.7692,-0.7821,-0.7855,-0.7909,-0.8062,-0.8187,-0.8296,-0.8353,-0.8459,-0.8577,-0.8696,-0.8652,-0.8618,-0.8723,-0.875,-0.8794,-0.8896,-0.8923,-0.8937,-0.8913,-0.892,-0.8937,-0.8916,-0.8835,-0.876,-0.875,-0.8642,-0.8587,-0.857,-0.8584,-0.8659,-0.8853,-0.8737,-0.8404,-0.8141,-0.808,-0.814,-2.792,-2.767,-2.6973,-2.6589,-2.6521,-2.6521,-2.6521,-2.6521,-2.6521,-2.6521,-2.6521,-2.6521,-2.5417,-2.3514,-2.3514,-2.2403,-2.0644,-2.0576,-2.0576,-2.0576,-2.0576,-2.0576,-2.0576,-2.0576,-2.0576,-2.0489,-1.952,-1.847,-1.7496,-1.6273,-1.522,-1.4412,-1.4173,-1.4088,-1.4088,-1.4088,-1.4088,-1.4088,-1.4088,-1.4088,-1.4082,-1.3841,-1.3605,-1.3552,-1.3407,-1.3253,-1.322,-1.322,-1.3127,-1.2896,-1.1582,-1.1022,-1.1387,-1.007,-0.915,-0.8797,-0.8636,-0.8214,-0.7193,-0.7109,-0.7031,-0.7139,-0.7139,-0.7132,-0.7115,-0.7129,-0.7139,-0.7139,-0.7146,-0.7197,-0.7316,-0.7339,-0.7305,-0.7156,-0.7376,-0.7624,-0.7866,-0.788,-0.7834,-0.7977,-0.8007,-0.8062,-0.8194,-0.8265,-0.8387,-0.8581,-0.8648,-0.8733,-0.8845,-0.8889,-0.8882,-0.8903,-0.891,-0.8916,-0.8933,-0.8937,-0.8937,-0.8937,-0.8937,-0.8937,-0.8937,-0.891,-0.8886,-0.8899,-0.8859,-0.8852,-0.8855,-0.8876,-0.8804,-0.8932,-0.8786,-0.8642,-0.8431,-0.8448,-0.8414,-2.7417,-2.704,-2.6645,-2.6521,-2.6521,-2.6521,-2.6521,-2.6521,-2.6521,-2.6521,-2.6452,-2.5955,-2.4921,-2.3514,-2.2925,-2.1897,-2.0576,-2.0576,-2.0576,-2.0576,-2.0576,-2.0576,-2.0576,-2.0576,-1.9925,-1.8855,-1.8337,-1.7496,-1.6437,-1.5387,-1.4573,-1.4088,-1.4088,-1.4088,-1.4088,-1.4088,-1.4088,-1.4088,-1.4088,-1.4088,-1.4088,-1.3955,-1.3881,-1.3881,-1.3748,-1.3687,-1.3687,-1.3687,-1.3687,-1.3517,-1.2324,-1.1784,-1.1893,-1.0799,-0.9742,-0.8969,-0.9497,-0.9056,-0.7228,-0.7139,-0.7139,-0.7139,-0.7139,-0.7177,-0.7258,-0.719,-0.7173,-0.7258,-0.7265,-0.7329,-0.7475,-0.7495,-0.746,-0.7403,-0.7614,-0.7777,-0.7906,-0.7936,-0.7963,-0.8035,-0.8116,-0.8191,-0.8262,-0.8411,-0.8543,-0.8696,-0.8771,-0.8859,-0.893,-0.8937,-0.8937,-0.8937,-0.8937,-0.8937,-0.8937,-0.8937,-0.8937,-0.8937,-0.8937,-0.8937,-0.8937,-0.8937,-0.8937,-0.8937,-0.8937,-0.8937,-0.8937,-0.8937,-0.8903,-0.8869,-0.8835,-0.8784,-0.8703,-0.8672,-0.8632,-2.7095,-2.6521,-2.6521,-2.6521,-2.6546,-2.659,-2.6653,-2.6666,-2.6569,-2.6466,-2.6359,-2.542,-2.4337,-2.3147,-2.2328,-2.1517,-2.0722,-2.0576,-2.0576,-2.0576,-2.0576,-2.0576,-2.0566,-2.0401,-1.9233,-1.7468,-1.7082,-1.6519,-1.5621,-1.4657,-1.4088,-1.4088,-1.4088,-1.4088,-1.4088,-1.4088,-1.4088,-1.4088,-1.4088,-1.4088,-1.4088,-1.4088,-1.4088,-1.4088,-1.4082,-1.4088,-1.4088,-1.4088,-1.4088,-1.3997,-1.2942,-1.2322,-1.2237,-1.1209,-1.0183,-0.9492,-1.0096,-0.9831,-0.8097,-0.7698,-0.7539,-0.7542,-0.731,-0.7295,-0.7394,-0.7316,-0.7292,-0.74,-0.7424,-0.7485,-0.7614,-0.7648,-0.761,-0.7644,-0.7764,-0.7906,-0.8018,-0.8069,-0.7989,-0.8006,-0.8221,-0.833,-0.8397,-0.8567,-0.8713,-0.8771,-0.8866,-0.893,-0.8937,-0.8937,-0.8937,-0.8937,-0.8937,-0.8937,-0.8937,-0.8937,-0.8937,-0.8937,-0.8937,-0.8937,-0.8937,-0.8937,-0.8937,-0.8937,-0.8937,-0.8937,-0.8937,-0.8937,-0.9268,-0.9812,-0.9915,-0.9559,-1.0039,-1.0132,-0.9559,-2.6602,-2.6533,-2.6546,-2.6521,-2.6622,-2.7005,-2.7205,-2.7114,-2.6736,-2.6518,-2.6288,-2.5432,-2.3913,-2.2253,-2.2038,-2.1441,-2.0644,-2.0576,-2.0576,-2.0576,-2.0576,-2.0576,-2.0498,-1.9599,-1.8523,-1.7238,-1.6343,-1.5861,-1.5538,-1.4573,-1.4088,-1.4088,-1.4088,-1.4088,-1.4088,-1.4088,-1.4088,-1.4088,-1.4088,-1.4088,-1.4088,-1.4088,-1.4088,-1.4088,-1.4088,-1.4088,-1.4088,-1.4088,-1.4088,-1.3997,-1.2942,-1.2322,-1.2242,-1.1209,-1.0611,-1.0443,-1.0529,-1.0438,-1.0193,-0.9389,-0.8861,-0.8874,-0.8015,-0.755,-0.7577,-0.7567,-0.756,-0.7584,-0.7584,-0.7641,-0.777,-0.779,-0.7851,-0.7875,-0.7902,-0.8028,-0.8058,-0.8163,-0.8245,-0.8037,-0.8267,-0.8513,-0.8511,-0.8693,-0.8771,-0.8879,-0.8913,-0.8937,-0.8937,-0.8937,-0.8937,-0.8937,-0.8937,-0.8937,-0.8937,-0.8937,-0.8937,-0.8937,-0.8937,-0.8937,-0.8937,-0.8937,-0.8937,-0.8937,-0.8937,-0.8937,-0.8937,-0.8937,-0.9831,-1.1054,-1.1253,-1.121,-1.2389,-1.2822,-1.2027,-2.6653,-2.6942,-2.6942,-2.7143,-2.7444,-2.7682,-2.7395,-2.6821,-2.6566,-2.5789,-2.4625,-2.4172,-2.3394,-2.236,-2.1563,-2.0934,-2.0566,-2.0576,-2.0576,-2.0576,-2.0576,-2.0566,-2.0507,-1.9497,-1.7789,-1.5627,-1.5614,-1.5379,-1.4817,-1.4328,-1.4088,-1.4088,-1.4088,-1.4088,-1.4088,-1.4088,-1.4088,-1.4088,-1.4088,-1.4088,-1.4088,-1.4088,-1.4088,-1.4088,-1.4088,-1.4088,-1.4088,-1.4088,-1.4088,-1.4082,-1.3646,-1.3379,-1.3379,-1.2954,-1.2339,-1.1649,-1.1173,-1.1118,-1.1599,-1.0262,-0.9021,-0.8356,-0.7909,-0.7631,-0.7716,-0.7726,-0.776,-0.7834,-0.7777,-0.7784,-0.7916,-0.7946,-0.7974,-0.8028,-0.8038,-0.8075,-0.8275,-0.8231,-0.8292,-0.8173,-0.8414,-0.8635,-0.8598,-0.8682,-0.8862,-0.893,-0.8937,-0.8937,-0.8937,-0.8937,-0.8937,-0.8937,-0.8937,-0.8937,-0.8937,-0.8937,-0.8937,-0.8937,-0.8937,-0.8937,-0.8937,-0.8937,-0.8937,-0.8937,-0.8937,-0.8937,-0.8937,-0.8937,-0.9496,-1.0936,-1.2341,-1.2403,-1.2077,-1.4072,-1.4191,-2.6917,-2.7281,-2.7431,-2.7745,-2.8109,-2.8273,-2.7705,-2.6723,-2.6546,-2.5475,-2.3769,-2.3258,-2.295,-2.2541,-2.1422,-2.0928,-2.0928,-2.0928,-2.0859,-2.0762,-2.0497,-2.0191,-1.9883,-1.8692,-1.6742,-1.4613,-1.4892,-1.4817,-1.4173,-1.4088,-1.4088,-1.4088,-1.4088,-1.4088,-1.4088,-1.4088,-1.4088,-1.4088,-1.4088,-1.4088,-1.4088,-1.4088,-1.4088,-1.4088,-1.4088,-1.4088,-1.4088,-1.4088,-1.4088,-1.4088,-1.4088,-1.4122,-1.4195,-1.4202,-1.388,-1.3077,-1.2098,-1.1907,-1.2513,-1.0667,-0.9116,-0.834,-0.7949,-0.7763,-0.7845,-0.7872,-0.7923,-0.8004,-0.794,-0.7926,-0.8014,-0.8038,-0.8038,-0.8041,-0.8072,-0.8258,-0.8459,-0.8429,-0.8438,-0.8428,-0.8568,-0.8774,-0.8675,-0.8756,-0.8933,-0.8937,-0.8937,-0.8937,-0.8937,-0.8937,-0.8937,-0.8937,-0.8937,-0.8937,-0.8937,-0.8937,-0.8937,-0.8937,-0.8937,-0.8937,-0.8937,-0.8937,-0.8937,-0.8937,-0.8937,-0.8937,-0.8937,-0.8937,-0.9154,-0.9915,-1.1319,-1.2724,-1.2295,-1.4628,-1.5279,-2.7256,-2.7381,-2.7858,-2.8061,-2.816,-2.86,-2.8169,-2.6988,-2.6645,-2.5793,-2.444,-2.3213,-2.2546,-2.2477,-2.2075,-2.1816,-2.1797,-2.1758,-2.1461,-2.098,-2.0105,-1.9282,-1.8391,-1.6643,-1.5299,-1.4248,-1.4266,-1.425,-1.4088,-1.4088,-1.4088,-1.4088,-1.4088,-1.4088,-1.4088,-1.4088,-1.4088,-1.4088,-1.4088,-1.4088,-1.4088,-1.4088,-1.4088,-1.4088,-1.4088,-1.4088,-1.4088,-1.4088,-1.4095,-1.4095,-1.4122,-1.4235,-1.4469,-1.4502,-1.4528,-1.4596,-1.3543,-1.2825,-1.2603,-1.0735,-0.9415,-0.924,-0.8391,-0.8011,-0.8001,-0.8007,-0.8014,-0.8038,-0.8024,-0.8024,-0.8035,-0.8038,-0.7945,-0.7965,-0.8174,-0.8354,-0.8494,-0.8625,-0.8562,-0.8608,-0.8709,-0.8896,-0.8916,-0.8933,-0.8937,-0.8937,-0.8937,-0.8937,-0.8937,-0.8937,-0.8937,-0.8937,-0.8937,-0.8937,-0.8937,-0.8937,-0.8937,-0.8937,-0.8937,-0.8937,-0.8937,-0.8937,-0.8937,-0.8937,-0.8937,-0.8937,-0.8937,-0.9154,-0.9588,-1.0237,-1.1306,-1.2167,-1.2073,-1.2827,-1.3583,-2.7708,-2.8386,-2.895,-2.8758,-2.813,-2.8312,-2.7402,-2.57,-2.546,-2.4798,-2.377,-2.3132,-2.291,-2.291,-2.2764,-2.2393,-2.1924,-2.1894,-2.1355,-2.0523,-1.9996,-1.8979,-1.7411,-1.6369,-1.5447,-1.46,-1.4175,-1.4088,-1.4088,-1.4088,-1.4088,-1.4088,-1.4088,-1.4088,-1.4088,-1.4088,-1.4088,-1.4088,-1.4088,-1.4088,-1.4088,-1.4088,-1.4088,-1.4088,-1.4088,-1.4088,-1.4088,-1.4262,-1.4269,-1.4077,-1.4442,-1.4689,-1.4681,-1.4708,-1.4558,-1.397,-1.354,-1.2746,-1.1547,-1.0513,-0.9393,-0.8589,-0.8181,-0.8038,-0.8038,-0.8038,-0.8038,-0.8038,-0.8038,-0.8038,-0.8038,-0.8038,-0.7979,-0.8069,-0.8136,-0.846,-0.8625,-0.8762,-0.8747,-0.8726,-0.8799,-0.8933,-0.8937,-0.8937,-0.8937,-0.8937,-0.8937,-0.8937,-0.8937,-0.8937,-0.8937,-0.8937,-0.8937,-0.8937,-0.8937,-0.8937,-0.8937,-0.8937,-0.8937,-0.8937,-0.8937,-0.8937,-0.8937,-0.8937,-0.8937,-0.8937,-0.8937,-0.8937,-0.9482,-0.9585,-1.0765,-1.1411,-1.1746,-1.1611,-1.2675,-2.836,-2.9202,-2.9628,-2.9365,-2.8609,-2.8255,-2.7105,-2.5378,-2.4957,-2.4125,-2.3222,-2.3144,-2.3144,-2.3144,-2.3144,-2.2852,-2.2324,-2.2305,-2.1504,-2.0233,-1.9883,-1.8696,-1.6931,-1.6031,-1.5371,-1.4784,-1.4409,-1.4182,-1.4095,-1.4088,-1.4088,-1.4088,-1.4088,-1.4088,-1.4088,-1.4088,-1.4088,-1.4088,-1.4088,-1.3919,-1.3652,-1.3566,-1.3611,-1.3709,-1.3694,-1.3959,-1.4156,-1.4509,-1.4562,-1.4392,-1.4754,-1.481,-1.4326,-1.4532,-1.4099,-1.3019,-1.2474,-1.1758,-1.0511,-0.9784,-0.8901,-0.8086,-0.8014,-0.8038,-0.8038,-0.8038,-0.8038,-0.8038,-0.8041,-0.8052,-0.8102,-0.8119,-0.8056,-0.816,-0.8247,-0.8594,-0.8901,-0.8862,-0.8828,-0.8906,-0.8933,-0.8937,-0.8937,-0.8937,-0.8937,-0.8937,-0.8937,-0.8937,-0.8937,-0.8937,-0.8937,-0.8937,-0.8937,-0.8937,-0.8937,-0.8937,-0.8937,-0.8937,-0.8937,-0.8937,-0.8937,-0.8937,-0.8937,-0.8937,-0.8937,-0.8937,-0.8937,-0.8937,-0.8937,-0.8933,-0.9251,-1.0006,-0.9987,-0.9738,-1.1368,-2.9239,-2.9716,-2.9792,-2.9546,-2.9209,-2.8187,-2.736,-2.6058,-2.5136,-2.4049,-2.3135,-2.3144,-2.3144,-2.3144,-2.3144,-2.3105,-2.3027,-2.2814,-2.1917,-2.056,-1.9491,-1.8177,-1.6514,-1.5596,-1.5116,-1.4923,-1.4649,-1.4369,-1.4142,-1.4102,-1.4088,-1.4088,-1.4088,-1.4088,-1.4088,-1.4088,-1.4088,-1.4095,-1.4108,-1.3587,-1.254,-1.2685,-1.2903,-1.3015,-1.3135,-1.3619,-1.4475,-1.4816,-1.486,-1.4757,-1.49,-1.4462,-1.3671,-1.3684,-1.3273,-1.1905,-1.076,-1.0186,-0.9797,-0.8821,-0.8233,-0.8031,-0.8038,-0.8038,-0.8038,-0.8038,-0.8045,-0.8065,-0.8069,-0.8109,-0.8241,-0.8286,-0.8299,-0.8306,-0.8516,-0.8672,-0.8852,-0.8958,-0.8933,-0.8937,-0.8937,-0.8937,-0.8937,-0.8937,-0.8937,-0.8937,-0.8937,-0.8937,-0.8937,-0.8937,-0.8937,-0.8937,-0.8937,-0.8937,-0.8937,-0.8937,-0.8937,-0.8937,-0.8937,-0.8937,-0.8937,-0.8937,-0.8937,-0.8937,-0.8937,-0.8937,-0.8937,-0.8937,-0.8937,-0.8933,-0.8927,-0.8923,-0.902,-0.9442,-1.0639,-2.9628,-2.9702,-2.8949,-2.8199,-2.7464,-2.6284,-2.521,-2.4231,-2.3714,-2.3464,-2.3135,-2.3144,-2.3144,-2.3144,-2.3144,-2.3144,-2.3047,-2.2306,-2.1141,-1.9872,-1.8696,-1.746,-1.6153,-1.5528,-1.5157,-1.4957,-1.4635,-1.4449,-1.4376,-1.4188,-1.4088,-1.4088,-1.4088,-1.4088,-1.4088,-1.4088,-1.4088,-1.4115,-1.4289,-1.4117,-1.3783,-1.3129,-1.3261,-1.4116,-1.3701,-1.389,-1.504,-1.5211,-1.5153,-1.495,-1.5345,-1.4822,-1.3535,-1.2758,-1.194,-1.0779,-1.0293,-0.9513,-0.8726,-0.8333,-0.8038,-0.8038,-0.8038,-0.8038,-0.8038,-0.8041,-0.8092,-0.8174,-0.8201,-0.8258,-0.8394,-0.8516,-0.8554,-0.8567,-0.8659,-0.876,-0.8842,-0.8906,-0.8933,-0.8937,-0.8937,-0.8937,-0.8937,-0.8937,-0.8937,-0.8937,-0.8937,-0.8937,-0.8937,-0.8937,-0.8937,-0.8937,-0.8937,-0.8937,-0.8937,-0.8937,-0.8937,-0.8937,-0.8937,-0.8937,-0.8937,-0.8937,-0.8937,-0.8937,-0.8937,-0.8937,-0.8937,-0.8937,-0.8937,-0.8937,-0.8933,-0.8933,-0.8937,-0.9588,-1.0562,-2.9779,-2.9702,-2.8597,-2.7695,-2.6953,-2.5462,-2.4372,-2.3714,-2.3299,-2.3144,-2.3144,-2.3144,-2.3144,-2.3144,-2.3144,-2.3144,-2.2862,-2.1391,-2.0215,-1.9405,-1.8226,-1.7037,-1.5906,-1.5658,-1.5411,-1.5177,-1.4909,-1.4751,-1.4676,-1.4402,-1.4249,-1.4242,-1.4142,-1.4088,-1.4102,-1.4195,-1.4249,-1.4203,-1.3999,-1.3774,-1.3195,-1.2296,-1.214,-1.2825,-1.2465,-1.3059,-1.4597,-1.4884,-1.4971,-1.5078,-1.4823,-1.3617,-1.2362,-1.1526,-1.0583,-0.9608,-0.9213,-0.8825,-0.8137,-0.8038,-0.8038,-0.8038,-0.8038,-0.8072,-0.8106,-0.8126,-0.8295,-0.8316,-0.835,-0.8408,-0.855,-0.8642,-0.8726,-0.8682,-0.8794,-0.8838,-0.8923,-0.8937,-0.8937,-0.8937,-0.8937,-0.8937,-0.8937,-0.8937,-0.8937,-0.8937,-0.8937,-0.8937,-0.8937,-0.8937,-0.8937,-0.8937,-0.8937,-0.8937,-0.8937,-0.8937,-0.8937,-0.8937,-0.8937,-0.8937,-0.8937,-0.8937,-0.8937,-0.8937,-0.8937,-0.8937,-0.8937,-0.8937,-0.8937,-0.8937,-0.8937,-0.8937,-0.8937,-0.8937,-0.9699,-2.9792,-2.9546,-2.8518,-2.7844,-2.7429,-2.5452,-2.4542,-2.4467,-2.3551,-2.3144,-2.3144,-2.3144,-2.3144,-2.3144,-2.3144,-2.3047,-2.2589,-2.0674,-1.9497,-1.8956,-1.7956,-1.6763,-1.5913,-1.5792,-1.5645,-1.5484,-1.5391,-1.5239,-1.499,-1.4689,-1.4543,-1.4522,-1.4329,-1.4162,-1.4262,-1.4429,-1.4549,-1.4401,-1.3733,-1.2945,-1.1951,-1.0764,-1.0205,-1.0587,-1.0655,-1.1623,-1.3646,-1.4238,-1.4746,-1.533,-1.3509,-1.1748,-1.0608,-1.007,-0.9312,-0.8237,-0.8038,-0.8137,-0.8038,-0.8038,-0.8038,-0.8038,-0.7965,-0.8109,-0.8225,-0.8371,-0.845,-0.8476,-0.8496,-0.8557,-0.8686,-0.8737,-0.8801,-0.8903,-0.891,-0.8923,-0.8933,-0.8937,-0.8937,-0.8937,-0.8937,-0.8937,-0.8937,-0.8937,-0.8937,-0.8937,-0.8937,-0.8937,-0.8937,-0.8937,-0.8937,-0.8937,-0.8937,-0.8937,-0.8937,-0.8937,-0.8937,-0.8937,-0.8937,-0.8937,-0.8937,-0.8937,-0.8937,-0.8937,-0.8937,-0.8937,-0.8937,-0.8937,-0.8937,-0.8937,-0.8937,-0.8937,-0.8937,-0.8937,-0.9372,-2.9287,-2.8438,-2.7371,-2.6449,-2.5535,-2.4125,-2.3551,-2.3551,-2.3299,-2.3144,-2.3144,-2.3144,-2.3144,-2.3135,-2.3047,-2.2677,-2.1578,-2.0215,-1.8956,-1.8048,-1.685,-1.6204,-1.5825,-1.5825,-1.5792,-1.5698,-1.5491,-1.5332,-1.5271,-1.4983,-1.485,-1.485,-1.475,-1.4703,-1.4756,-1.4796,-1.4836,-1.4883,-1.4851,-1.4622,-1.4093,-1.3064,-1.2811,-1.2726,-1.1716,-1.2134,-1.3788,-1.4833,-1.5364,-1.5549,-1.3318,-1.0909,-0.9037,-0.8696,-0.8432,-0.8137,-0.8038,-0.8038,-0.8038,-0.8045,-0.8041,-0.7952,-0.8049,-0.8119,-0.8265,-0.8584,-0.8709,-0.8721,-0.8652,-0.871,-0.8838,-0.8872,-0.8903,-0.8923,-0.8937,-0.8937,-0.8937,-0.8937,-0.8937,-0.8937,-0.8937,-0.8937,-0.8937,-0.8937,-0.8937,-0.8937,-0.8937,-0.8937,-0.8937,-0.8937,-0.8937,-0.8937,-0.8937,-0.8937,-0.8937,-0.8937,-0.8937,-0.8937,-0.8937,-0.8937,-0.8937,-0.8937,-0.8937,-0.8937,-0.8937,-0.8937,-0.8937,-0.8937,-0.8937,-0.8937,-0.8937,-0.8937,-0.8937,-0.8937,-0.9478,-2.8688,-2.7936,-2.6449,-2.5378,-2.4713,-2.3541,-2.3144,-2.3144,-2.3144,-2.3144,-2.3144,-2.3144,-2.3144,-2.3047,-2.2589,-2.2031,-2.1114,-1.9488,-1.8411,-1.7692,-1.6386,-1.5825,-1.5825,-1.5825,-1.5825,-1.5812,-1.5658,-1.5598,-1.5531,-1.5284,-1.5157,-1.5117,-1.5023,-1.506,-1.4943,-1.509,-1.5137,-1.5197,-1.5365,-1.5343,-1.4735,-1.3121,-1.2308,-1.1935,-1.1063,-1.0872,-1.2242,-1.4509,-1.5757,-1.5088,-1.2344,-0.9547,-0.8255,-0.8011,-0.8038,-0.8038,-0.8038,-0.8038,-0.8055,-0.8096,-0.8136,-0.8062,-0.8067,-0.817,-0.8455,-0.8758,-0.8866,-0.8784,-0.8804,-0.8852,-0.891,-0.8937,-0.8937,-0.8937,-0.8937,-0.8937,-0.8937,-0.8937,-0.8937,-0.8937,-0.8937,-0.8937,-0.8937,-0.8937,-0.8937,-0.8937,-0.8937,-0.8937,-0.8937,-0.8937,-0.8937,-0.8937,-0.8937,-0.8937,-0.8937,-0.8937,-0.8937,-0.8937,-0.8937,-0.8937,-0.8937,-0.8937,-0.8937,-0.8937,-0.8937,-0.8937,-0.8937,-0.8937,-0.8937,-0.8937,-0.8937,-0.8937,-0.8937,-0.9265,-0.9805,-2.7968,-2.7763,-2.5703,-2.4702,-2.4457,-2.3551,-2.3144,-2.3144,-2.3144,-2.3144,-2.3144,-2.3144,-2.296,-2.2862,-2.1845,-2.1203,-2.0666,-1.868,-1.787,-1.7138,-1.6292,-1.5825,-1.5825,-1.5825,-1.5825,-1.5825,-1.5825,-1.5805,-1.5725,-1.5531,-1.5451,-1.5398,-1.5204,-1.5097,-1.5184,-1.5232,-1.5325,-1.5491,-1.5631,-1.5159,-1.404,-1.2313,-1.1258,-1.0391,-0.9608,-0.941,-1.0909,-1.3166,-1.5215,-1.5313,-1.0644,-0.8456,-0.7967,-0.8018,-0.8035,-0.8038,-0.8041,-0.8045,-0.8082,-0.8194,-0.8275,-0.8306,-0.8105,-0.8229,-0.8652,-0.8821,-0.8896,-0.8899,-0.8933,-0.8927,-0.893,-0.8937,-0.8937,-0.8937,-0.8937,-0.8937,-0.8937,-0.8937,-0.8937,-0.8937,-0.8937,-0.8937,-0.8937,-0.8937,-0.8937,-0.8937,-0.8937,-0.8937,-0.8937,-0.8937,-0.8937,-0.8937,-0.8937,-0.8937,-0.8937,-0.8937,-0.8937,-0.8937,-0.8937,-0.8937,-0.8937,-0.8937,-0.8937,-0.8937,-0.8937,-0.8937,-0.8937,-0.8937,-0.8937,-0.8937,-0.8937,-0.8937,-0.8937,-0.9592,-1.0131,-2.724,-2.6719,-2.5378,-2.4286,-2.3464,-2.3222,-2.3144,-2.3144,-2.3144,-2.3144,-2.3047,-2.3047,-2.2492,-2.1765,-2.1212,-2.0296,-1.8764,-1.7863,-1.7225,-1.6204,-1.6015,-1.5825,-1.5825,-1.5825,-1.5825,-1.5825,-1.5825,-1.5825,-1.5792,-1.5758,-1.5732,-1.5698,-1.5625,-1.5631,-1.5625,-1.5631,-1.5637,-1.5752,-1.5737,-1.4975,-1.4094,-1.3102,-1.1648,-1.0096,-0.9509,-0.9608,-1.0212,-1.1752,-1.2681,-1.1938,-0.9976,-0.7974,-0.8007,-0.8031,-0.8038,-0.8041,-0.8048,-0.8096,-0.8201,-0.8265,-0.8326,-0.8442,-0.8461,-0.8454,-0.8703,-0.8825,-0.8889,-0.8937,-0.8937,-0.8937,-0.8937,-0.8937,-0.8937,-0.8937,-0.8937,-0.8937,-0.8937,-0.8937,-0.8937,-0.8937,-0.8937,-0.8937,-0.8937,-0.8937,-0.8937,-0.8937,-0.8937,-0.8937,-0.8937,-0.8937,-0.8937,-0.8937,-0.8937,-0.8937,-0.8937,-0.8937,-0.8937,-0.8937,-0.8937,-0.8937,-0.8937,-0.8937,-0.8937,-0.8937,-0.8937,-0.8937,-0.8937,-0.8937,-0.8937,-0.8937,-0.8937,-0.8937,-0.9044,-0.9809,-1.0025,-2.6094,-2.6295,-2.4713,-2.3627,-2.3135,-2.3144,-2.3144,-2.3144,-2.3144,-2.3144,-2.2833,-2.2017,-2.1398,-2.1159,-2.0141,-1.8772,-1.7777,-1.7037,-1.648,-1.592,-1.5825,-1.5825,-1.5825,-1.5825,-1.5825,-1.5825,-1.5825,-1.5825,-1.5825,-1.5825,-1.5812,-1.5825,-1.5825,-1.5792,-1.5825,-1.5825,-1.575,-1.5465,-1.4524,-1.3741,-1.3528,-1.2538,-1.1258,-0.9509,-0.9019,-0.9019,-0.9122,-0.9636,-1.0048,-0.9739,-0.8814,-0.8007,-0.8031,-0.8038,-0.8038,-0.8045,-0.8119,-0.817,-0.8265,-0.8401,-0.8516,-0.8584,-0.8618,-0.8679,-0.8821,-0.8896,-0.8927,-0.8937,-0.8937,-0.8937,-0.8937,-0.8937,-0.8937,-0.8937,-0.8937,-0.8937,-0.8937,-0.8937,-0.8937,-0.8937,-0.8937,-0.8937,-0.8937,-0.8937,-0.8937,-0.8937,-0.8937,-0.8937,-0.8937,-0.8937,-0.8937,-0.8937,-0.8937,-0.8937,-0.8937,-0.8937,-0.8937,-0.8937,-0.8937,-0.8937,-0.8937,-0.8937,-0.8937,-0.8937,-0.8937,-0.8937,-0.8937,-0.8937,-0.8937,-0.8937,-0.8937,-0.8937,-0.9261,-1.0241,-1.0025,-2.4852,-2.5959,-2.3943,-2.3144,-2.3144,-2.3144,-2.3144,-2.3144,-2.3144,-2.296,-2.2463,-2.0527,-2.0355,-2.0158,-1.8703,-1.7785,-1.7138,-1.648,-1.5825,-1.5825,-1.5825,-1.5825,-1.5825,-1.5825,-1.5825,-1.5825,-1.5825,-1.5825,-1.5825,-1.5825,-1.5825,-1.5825,-1.5825,-1.5825,-1.5825,-1.5832,-1.5763,-1.5606,-1.28,-1.1829,-1.2349,-1.1077,-0.9608,-0.8428,-0.8233,-0.8237,-0.8233,-0.834,-0.8141,-0.8038,-0.8062,-0.8075,-0.8075,-0.8075,-0.8072,-0.8089,-0.8221,-0.8326,-0.8408,-0.8557,-0.8693,-0.874,-0.8852,-0.892,-0.893,-0.8927,-0.8933,-0.8937,-0.8937,-0.8937,-0.8937,-0.8937,-0.8937,-0.8937,-0.8937,-0.8937,-0.8937,-0.8937,-0.8937,-0.8937,-0.8937,-0.8937,-0.8937,-0.8937,-0.8937,-0.8937,-0.8937,-0.8937,-0.8937,-0.8937,-0.8937,-0.8937,-0.8937,-0.8937,-0.8937,-0.8937,-0.8937,-0.9044,-0.9047,-0.9044,-0.9047,-0.8937,-0.8937,-0.8937,-0.8937,-0.8937,-0.8937,-0.8937,-0.8937,-0.8937,-0.9261,-0.9699,-1.0241,-1.0781,-1.0566,-2.3872,-2.4511,-2.3477,-2.3144,-2.3144,-2.3144,-2.3144,-2.3144,-2.3047,-2.2492,-2.1551,-2.0739,-1.9381,-1.8588,-1.8064,-1.7138,-1.6393,-1.592,-1.5825,-1.5825,-1.5825,-1.5825,-1.5825,-1.5825,-1.5825,-1.5825,-1.5825,-1.5825,-1.5825,-1.5825,-1.5825,-1.5825,-1.5825,-1.5825,-1.5825,-1.5825,-1.575,-1.4873,-1.1682,-1.032,-1.052,-1.028,-0.9316,-0.8137,-0.8038,-0.8038,-0.8041,-0.8041,-0.8038,-0.8052,-0.8268,-0.8424,-0.8343,-0.834,-0.8241,-0.8262,-0.8367,-0.8489,-0.8587,-0.8665,-0.8784,-0.8866,-0.8923,-0.8933,-0.8937,-0.8937,-0.8937,-0.8937,-0.8937,-0.8937,-0.8937,-0.8937,-0.8937,-0.8937,-0.8937,-0.8937,-0.8937,-0.8937,-0.8937,-0.8937,-0.8937,-0.8937,-0.8937,-0.8937,-0.8937,-0.8937,-0.8937,-0.8937,-0.8937,-0.8937,-0.8937,-0.8937,-0.8937,-0.8937,-0.8937,-0.8937,-0.8937,-0.9265,-0.9372,-0.9478,-0.9372,-0.9047,-0.8937,-0.9372,-0.9265,-0.9047,-0.8937,-0.9154,-0.9482,-0.9805,-1.0241,-1.0672,-1.1319,-1.2077,-1.2832,-2.3227,-2.4075,-2.3371,-2.3144,-2.3144,-2.3144,-2.3144,-2.295,-2.2268,-2.163,-2.0783,-1.9159,-1.8087,-1.7561,-1.6943,-1.6292,-1.592,-1.5825,-1.5825,-1.5825,-1.5825,-1.5825,-1.5825,-1.5825,-1.5825,-1.5825,-1.5825,-1.5825,-1.5825,-1.5825,-1.5825,-1.5825,-1.5825,-1.5825,-1.5825,-1.5825,-1.5267,-1.3968,-1.1545,-0.9575,-0.9367,-0.9106,-0.8528,-0.8237,-0.8041,-0.8038,-0.8055,-0.8133,-0.8052,-0.8086,-0.8405,-0.8577,-0.8616,-0.8553,-0.8459,-0.8428,-0.852,-0.8625,-0.872,-0.8771,-0.8869,-0.8916,-0.8937,-0.8937,-0.8937,-0.8937,-0.8937,-0.8937,-0.8937,-0.8937,-0.8937,-0.8937,-0.8937,-0.8937,-0.8937,-0.8937,-0.8937,-0.8937,-0.8937,-0.8937,-0.8937,-0.8937,-0.8937,-0.8937,-0.8937,-0.8937,-0.8937,-0.8937,-0.8937,-0.8937,-0.8937,-0.8937,-0.8937,-0.8937,-0.8937,-0.8937,-0.9261,-0.9588,-0.9915,-1.0021,-1.0562,-1.0672,-1.0347,-1.0351,-0.9915,-0.9588,-0.9915,-1.0237,-1.0566,-1.0891,-1.1647,-1.2295,-1.2724,-1.3367,-1.4121,-2.2561,-2.3701,-2.3166,-2.3057,-2.3135,-2.3144,-2.3144,-2.2755,-2.1505,-2.0882,-2.0451,-1.7888,-1.6815,-1.6915,-1.6386,-1.5825,-1.5825,-1.5825,-1.5825,-1.5825,-1.5825,-1.5825,-1.5825,-1.5825,-1.5825,-1.5825,-1.5825,-1.5825,-1.5825,-1.5825,-1.5825,-1.5825,-1.5825,-1.5825,-1.5825,-1.5763,-1.4719,-1.3329,-1.1658,-0.9878,-0.8524,-0.8038,-0.8038,-0.8052,-0.8069,-0.8092,-0.8116,-0.8235,-0.8196,-0.8243,-0.8438,-0.8748,-0.8881,-0.8783,-0.8693,-0.8618,-0.8696,-0.874,-0.8788,-0.8852,-0.892,-0.8937,-0.8937,-0.8937,-0.8937,-0.8937,-0.8937,-0.8937,-0.8937,-0.8937,-0.8937,-0.8937,-0.8937,-0.8937,-0.8937,-0.8937,-0.8937,-0.8937,-0.8937,-0.8937,-0.8937,-0.8937,-0.8937,-0.8937,-0.8937,-0.8937,-0.8937,-0.8937,-0.8937,-0.8937,-0.8937,-0.8937,-0.8937,-0.8937,-0.8937,-0.8937,-0.9588,-1.0457,-1.0672,-1.1,-1.1973,-1.2837,-1.2295,-1.1538,-1.1105,-1.0891,-1.1214,-1.1428,-1.1755,-1.2295,-1.3264,-1.3804,-1.4014,-1.477,-1.563,-2.1644,-2.2241,-2.2497,-2.2793,-2.3096,-2.3135,-2.3047,-2.2862,-2.1649,-2.0657,-1.967,-1.8103,-1.6821,-1.6197,-1.6015,-1.5825,-1.5825,-1.5825,-1.5825,-1.5825,-1.5825,-1.5825,-1.5825,-1.5825,-1.5825,-1.5825,-1.5825,-1.5825,-1.5825,-1.5825,-1.573,-1.573,-1.573,-1.5635,-1.5248,-1.5619,-1.4917,-1.2882,-1.0121,-0.8382,-0.8127,-0.8038,-0.8038,-0.8082,-0.8153,-0.8235,-0.8255,-0.8374,-0.8347,-0.8476,-0.8714,-0.8897,-0.8928,-0.8832,-0.8893,-0.8893,-0.8906,-0.891,-0.8903,-0.892,-0.8937,-0.8937,-0.8937,-0.8937,-0.8937,-0.8937,-0.8937,-0.8937,-0.8937,-0.8937,-0.8937,-0.8937,-0.8937,-0.8937,-0.8937,-0.8937,-0.8937,-0.8937,-0.8937,-0.8937,-0.8937,-0.8937,-0.8937,-0.8937,-0.8937,-0.8937,-0.8937,-0.8937,-0.8937,-0.8937,-0.8937,-0.8937,-0.8937,-0.8937,-0.9154,-0.9154,-1.0131,-1.1214,-1.1538,-1.1864,-1.3053,-1.3804,-1.3372,-1.2724,-1.2507,-1.2181,-1.2068,-1.2394,-1.294,-1.3804,-1.4776,-1.5097,-1.5198,-1.6062,-1.6817,-2.1113,-2.1582,-2.2236,-2.2607,-2.2803,-2.3027,-2.2677,-2.1943,-2.0845,-1.9579,-1.8411,-1.7124,-1.6292,-1.5825,-1.5825,-1.5825,-1.5825,-1.5825,-1.5825,-1.5825,-1.5825,-1.5825,-1.5825,-1.5825,-1.5825,-1.5825,-1.5825,-1.5825,-1.5825,-1.573,-1.5534,-1.4949,-1.5343,-1.4854,-1.4376,-1.5159,-1.3756,-1.1648,-0.9284,-0.8113,-0.8031,-0.8045,-0.8082,-0.8167,-0.8238,-0.8316,-0.8408,-0.853,-0.8498,-0.8638,-0.876,-0.8951,-0.8961,-0.8899,-0.8933,-0.8933,-0.8933,-0.8933,-0.8933,-0.8937,-0.8937,-0.8937,-0.8937,-0.8937,-0.8937,-0.8937,-0.8937,-0.8937,-0.8937,-0.8937,-0.8937,-0.8937,-0.8937,-0.8937,-0.8937,-0.8937,-0.8937,-0.8937,-0.8937,-0.8937,-0.8937,-0.8937,-0.8937,-0.8937,-0.8937,-0.8937,-0.8937,-0.8937,-0.8937,-0.8937,-0.8937,-0.8937,-0.8937,-0.8937,-0.9372,-0.9699,-1.1,-1.1973,-1.2398,-1.294,-1.4019,-1.4556,-1.3911,-1.4341,-1.4669,-1.4121,-1.3352,-1.368,-1.4556,-1.5423,-1.6287,-1.6287,-1.628,-1.6605,-1.7259,-2.0605,-2.0742,-2.1826,-2.2412,-2.2549,-2.2959,-2.2403,-2.1203,-2.0034,-1.8864,-1.7591,-1.648,-1.5825,-1.5825,-1.5825,-1.5825,-1.5825,-1.5825,-1.5825,-1.5825,-1.5825,-1.5825,-1.5825,-1.5825,-1.5825,-1.5825,-1.5825,-1.5825,-1.5825,-1.573,-1.5337,-1.4364,-1.4943,-1.437,-1.3426,-1.3477,-1.2899,-0.9805,-0.8623,-0.8035,-0.8045,-0.8085,-0.8163,-0.8255,-0.8343,-0.8428,-0.854,-0.8686,-0.8764,-0.8682,-0.8855,-0.8916,-0.8923,-0.8927,-0.8937,-0.8937,-0.8937,-0.8937,-0.8937,-0.8937,-0.8937,-0.8937,-0.8937,-0.8937,-0.8937,-0.8937,-0.8937,-0.8937,-0.8937,-0.8937,-0.8937,-0.8937,-0.8937,-0.8937,-0.8937,-0.8937,-0.8937,-0.8937,-0.8937,-0.8937,-0.8937,-0.8937,-0.8937,-0.8937,-0.8937,-0.8937,-0.8937,-0.8937,-0.8937,-0.8937,-0.8937,-0.8937,-0.8937,-0.8937,-0.9154,-1.0025,-1.1542,-1.2403,-1.2832,-1.3588,-1.4449,-1.4663,-1.4234,-1.499,-1.5855,-1.5956,-1.5079,-1.5624,-1.6168,-1.6605,-1.6935,-1.7259,-1.7477,-1.7589,-1.7589,-2.001,-1.9304,-2.1135,-2.2055,-2.2349,-2.2969,-2.2296,-2.0935,-1.9852,-1.8688,-1.7412,-1.6473,-1.5825,-1.5825,-1.5825,-1.5825,-1.5825,-1.5825,-1.5825,-1.5825,-1.5825,-1.5825,-1.5825,-1.5825,-1.5825,-1.5825,-1.5825,-1.5825,-1.5825,-1.5825,-1.573,-1.5635,-1.4651,-1.407,-1.3022,-1.2001,-1.1128,-0.8832,-0.8038,-0.8038,-0.8082,-0.815,-0.8252,-0.8333,-0.852,-0.8689,-0.8703,-0.8828,-0.8896,-0.8893,-0.892,-0.8937,-0.8937,-0.8937,-0.8937,-0.8937,-0.8937,-0.8937,-0.8937,-0.8937,-0.8937,-0.8937,-0.8937,-0.8937,-0.8937,-0.8937,-0.8937,-0.8937,-0.8937,-0.8937,-0.8937,-0.8937,-0.8937,-0.8937,-0.8937,-0.8937,-0.8937,-0.8937,-0.8937,-0.8937,-0.8937,-0.8937,-0.8937,-0.8937,-0.8937,-0.8937,-0.8937,-0.8937,-0.8937,-0.8937,-0.8937,-0.8937,-0.8937,-0.8937,-0.8937,-0.9915,-1.1109,-1.1755,-1.2077,-1.3156,-1.4341,-1.4234,-1.348,-1.4663,-1.5417,-1.6168,-1.6922,-1.6929,-1.7041,-1.7364,-1.7589,-1.7589,-1.7589,-1.7589,-1.7589,-1.831,-1.8031,-1.9059,-1.9667,-2.0048,-2.043,-2.0018,-1.9115,-1.8588,-1.7677,-1.6574,-1.6015,-1.5825,-1.5825,-1.5825,-1.5825,-1.5825,-1.5825,-1.5825,-1.5825,-1.5825,-1.5825,-1.5825,-1.5825,-1.5825,-1.5825,-1.5825,-1.5825,-1.5825,-1.573,-1.514,-1.4651,-1.3974,-1.2124,-1.0979,-1.0122,-0.9034,-0.8542,-0.8038,-0.8038,-0.8072,-0.8191,-0.8313,-0.8421,-0.8581,-0.8757,-0.8838,-0.8899,-0.893,-0.8937,-0.8937,-0.8937,-0.8937,-0.8937,-0.8937,-0.8937,-0.8937,-0.8937,-0.8937,-0.8937,-0.8937,-0.8937,-0.8937,-0.8937,-0.8937,-0.8937,-0.8937,-0.8937,-0.8937,-0.8937,-0.8937,-0.8937,-0.8937,-0.8937,-0.8937,-0.8937,-0.8937,-0.8937,-0.8937,-0.8937,-0.8937,-0.8937,-0.8937,-0.8937,-0.8937,-0.8937,-0.8937,-0.8937,-0.8937,-0.8937,-0.8937,-0.8937,-0.8937,-0.8937,-0.8937,-0.9699,-1.0566,-1.0996,-1.1428,-1.229,-1.3156,-1.2507,-1.2295,-1.3588,-1.499,-1.5855,-1.6723,-1.7371,-1.7589,-1.7582,-1.7582,-1.7589,-1.7589,-1.7477,-1.7589,-1.7098,-1.687,-1.7193,-1.7733,-1.844,-1.8899,-1.8544,-1.7832,-1.7777,-1.6943,-1.5825,-1.5825,-1.5825,-1.5825,-1.5825,-1.5825,-1.5825,-1.5825,-1.5825,-1.5825,-1.5825,-1.5825,-1.5825,-1.5825,-1.5825,-1.5825,-1.5825,-1.5825,-1.5825,-1.5439,-1.4459,-1.3494,-1.2813,-1.0867,-0.9604,-0.8137,-0.8038,-0.8038,-0.8038,-0.8075,-0.8116,-0.8262,-0.8411,-0.855,-0.8713,-0.8818,-0.8896,-0.8933,-0.8933,-0.8937,-0.8937,-0.8937,-0.8937,-0.8937,-0.8937,-0.8937,-0.8937,-0.8937,-0.8937,-0.8937,-0.8937,-0.8937,-0.8937,-0.8937,-0.8937,-0.8937,-0.8937,-0.8937,-0.8937,-0.8937,-0.8937,-0.8937,-0.8937,-0.8937,-0.8937,-0.8937,-0.8937,-0.8937,-0.8937,-0.8937,-0.8937,-0.8937,-0.8937,-0.8937,-0.8937,-0.8937,-0.8937,-0.8937,-0.8937,-0.8937,-0.8937,-0.8937,-0.8937,-0.8937,-0.8937,-0.9482,-0.9915,-1.0676,-1.0996,-1.0891,-1.1214,-1.0781,-1.1109,-1.2295,-1.3701,-1.5435,-1.6311,-1.6855,-1.7272,-1.7575,-1.747,-1.7259,-1.6935,-1.6935,-1.7477,-1.6601,-1.5786,-1.5801,-1.676,-1.8132,-1.8795,-1.843,-1.7524,-1.749,-1.6857,-1.5825,-1.5825,-1.5825,-1.5825,-1.5825,-1.5825,-1.5825,-1.5825,-1.5825,-1.5825,-1.5825,-1.5825,-1.5825,-1.5825,-1.5825,-1.5825,-1.5825,-1.5825,-1.5825,-1.4752,-1.3494,-1.2037,-1.1165,-1.0092,-0.9706,-0.863,-0.8038,-0.8038,-0.8038,-0.8116,-0.8238,-0.837,-0.8516,-0.8665,-0.8815,-0.891,-0.8927,-0.8937,-0.8937,-0.8937,-0.8937,-0.8937,-0.8937,-0.8937,-0.8937,-0.8937,-0.8937,-0.8937,-0.8937,-0.8937,-0.8937,-0.8937,-0.8937,-0.8937,-0.8937,-0.8937,-0.8937,-0.8937,-0.8937,-0.8937,-0.8937,-0.8937,-0.8937,-0.8937,-0.8937,-0.8937,-0.8937,-0.8937,-0.8937,-0.8937,-0.8937,-0.8937,-0.8937,-0.8937,-0.8937,-0.8937,-0.8937,-0.8937,-0.8937,-0.8937,-0.8937,-0.8937,-0.8937,-0.8937,-0.8937,-0.8937,-0.9372,-1.0131,-1.0457,-1.0241,-1.0025,-0.9915,-1.0351,-1.1214,-1.2842,-1.4793,-1.5678,-1.6349,-1.5743,-1.5146,-1.6599,-1.6717,-1.6393,-1.6511,-1.7179,-1.4977,-1.465,-1.4657,-1.505,-1.5792,-1.6197,-1.6252,-1.6188,-1.6282,-1.6197,-1.5825,-1.5825,-1.5825,-1.5825,-1.5825,-1.5825,-1.5825,-1.5825,-1.5825,-1.5825,-1.5825,-1.5825,-1.5825,-1.5825,-1.5825,-1.5825,-1.5825,-1.5825,-1.573,-1.4364,-1.3204,-1.1848,-0.9801,-0.8722,-0.8531,-0.8137,-0.8038,-0.8038,-0.8052,-0.8113,-0.8265,-0.8411,-0.8557,-0.8713,-0.8866,-0.8933,-0.8937,-0.8937,-0.8937,-0.8937,-0.8937,-0.8937,-0.8937,-0.8937,-0.8937,-0.8937,-0.8937,-0.8937,-0.8937,-0.8937,-0.8937,-0.8937,-0.8937,-0.8937,-0.8937,-0.8937,-0.8937,-0.8937,-0.8937,-0.8937,-0.8937,-0.8937,-0.8937,-0.8937,-0.8937,-0.8937,-0.8937,-0.8937,-0.8937,-0.8937,-0.8937,-0.8937,-0.8937,-0.8937,-0.8937,-0.8937,-0.8937,-0.8937,-0.8937,-0.8937,-0.8937,-0.8937,-0.8937,-0.8937,-0.8937,-0.8937,-0.8937,-0.9482,-0.9588,-0.9372,-0.9154,-0.9154,-0.9805,-1.0672,-1.2413,-1.4046,-1.4583,-1.4567,-1.2979,-1.2622,-1.3976,-1.5636,-1.5962,-1.643,-1.7357,-1.4088,-1.4088,-1.4088,-1.4188,-1.4422,-1.4796,-1.5177,-1.5531,-1.5745,-1.5825,-1.5825,-1.5825,-1.5825,-1.5825,-1.5825,-1.5825,-1.5825,-1.5825,-1.5825,-1.5825,-1.5825,-1.5825,-1.5825,-1.573,-1.5825,-1.573,-1.573,-1.5825,-1.5635,-1.3974,-1.2134,-1.0288,-0.892,-0.8333,-0.8038,-0.8038,-0.8038,-0.8038,-0.8052,-0.815,-0.8309,-0.8459,-0.8587,-0.876,-0.8882,-0.8937,-0.8937,-0.8937,-0.8937,-0.8937,-0.8937,-0.8937,-0.8937,-0.8937,-0.8937,-0.8937,-0.8937,-0.8937,-0.8937,-0.8937,-0.8937,-0.8937,-0.8937,-0.8937,-0.8937,-0.8937,-0.8937,-0.8937,-0.8937,-0.8937,-0.8937,-0.8937,-0.8937,-0.8937,-0.8937,-0.8937,-0.8937,-0.8937,-0.8937,-0.8937,-0.8937,-0.8937,-0.8937,-0.8937,-0.8937,-0.8937,-0.8937,-0.8937,-0.8937,-0.8937,-0.8937,-0.8937,-0.8937,-0.8937,-0.8937,-0.8937,-0.8937,-0.8937,-0.8937,-0.8937,-0.8937,-0.9047,-0.9588,-1.0237,-1.1433,-1.2512,-1.3151,-1.2798,-1.1346,-1.0816,-1.1407,-1.3156,-1.5097,-1.6004,-1.6706,-1.4088,-1.4088,-1.4088,-1.4088,-1.4195,-1.4716,-1.5277,-1.5785,-1.5818,-1.5825,-1.5825,-1.5825,-1.5825,-1.5825,-1.5825,-1.5825,-1.5825,-1.5825,-1.5825,-1.573,-1.5534,-1.5635,-1.5553,-1.5452,-1.4956,-1.5248,-1.5248,-1.4758,-1.5242,-1.3108,-1.0578,-0.892,-0.8233,-0.8038,-0.8038,-0.8038,-0.8038,-0.8038,-0.8052,-0.8194,-0.8387,-0.8472,-0.8642,-0.8811,-0.8927,-0.8937,-0.8937,-0.8937,-0.8937,-0.8937,-0.8937,-0.8937,-0.8937,-0.8937,-0.8937,-0.8937,-0.8937,-0.8937,-0.8937,-0.8937,-0.8937,-0.8937,-0.8937,-0.8937,-0.8937,-0.8937,-0.8937,-0.8937,-0.8937,-0.8937,-0.8937,-0.8937,-0.8937,-0.8937,-0.8937,-0.8937,-0.8937,-0.8937,-0.8937,-0.8937,-0.8937,-0.8937,-0.8937,-0.8937,-0.8937,-0.8937,-0.8937,-0.8937,-0.8937,-0.8937,-0.8937,-0.8937,-0.8937,-0.8937,-0.8937,-0.8937,-0.8937,-0.8937,-0.8937,-0.8937,-0.8937,-0.8937,-0.9265,-0.9695,-1.0339,-1.1202,-1.1959,-1.1502,-1.0062,-0.987,-1.0123,-1.1428,-1.3588,-1.4352,-1.5035,-1.4088,-1.4088,-1.4088,-1.4088,-1.4175,-1.4716,-1.5184,-1.5518,-1.5725,-1.5825,-1.5825,-1.5825,-1.5825,-1.5825,-1.5825,-1.5825,-1.5825,-1.5825,-1.5825,-1.5534,-1.4854,-1.5198,-1.4815,-1.4112,-1.3409,-1.3108,-1.3108,-1.3301,-1.2818,-1.117,-0.9899,-0.8333,-0.8038,-0.8038,-0.8038,-0.8038,-0.8038,-0.8038,-0.8038,-0.8221,-0.8401,-0.8482,-0.8679,-0.8849,-0.8937,-0.8937,-0.8937,-0.8937,-0.8937,-0.8937,-0.8937,-0.8937,-0.8937,-0.8937,-0.8937,-0.8937,-0.8937,-0.8937,-0.8937,-0.8937,-0.8937,-0.8937,-0.8937,-0.8937,-0.8937,-0.8937,-0.8937,-0.8937,-0.8937,-0.8937,-0.8937,-0.8937,-0.8937,-0.8937,-0.8937,-0.8937,-0.8937,-0.8937,-0.8937,-0.8937,-0.8937,-0.8937,-0.8937,-0.8937,-0.8937,-0.8937,-0.8937,-0.8937,-0.8937,-0.8937,-0.8937,-0.8937,-0.8937,-0.8937,-0.8937,-0.8937,-0.8937,-0.8937,-0.8937,-0.8937,-0.8937,-0.8937,-0.8937,-0.9147,-0.968,-1.0335,-1.1101,-1.0315,-0.9315,-0.9123,-0.9482,-1.0672,-1.1864,-1.2507,-1.327,-1.4088,-1.4088,-1.4088,-1.4088,-1.4168,-1.4589,-1.4957,-1.5264,-1.5651,-1.5825,-1.5825,-1.5825,-1.5825,-1.5825,-1.5825,-1.5825,-1.5737,-1.5146,-1.4949,-1.4657,-1.3692,-1.3403,-1.2926,-1.2543,-1.2027,-1.1633,-1.1741,-1.2237,-1.1458,-1.0583,-0.9312,-0.8137,-0.8038,-0.8038,-0.8038,-0.8038,-0.8038,-0.8038,-0.8079,-0.8228,-0.8367,-0.8492,-0.8676,-0.8872,-0.8933,-0.8937,-0.8937,-0.8937,-0.8937,-0.8937,-0.8937,-0.8937,-0.8937,-0.8937,-0.8937,-0.8937,-0.8937,-0.8937,-0.8937,-0.8937,-0.8937,-0.8937,-0.8937,-0.8937,-0.8937,-0.8937,-0.8937,-0.8937,-0.8937,-0.8937,-0.8937,-0.8937,-0.8937,-0.8937,-0.8937,-0.8937,-0.8937,-0.8937,-0.8937,-0.8937,-0.8937,-0.8937,-0.8937,-0.8937,-0.8937,-0.8937,-0.8937,-0.8937,-0.8937,-0.8937,-0.8937,-0.8937,-0.8937,-0.8937,-0.8937,-0.8937,-0.8937,-0.8937,-0.8937,-0.8937,-0.8937,-0.8937,-0.8937,-0.8923,-0.902,-0.968,-1.0237,-0.968,-0.9013,-0.8927,-0.8937,-0.9699,-1.0221,-1.0296,-1.1172,-1.3913,-1.3913,-1.4082,-1.4088,-1.4135,-1.4416,-1.471,-1.5017,-1.5545,-1.5805,-1.5818,-1.5825,-1.5825,-1.5825,-1.5825,-1.5635,-1.5242,-1.4561,-1.3974,-1.3686,-1.2328,-1.1745,-1.1541,-1.1142,-1.0565,-1.0742,-1.0844,-1.0774,-1.097,-1.0096,-0.892,-0.8038,-0.8038,-0.8038,-0.8038,-0.8038,-0.8038,-0.8038,-0.8075,-0.8177,-0.8394,-0.852,-0.8618,-0.8879,-0.8937,-0.8937,-0.8937,-0.8937,-0.8937,-0.8937,-0.8937,-0.8937,-0.8937,-0.8937,-0.8937,-0.8937,-0.8937,-0.8937,-0.8937,-0.8937,-0.8937,-0.8937,-0.8937,-0.8937,-0.8937,-0.8937,-0.8937,-0.8937,-0.8937,-0.8937,-0.8937,-0.8937,-0.8937,-0.8937,-0.8937,-0.8937,-0.8937,-0.8937,-0.8937,-0.8937,-0.8937,-0.8937,-0.8937,-0.8937,-0.8937,-0.8937,-0.8937,-0.8937,-0.8937,-0.8937,-0.8937,-0.8937,-0.8937,-0.8937,-0.8937,-0.8937,-0.8937,-0.8937,-0.8937,-0.8937,-0.8937,-0.8937,-0.8937,-0.8927,-0.892,-0.8927,-0.9151,-0.8923,-0.892,-0.893,-0.8937,-0.8937,-0.8913,-0.8992,-0.9431,-1.2766,-1.2851,-1.373,-1.4088,-1.4128,-1.4402,-1.4683,-1.4983,-1.5344,-1.5524,-1.5792,-1.5825,-1.5825,-1.5825,-1.5832,-1.5439,-1.4459,-1.3884,-1.3295,-1.2231,-1.1068,-1.0485,-1.019,-0.96,-0.911,-0.8718,-0.8817,-0.9213,-0.9213,-0.8821,-0.8428,-0.8038,-0.8038,-0.8038,-0.8038,-0.8038,-0.8038,-0.8038,-0.8058,-0.8191,-0.8435,-0.8523,-0.8618,-0.8838,-0.8937,-0.8937,-0.8937,-0.8937,-0.8937,-0.8937,-0.8937,-0.8937,-0.8937,-0.8937,-0.8937,-0.8937,-0.8937,-0.8937,-0.8937,-0.8937,-0.8937,-0.8937,-0.8937,-0.8937,-0.8937,-0.8937,-0.8937,-0.8937,-0.8937,-0.8937,-0.8937,-0.8937,-0.8937,-0.8937,-0.8937,-0.8937,-0.8937,-0.8937,-0.8937,-0.8937,-0.8937,-0.8937,-0.8937,-0.8937,-0.8937,-0.8937,-0.8937,-0.8937,-0.8937,-0.8937,-0.8937,-0.8937,-0.8937,-0.8937,-0.8937,-0.8937,-0.8937,-0.8937,-0.8937,-0.8937,-0.8937,-0.8937,-0.8937,-0.8937,-0.8937,-0.8937,-0.8937,-0.8937,-0.8933,-0.8937,-0.8937,-0.8937,-0.8937,-0.9023,-0.903,-1.1552,-1.1729,-1.2772,-1.3294,-1.3319,-1.3458,-1.3417,-1.3416,-1.4054,-1.4612,-1.4974,-1.5468,-1.5825,-1.5825,-1.5832,-1.4956,-1.3878,-1.3204,-1.2231,-1.0974,-0.9998,-0.9414,-0.8829,-0.8535,-0.8333,-0.8038,-0.8038,-0.8137,-0.8038,-0.8038,-0.8038,-0.8038,-0.8038,-0.8038,-0.8038,-0.8038,-0.8038,-0.8038,-0.8038,-0.8204,-0.8448,-0.8513,-0.8642,-0.8845,-0.8937,-0.8937,-0.8937,-0.8937,-0.8937,-0.8937,-0.8937,-0.8937,-0.8937,-0.8937,-0.8937,-0.8937,-0.8937,-0.8937,-0.8937,-0.8937,-0.8937,-0.8937,-0.8937,-0.8937,-0.8937,-0.8937,-0.8937,-0.8937,-0.8937,-0.8937,-0.8937,-0.8937,-0.8937,-0.8937,-0.8937,-0.8937,-0.8937,-0.8937,-0.8937,-0.8937,-0.8937,-0.8937,-0.8937,-0.8937,-0.8937,-0.8937,-0.8937,-0.8937,-0.8937,-0.8937,-0.8937,-0.8937,-0.8937,-0.8937,-0.8937,-0.8937,-0.8937,-0.8937,-0.8937,-0.8937,-0.8937,-0.8937,-0.8937,-0.8937,-0.8937,-0.8937,-0.8937,-0.8937,-0.8937,-0.8937,-0.8937,-0.8937,-0.8937,-0.8937,-0.8937,-1.0524,-1.0778,-1.1643,-1.2072,-1.2072,-1.2072,-1.1793,-1.1494,-1.253,-1.325,-1.3631,-1.481,-1.5399,-1.5534,-1.5534,-1.4561,-1.359,-1.2619,-1.1263,-0.9801,-0.8627,-0.8531,-0.8333,-0.8038,-0.8038,-0.8038,-0.8038,-0.8038,-0.8038,-0.8038,-0.8038,-0.8038,-0.8038,-0.8038,-0.8038,-0.8038,-0.8038,-0.8038,-0.8079,-0.8214,-0.836,-0.8492,-0.8676,-0.8828,-0.8937,-0.8937,-0.8937,-0.8937,-0.8937,-0.8937,-0.8937,-0.8937,-0.8937,-0.8937,-0.8937,-0.8937,-0.8937,-0.8937,-0.8937,-0.8937,-0.8937,-0.8937,-0.8937,-0.8937,-0.8937,-0.8937,-0.8937,-0.8937,-0.8937,-0.8937,-0.8937,-0.8937,-0.8937,-0.8937,-0.8937,-0.8937,-0.8937,-0.8937,-0.8937,-0.8937,-0.8937,-0.8937,-0.8937,-0.8937,-0.8937,-0.8937,-0.8937,-0.8937,-0.8937,-0.8937,-0.8937,-0.8937,-0.8937,-0.8937,-0.8937,-0.8937,-0.8937,-0.8937,-0.8937,-0.8937,-0.8937,-0.8937,-0.8937,-0.8937,-0.8937,-0.8937,-0.8937,-0.8937,-0.8937,-0.8937,-0.8937,-0.8937,-0.8937,-0.8937,-0.8937,-0.9749,-1.0616,-1.0869,-1.095,-1.0956,-1.095,-1.0994,-1.1206,-1.2026,-1.237,-1.239,-1.3119,-1.3826,-1.4262,-1.4268,-1.3295,-1.1648,-1.1361,-1.019,-0.8528,-0.8233,-0.8038,-0.8038,-0.8038,-0.8038,-0.8038,-0.8038,-0.8038,-0.8038,-0.8038,-0.8038,-0.8038,-0.8038,-0.8038,-0.8038,-0.8038,-0.8038,-0.8038,-0.8075,-0.8184,-0.8394,-0.8537,-0.8672,-0.8811,-0.8937,-0.8937,-0.8937,-0.8937,-0.8937,-0.8937,-0.8937,-0.8937,-0.8937,-0.8937,-0.8937,-0.8937,-0.8937,-0.8937,-0.8937,-0.8937,-0.8937,-0.8937,-0.8937,-0.8937,-0.8937,-0.8937,-0.8937,-0.8937,-0.8937,-0.8937,-0.8937,-0.8937,-0.8937,-0.8937,-0.8937,-0.8937,-0.8937,-0.8937,-0.8937,-0.8937,-0.8937,-0.8937,-0.8937,-0.8937,-0.8937,-0.8937,-0.8937,-0.8937,-0.8937,-0.8937,-0.8937,-0.8937,-0.8937,-0.8937,-0.8937,-0.8937,-0.8937,-0.8937,-0.8937,-0.8937,-0.8937,-0.8937,-0.8937,-0.8937,-0.8937,-0.8937,-0.8937,-0.8937,-0.8937,-0.8937,-0.8937,-0.8937,-0.8937,-0.8937,-0.8937]}]]